Wetterdaten: Samstag, 27.06.2020
Datum Zeit Temp. I. Temp. A. Feuchte I. Feuchte A. Luftdruck Regen Wind Richtung Richtung Sonnenschein Solar Taupunkt Windchill Windböen
27.06.2020 00:00 24,2 °C 17,4 °C 58 % 85 % 1010,8 hPa 0,0 l/m² 0,0 km/h (0 Bft) NO 34 ° 0 min 0 W/m² 14,8 °C 17,4 °C 0,0 km/h (0 Bft)
27.06.2020 00:01 24,2 °C 17,3 °C 58 % 83 % 1010,9 hPa 0,0 l/m² 0,5 km/h (0 Bft) NO 34 ° 0 min 0 W/m² 14,4 °C 17,3 °C 1,6 km/h (1 Bft)
27.06.2020 00:02 24,2 °C 17,2 °C 58 % 84 % 1010,9 hPa 0,0 l/m² 0,9 km/h (0 Bft) NO 34 ° 0 min 0 W/m² 14,5 °C 17,2 °C 1,6 km/h (1 Bft)
27.06.2020 00:04 24,2 °C 17,1 °C 58 % 85 % 1010,9 hPa 0,0 l/m² 1,1 km/h (1 Bft) NO 34 ° 0 min 0 W/m² 14,6 °C 17,1 °C 1,6 km/h (1 Bft)
27.06.2020 00:06 24,2 °C 16,9 °C 58 % 85 % 1010,9 hPa 0,0 l/m² 1,2 km/h (1 Bft) NO 34 ° 0 min 0 W/m² 14,4 °C 16,9 °C 3,2 km/h (1 Bft)
27.06.2020 00:08 24,2 °C 16,9 °C 58 % 86 % 1010,9 hPa 0,0 l/m² 1,3 km/h (1 Bft) NO 34 ° 0 min 0 W/m² 14,5 °C 16,9 °C 1,6 km/h (1 Bft)
27.06.2020 00:10 24,2 °C 16,9 °C 58 % 86 % 1010,8 hPa 0,0 l/m² 1,5 km/h (1 Bft) NO 34 ° 0 min 0 W/m² 14,5 °C 16,9 °C 1,6 km/h (1 Bft)
27.06.2020 00:11 24,2 °C 16,8 °C 58 % 86 % 1010,8 hPa 0,0 l/m² 0,9 km/h (0 Bft) NO 34 ° 0 min 0 W/m² 14,4 °C 16,8 °C 1,6 km/h (1 Bft)
27.06.2020 00:12 24,2 °C 16,8 °C 58 % 86 % 1010,8 hPa 0,0 l/m² 0,7 km/h (0 Bft) NO 34 ° 0 min 0 W/m² 14,4 °C 16,8 °C 1,6 km/h (1 Bft)
27.06.2020 00:13 24,2 °C 16,8 °C 58 % 87 % 1010,8 hPa 0,0 l/m² 0,7 km/h (0 Bft) NO 34 ° 0 min 0 W/m² 14,6 °C 16,8 °C 1,6 km/h (1 Bft)
27.06.2020 00:15 24,2 °C 16,8 °C 58 % 87 % 1010,8 hPa 0,0 l/m² 0,5 km/h (0 Bft) NO 34 ° 0 min 0 W/m² 14,6 °C 16,8 °C 1,6 km/h (1 Bft)
27.06.2020 00:17 24,2 °C 16,8 °C 58 % 87 % 1010,7 hPa 0,0 l/m² 0,0 km/h (0 Bft) NO 34 ° 0 min 0 W/m² 14,6 °C 16,8 °C 0,0 km/h (0 Bft)
27.06.2020 00:19 24,2 °C 16,8 °C 58 % 87 % 1010,8 hPa 0,0 l/m² 0,0 km/h (0 Bft) NO 34 ° 0 min 0 W/m² 14,6 °C 16,8 °C 0,0 km/h (0 Bft)
27.06.2020 00:21 24,2 °C 16,8 °C 58 % 87 % 1010,8 hPa 0,0 l/m² 0,0 km/h (0 Bft) NO 34 ° 0 min 0 W/m² 14,6 °C 16,8 °C 0,0 km/h (0 Bft)
27.06.2020 00:24 24,2 °C 16,8 °C 58 % 87 % 1010,8 hPa 0,0 l/m² 0,2 km/h (0 Bft) NO 34 ° 0 min 0 W/m² 14,6 °C 16,8 °C 1,6 km/h (1 Bft)
27.06.2020 00:26 24,2 °C 16,8 °C 58 % 87 % 1010,7 hPa 0,0 l/m² 0,0 km/h (0 Bft) NO 34 ° 0 min 0 W/m² 14,6 °C 16,8 °C 0,0 km/h (0 Bft)
27.06.2020 00:28 24,2 °C 16,8 °C 58 % 87 % 1010,8 hPa 0,0 l/m² 0,0 km/h (0 Bft) NO 34 ° 0 min 0 W/m² 14,6 °C 16,8 °C 0,0 km/h (0 Bft)
27.06.2020 00:30 24,2 °C 16,9 °C 58 % 87 % 1010,8 hPa 0,0 l/m² 0,0 km/h (0 Bft) NO 34 ° 0 min 0 W/m² 14,7 °C 16,9 °C 1,6 km/h (1 Bft)
27.06.2020 00:32 24,2 °C 16,9 °C 58 % 86 % 1010,7 hPa 0,0 l/m² 0,1 km/h (0 Bft) NO 34 ° 0 min 0 W/m² 14,5 °C 16,9 °C 1,6 km/h (1 Bft)
27.06.2020 00:33 24,2 °C 16,9 °C 58 % 86 % 1010,7 hPa 0,0 l/m² 0,0 km/h (0 Bft) NO 34 ° 0 min 0 W/m² 14,5 °C 16,9 °C 0,0 km/h (0 Bft)
27.06.2020 00:34 24,2 °C 16,9 °C 58 % 86 % 1010,9 hPa 0,0 l/m² 0,0 km/h (0 Bft) NO 34 ° 0 min 0 W/m² 14,5 °C 16,9 °C 0,0 km/h (0 Bft)
27.06.2020 00:36 24,1 °C 16,9 °C 58 % 86 % 1010,7 hPa 0,0 l/m² 0,1 km/h (0 Bft) NO 34 ° 0 min 0 W/m² 14,5 °C 16,9 °C 1,6 km/h (1 Bft)
27.06.2020 00:38 24,2 °C 16,9 °C 58 % 85 % 1010,7 hPa 0,0 l/m² 0,0 km/h (0 Bft) NO 34 ° 0 min 0 W/m² 14,4 °C 16,9 °C 0,0 km/h (0 Bft)
27.06.2020 00:40 24,2 °C 16,7 °C 58 % 85 % 1010,7 hPa 0,0 l/m² 0,8 km/h (0 Bft) NO 34 ° 0 min 0 W/m² 14,2 °C 16,7 °C 1,6 km/h (1 Bft)
27.06.2020 00:42 24,1 °C 16,7 °C 58 % 86 % 1010,7 hPa 0,0 l/m² 1,0 km/h (0 Bft) NO 34 ° 0 min 0 W/m² 14,3 °C 16,7 °C 1,6 km/h (1 Bft)
27.06.2020 00:43 24,2 °C 16,7 °C 58 % 87 % 1010,7 hPa 0,0 l/m² 1,6 km/h (1 Bft) NO 34 ° 0 min 0 W/m² 14,5 °C 16,7 °C 1,6 km/h (1 Bft)
27.06.2020 00:47 24,1 °C 16,6 °C 58 % 87 % 1010,7 hPa 0,0 l/m² 1,8 km/h (1 Bft) NO 34 ° 0 min 0 W/m² 14,4 °C 16,6 °C 3,2 km/h (1 Bft)
27.06.2020 00:49 24,2 °C 16,3 °C 58 % 86 % 1010,7 hPa 0,0 l/m² 2,5 km/h (1 Bft) NO 34 ° 0 min 0 W/m² 14,0 °C 16,3 °C 3,2 km/h (1 Bft)
27.06.2020 00:51 24,1 °C 16,0 °C 58 % 86 % 1010,7 hPa 0,0 l/m² 1,6 km/h (1 Bft) NO 34 ° 0 min 0 W/m² 13,7 °C 16,0 °C 3,2 km/h (1 Bft)
27.06.2020 00:52 24,1 °C 15,9 °C 58 % 86 % 1010,7 hPa 0,0 l/m² 1,2 km/h (1 Bft) NO 34 ° 0 min 0 W/m² 13,6 °C 15,9 °C 1,6 km/h (1 Bft)
27.06.2020 00:53 24,2 °C 15,9 °C 58 % 87 % 1010,7 hPa 0,0 l/m² 1,7 km/h (1 Bft) NO 34 ° 0 min 0 W/m² 13,7 °C 15,9 °C 3,2 km/h (1 Bft)
27.06.2020 00:54 24,2 °C 15,9 °C 58 % 87 % 1010,7 hPa 0,0 l/m² 1,3 km/h (1 Bft) NO 34 ° 0 min 0 W/m² 13,7 °C 15,9 °C 1,6 km/h (1 Bft)
27.06.2020 00:56 24,1 °C 15,9 °C 58 % 88 % 1010,7 hPa 0,0 l/m² 1,8 km/h (1 Bft) NO 34 ° 0 min 0 W/m² 13,9 °C 15,9 °C 3,2 km/h (1 Bft)
27.06.2020 00:58 24,2 °C 16,0 °C 58 % 88 % 1010,7 hPa 0,0 l/m² 1,8 km/h (1 Bft) NO 34 ° 0 min 0 W/m² 14,0 °C 16,0 °C 3,2 km/h (1 Bft)
27.06.2020 01:00 24,2 °C 16,0 °C 58 % 88 % 1010,8 hPa 0,0 l/m² 1,9 km/h (1 Bft) NO 34 ° 0 min 0 W/m² 14,0 °C 16,0 °C 3,2 km/h (1 Bft)
27.06.2020 01:01 24,1 °C 16,1 °C 58 % 88 % 1010,7 hPa 0,0 l/m² 1,1 km/h (1 Bft) NO 34 ° 0 min 0 W/m² 14,1 °C 16,1 °C 1,6 km/h (1 Bft)
27.06.2020 01:02 24,1 °C 16,1 °C 58 % 88 % 1010,7 hPa 0,0 l/m² 0,0 km/h (0 Bft) NO 34 ° 0 min 0 W/m² 14,1 °C 16,1 °C 0,0 km/h (0 Bft)
27.06.2020 01:03 24,2 °C 16,1 °C 58 % 88 % 1010,7 hPa 0,0 l/m² 0,0 km/h (0 Bft) NO 34 ° 0 min 0 W/m² 14,1 °C 16,1 °C 0,0 km/h (0 Bft)
27.06.2020 01:06 24,1 °C 16,2 °C 58 % 88 % 1010,7 hPa 0,0 l/m² 0,4 km/h (0 Bft) NO 34 ° 0 min 0 W/m² 14,2 °C 16,2 °C 1,6 km/h (1 Bft)
27.06.2020 01:08 24,2 °C 16,2 °C 58 % 88 % 1010,7 hPa 0,0 l/m² 0,5 km/h (0 Bft) NO 34 ° 0 min 0 W/m² 14,2 °C 16,2 °C 1,6 km/h (1 Bft)
27.06.2020 01:10 24,2 °C 16,3 °C 58 % 88 % 1010,8 hPa 0,0 l/m² 1,1 km/h (1 Bft) NO 34 ° 0 min 0 W/m² 14,3 °C 16,3 °C 3,2 km/h (1 Bft)
27.06.2020 01:12 24,1 °C 16,3 °C 58 % 88 % 1010,8 hPa 0,0 l/m² 0,8 km/h (0 Bft) NO 34 ° 0 min 0 W/m² 14,3 °C 16,3 °C 1,6 km/h (1 Bft)
27.06.2020 01:13 24,2 °C 16,3 °C 58 % 88 % 1010,9 hPa 0,0 l/m² 0,1 km/h (0 Bft) NO 34 ° 0 min 0 W/m² 14,3 °C 16,3 °C 1,6 km/h (1 Bft)
27.06.2020 01:15 24,1 °C 15,8 °C 58 % 84 % 1010,9 hPa 0,0 l/m² 0,0 km/h (0 Bft) NO 34 ° 0 min 0 W/m² 13,1 °C 15,8 °C 0,0 km/h (0 Bft)
27.06.2020 01:17 24,1 °C 15,5 °C 58 % 85 % 1010,8 hPa 0,0 l/m² 0,9 km/h (0 Bft) NO 34 ° 0 min 0 W/m² 13,0 °C 15,5 °C 1,6 km/h (1 Bft)
27.06.2020 01:19 24,1 °C 15,3 °C 58 % 86 % 1010,8 hPa 0,0 l/m² 0,7 km/h (0 Bft) NO 34 ° 0 min 0 W/m² 13,0 °C 15,3 °C 1,6 km/h (1 Bft)
27.06.2020 01:21 24,2 °C 15,1 °C 58 % 87 % 1010,7 hPa 0,0 l/m² 0,2 km/h (0 Bft) NO 34 ° 0 min 0 W/m² 13,0 °C 15,1 °C 1,6 km/h (1 Bft)
27.06.2020 01:24 24,1 °C 15,1 °C 58 % 88 % 1010,7 hPa 0,0 l/m² 1,1 km/h (1 Bft) NO 34 ° 0 min 0 W/m² 13,1 °C 15,1 °C 3,2 km/h (1 Bft)
27.06.2020 01:26 24,1 °C 15,2 °C 58 % 88 % 1010,6 hPa 0,0 l/m² 0,9 km/h (0 Bft) NO 34 ° 0 min 0 W/m² 13,2 °C 15,2 °C 1,6 km/h (1 Bft)
27.06.2020 01:28 24,1 °C 15,3 °C 58 % 89 % 1010,6 hPa 0,0 l/m² 0,1 km/h (0 Bft) NO 34 ° 0 min 0 W/m² 13,5 °C 15,3 °C 1,6 km/h (1 Bft)
27.06.2020 01:30 24,1 °C 15,3 °C 58 % 89 % 1010,6 hPa 0,0 l/m² 0,2 km/h (0 Bft) NO 34 ° 0 min 0 W/m² 13,5 °C 15,3 °C 1,6 km/h (1 Bft)
27.06.2020 01:32 24,1 °C 15,3 °C 58 % 89 % 1010,7 hPa 0,0 l/m² 1,7 km/h (1 Bft) NO 34 ° 0 min 0 W/m² 13,5 °C 15,3 °C 3,2 km/h (1 Bft)
27.06.2020 01:33 24,1 °C 15,3 °C 57 % 89 % 1010,7 hPa 0,0 l/m² 1,3 km/h (1 Bft) NO 34 ° 0 min 0 W/m² 13,5 °C 15,3 °C 3,2 km/h (1 Bft)
27.06.2020 01:35 24,1 °C 15,2 °C 57 % 88 % 1010,8 hPa 0,0 l/m² 2,0 km/h (1 Bft) NO 34 ° 0 min 0 W/m² 13,2 °C 15,2 °C 3,2 km/h (1 Bft)
27.06.2020 01:37 24,1 °C 15,2 °C 57 % 89 % 1010,8 hPa 0,0 l/m² 0,4 km/h (0 Bft) NO 34 ° 0 min 0 W/m² 13,4 °C 15,2 °C 1,6 km/h (1 Bft)
27.06.2020 01:39 24,1 °C 15,2 °C 57 % 90 % 1010,7 hPa 0,0 l/m² 0,0 km/h (0 Bft) NO 34 ° 0 min 0 W/m² 13,6 °C 15,2 °C 0,0 km/h (0 Bft)
27.06.2020 01:41 24,1 °C 15,4 °C 57 % 90 % 1010,8 hPa 0,0 l/m² 1,2 km/h (1 Bft) NO 34 ° 0 min 0 W/m² 13,8 °C 15,4 °C 1,6 km/h (1 Bft)
27.06.2020 01:42 24,1 °C 15,4 °C 57 % 90 % 1010,7 hPa 0,0 l/m² 1,2 km/h (1 Bft) NO 34 ° 0 min 0 W/m² 13,8 °C 15,4 °C 3,2 km/h (1 Bft)
27.06.2020 01:43 24,1 °C 15,4 °C 57 % 90 % 1010,8 hPa 0,0 l/m² 1,7 km/h (1 Bft) NO 34 ° 0 min 0 W/m² 13,8 °C 15,4 °C 3,2 km/h (1 Bft)
27.06.2020 01:44 24,1 °C 15,5 °C 57 % 90 % 1010,8 hPa 0,0 l/m² 1,5 km/h (1 Bft) NO 34 ° 0 min 0 W/m² 13,9 °C 15,5 °C 1,6 km/h (1 Bft)
27.06.2020 01:46 24,1 °C 15,6 °C 57 % 90 % 1010,8 hPa 0,0 l/m² 0,2 km/h (0 Bft) NO 34 ° 0 min 0 W/m² 14,0 °C 15,6 °C 1,6 km/h (1 Bft)
27.06.2020 01:48 24,1 °C 15,5 °C 57 % 90 % 1010,7 hPa 0,0 l/m² 0,7 km/h (0 Bft) NO 34 ° 0 min 0 W/m² 13,9 °C 15,5 °C 1,6 km/h (1 Bft)
27.06.2020 01:50 24,1 °C 15,5 °C 57 % 90 % 1010,8 hPa 0,0 l/m² 1,8 km/h (1 Bft) NO 34 ° 0 min 0 W/m² 13,9 °C 15,5 °C 3,2 km/h (1 Bft)
27.06.2020 01:52 24,1 °C 15,6 °C 57 % 90 % 1010,7 hPa 0,0 l/m² 2,1 km/h (1 Bft) NO 34 ° 0 min 0 W/m² 14,0 °C 15,6 °C 3,2 km/h (1 Bft)
27.06.2020 01:53 24,1 °C 15,6 °C 57 % 90 % 1010,7 hPa 0,0 l/m² 2,3 km/h (1 Bft) NO 34 ° 0 min 0 W/m² 14,0 °C 15,6 °C 3,2 km/h (1 Bft)
27.06.2020 01:55 24,1 °C 15,6 °C 57 % 90 % 1010,6 hPa 0,0 l/m² 2,0 km/h (1 Bft) NO 34 ° 0 min 0 W/m² 14,0 °C 15,6 °C 3,2 km/h (1 Bft)
27.06.2020 01:57 24,1 °C 15,5 °C 57 % 89 % 1010,7 hPa 0,0 l/m² 0,8 km/h (0 Bft) NO 34 ° 0 min 0 W/m² 13,7 °C 15,5 °C 1,6 km/h (1 Bft)
27.06.2020 01:59 24,1 °C 15,2 °C 57 % 88 % 1010,7 hPa 0,0 l/m² 2,3 km/h (1 Bft) NO 34 ° 0 min 0 W/m² 13,2 °C 15,2 °C 4,8 km/h (1 Bft)
27.06.2020 02:01 24,1 °C 14,9 °C 57 % 87 % 1010,7 hPa 0,0 l/m² 6,4 km/h (2 Bft) NO 34 ° 0 min 0 W/m² 12,8 °C 14,9 °C 8,0 km/h (2 Bft)
27.06.2020 02:02 24,1 °C 14,8 °C 57 % 88 % 1010,7 hPa 0,0 l/m² 6,1 km/h (2 Bft) NO 34 ° 0 min 0 W/m² 12,8 °C 14,8 °C 6,4 km/h (2 Bft)
27.06.2020 02:03 24,1 °C 14,7 °C 57 % 88 % 1010,7 hPa 0,0 l/m² 4,1 km/h (1 Bft) NO 34 ° 0 min 0 W/m² 12,7 °C 14,7 °C 4,8 km/h (1 Bft)
27.06.2020 02:04 24,1 °C 14,7 °C 57 % 88 % 1010,6 hPa 0,0 l/m² 3,5 km/h (1 Bft) NO 34 ° 0 min 0 W/m² 12,7 °C 14,7 °C 4,8 km/h (1 Bft)
27.06.2020 02:06 24,1 °C 14,6 °C 57 % 89 % 1010,7 hPa 0,0 l/m² 2,2 km/h (1 Bft) NO 34 ° 0 min 0 W/m² 12,8 °C 14,6 °C 3,2 km/h (1 Bft)
27.06.2020 02:08 24,1 °C 14,7 °C 57 % 90 % 1010,7 hPa 0,0 l/m² 0,7 km/h (0 Bft) NO 34 ° 0 min 0 W/m² 13,1 °C 14,7 °C 1,6 km/h (1 Bft)
27.06.2020 02:10 24,1 °C 14,8 °C 57 % 90 % 1010,6 hPa 0,0 l/m² 0,9 km/h (0 Bft) NO 34 ° 0 min 0 W/m² 13,2 °C 14,8 °C 1,6 km/h (1 Bft)
27.06.2020 02:12 24,1 °C 14,9 °C 57 % 90 % 1010,6 hPa 0,0 l/m² 0,3 km/h (0 Bft) NO 34 ° 0 min 0 W/m² 13,3 °C 14,9 °C 3,2 km/h (1 Bft)
27.06.2020 02:13 24,1 °C 15,0 °C 57 % 90 % 1010,6 hPa 0,0 l/m² 1,6 km/h (1 Bft) NO 34 ° 0 min 0 W/m² 13,4 °C 15,0 °C 1,6 km/h (1 Bft)
27.06.2020 02:14 24,1 °C 15,1 °C 57 % 90 % 1010,7 hPa 0,0 l/m² 0,8 km/h (0 Bft) NO 34 ° 0 min 0 W/m² 13,5 °C 15,1 °C 1,6 km/h (1 Bft)
27.06.2020 02:16 24,1 °C 15,1 °C 57 % 90 % 1010,6 hPa 0,0 l/m² 1,8 km/h (1 Bft) NO 34 ° 0 min 0 W/m² 13,5 °C 15,1 °C 3,2 km/h (1 Bft)
27.06.2020 02:18 24,1 °C 15,2 °C 57 % 90 % 1010,6 hPa 0,0 l/m² 2,3 km/h (1 Bft) NO 34 ° 0 min 0 W/m² 13,6 °C 15,2 °C 3,2 km/h (1 Bft)
27.06.2020 02:20 24,1 °C 15,3 °C 57 % 90 % 1010,6 hPa 0,0 l/m² 2,3 km/h (1 Bft) NO 34 ° 0 min 0 W/m² 13,7 °C 15,3 °C 3,2 km/h (1 Bft)
27.06.2020 02:22 24,1 °C 15,3 °C 57 % 90 % 1010,5 hPa 0,0 l/m² 1,0 km/h (0 Bft) NO 34 ° 0 min 0 W/m² 13,7 °C 15,3 °C 3,2 km/h (1 Bft)
27.06.2020 02:23 24,1 °C 15,3 °C 57 % 90 % 1010,6 hPa 0,0 l/m² 0,0 km/h (0 Bft) NO 34 ° 0 min 0 W/m² 13,7 °C 15,3 °C 0,0 km/h (0 Bft)
27.06.2020 02:25 24,1 °C 15,2 °C 57 % 89 % 1010,6 hPa 0,0 l/m² 0,0 km/h (0 Bft) NO 34 ° 0 min 0 W/m² 13,4 °C 15,2 °C 0,0 km/h (0 Bft)
27.06.2020 02:27 24,1 °C 14,7 °C 57 % 87 % 1010,5 hPa 0,0 l/m² 0,8 km/h (0 Bft) NO 34 ° 0 min 0 W/m² 12,6 °C 14,7 °C 3,2 km/h (1 Bft)
27.06.2020 02:29 24,1 °C 14,3 °C 57 % 86 % 1010,6 hPa 0,0 l/m² 2,7 km/h (1 Bft) NO 34 ° 0 min 0 W/m² 12,0 °C 14,3 °C 3,2 km/h (1 Bft)
27.06.2020 02:31 24,1 °C 14,0 °C 57 % 87 % 1010,6 hPa 0,0 l/m² 3,1 km/h (1 Bft) NO 34 ° 0 min 0 W/m² 11,9 °C 14,0 °C 4,8 km/h (1 Bft)
27.06.2020 02:32 24,1 °C 14,0 °C 57 % 88 % 1010,6 hPa 0,0 l/m² 1,7 km/h (1 Bft) NO 34 ° 0 min 0 W/m² 12,0 °C 14,0 °C 3,2 km/h (1 Bft)
27.06.2020 02:33 24,1 °C 14,1 °C 57 % 89 % 1010,5 hPa 0,0 l/m² 2,1 km/h (1 Bft) NO 34 ° 0 min 0 W/m² 12,3 °C 14,1 °C 3,2 km/h (1 Bft)
27.06.2020 02:35 24,0 °C 14,3 °C 57 % 90 % 1010,6 hPa 0,0 l/m² 1,8 km/h (1 Bft) NO 34 ° 0 min 0 W/m² 12,7 °C 14,3 °C 3,2 km/h (1 Bft)
27.06.2020 02:37 24,0 °C 14,5 °C 57 % 90 % 1010,6 hPa 0,0 l/m² 1,7 km/h (1 Bft) NO 34 ° 0 min 0 W/m² 12,9 °C 14,5 °C 3,2 km/h (1 Bft)
27.06.2020 02:39 24,1 °C 14,6 °C 57 % 90 % 1010,6 hPa 0,0 l/m² 1,8 km/h (1 Bft) NO 34 ° 0 min 0 W/m² 13,0 °C 14,6 °C 3,2 km/h (1 Bft)
27.06.2020 02:41 24,0 °C 14,7 °C 57 % 90 % 1010,6 hPa 0,0 l/m² 2,6 km/h (1 Bft) NO 34 ° 0 min 0 W/m² 13,1 °C 14,7 °C 4,8 km/h (1 Bft)
27.06.2020 02:42 24,0 °C 14,7 °C 57 % 90 % 1010,6 hPa 0,0 l/m² 2,9 km/h (1 Bft) NO 34 ° 0 min 0 W/m² 13,1 °C 14,7 °C 4,8 km/h (1 Bft)
27.06.2020 02:43 24,1 °C 14,7 °C 57 % 90 % 1010,6 hPa 0,0 l/m² 2,6 km/h (1 Bft) NO 34 ° 0 min 0 W/m² 13,1 °C 14,7 °C 4,8 km/h (1 Bft)
27.06.2020 02:44 24,1 °C 14,7 °C 57 % 90 % 1010,6 hPa 0,0 l/m² 1,8 km/h (1 Bft) NO 34 ° 0 min 0 W/m² 13,1 °C 14,7 °C 3,2 km/h (1 Bft)
27.06.2020 02:46 24,0 °C 14,6 °C 57 % 89 % 1010,7 hPa 0,0 l/m² 1,7 km/h (1 Bft) NO 34 ° 0 min 0 W/m² 12,8 °C 14,6 °C 3,2 km/h (1 Bft)
27.06.2020 02:48 24,1 °C 14,3 °C 57 % 89 % 1010,8 hPa 0,0 l/m² 1,6 km/h (1 Bft) NO 34 ° 0 min 0 W/m² 12,5 °C 14,3 °C 3,2 km/h (1 Bft)
27.06.2020 02:50 24,1 °C 14,2 °C 57 % 88 % 1010,8 hPa 0,0 l/m² 2,0 km/h (1 Bft) NO 34 ° 0 min 0 W/m² 12,2 °C 14,2 °C 3,2 km/h (1 Bft)
27.06.2020 02:52 24,1 °C 14,2 °C 57 % 89 % 1010,7 hPa 0,0 l/m² 0,8 km/h (0 Bft) NO 34 ° 0 min 0 W/m² 12,4 °C 14,2 °C 1,6 km/h (1 Bft)
27.06.2020 02:53 24,1 °C 14,2 °C 57 % 89 % 1010,7 hPa 0,0 l/m² 0,2 km/h (0 Bft) NO 34 ° 0 min 0 W/m² 12,4 °C 14,2 °C 1,6 km/h (1 Bft)
27.06.2020 02:55 24,0 °C 14,3 °C 57 % 90 % 1010,8 hPa 0,0 l/m² 0,0 km/h (0 Bft) NO 34 ° 0 min 0 W/m² 12,7 °C 14,3 °C 0,0 km/h (0 Bft)
27.06.2020 02:57 24,1 °C 14,3 °C 57 % 91 % 1010,8 hPa 0,0 l/m² 0,0 km/h (0 Bft) NO 34 ° 0 min 0 W/m² 12,8 °C 14,3 °C 1,6 km/h (1 Bft)
27.06.2020 02:59 24,1 °C 14,4 °C 57 % 90 % 1010,8 hPa 0,0 l/m² 1,0 km/h (0 Bft) NO 34 ° 0 min 0 W/m² 12,8 °C 14,4 °C 1,6 km/h (1 Bft)
27.06.2020 03:00 24,1 °C 14,3 °C 57 % 90 % 1010,8 hPa 0,0 l/m² 1,6 km/h (1 Bft) NO 45 ° 0 min 0 W/m² 12,7 °C 14,3 °C 3,2 km/h (1 Bft)
27.06.2020 03:01 24,0 °C 14,3 °C 57 % 90 % 1010,8 hPa 0,0 l/m² 1,6 km/h (1 Bft) NO 45 ° 0 min 0 W/m² 12,7 °C 14,3 °C 3,2 km/h (1 Bft)
27.06.2020 03:08 24,0 °C 14,4 °C 57 % 91 % 1010,8 hPa 0,0 l/m² 0,0 km/h (0 Bft) NO 34 ° 0 min 0 W/m² 12,9 °C 14,4 °C 0,0 km/h (0 Bft)
27.06.2020 03:09 24,1 °C 14,5 °C 57 % 91 % 1010,7 hPa 0,0 l/m² 0,0 km/h (0 Bft) NO 34 ° 0 min 0 W/m² 13,0 °C 14,5 °C 0,0 km/h (0 Bft)
27.06.2020 03:10 24,1 °C 14,6 °C 57 % 91 % 1010,7 hPa 0,0 l/m² 1,2 km/h (1 Bft) NO 34 ° 0 min 0 W/m² 13,1 °C 14,6 °C 1,6 km/h (1 Bft)
27.06.2020 03:11 24,1 °C 14,6 °C 57 % 91 % 1010,8 hPa 0,0 l/m² 1,7 km/h (1 Bft) NO 34 ° 0 min 0 W/m² 13,1 °C 14,6 °C 3,2 km/h (1 Bft)
27.06.2020 03:12 24,1 °C 14,6 °C 57 % 91 % 1010,8 hPa 0,0 l/m² 1,6 km/h (1 Bft) NO 34 ° 0 min 0 W/m² 13,1 °C 14,6 °C 1,6 km/h (1 Bft)
27.06.2020 03:14 24,1 °C 14,7 °C 57 % 91 % 1010,8 hPa 0,0 l/m² 0,8 km/h (0 Bft) NO 34 ° 0 min 0 W/m² 13,2 °C 14,7 °C 1,6 km/h (1 Bft)
27.06.2020 03:16 24,0 °C 14,7 °C 57 % 91 % 1010,8 hPa 0,0 l/m² 0,0 km/h (0 Bft) NO 34 ° 0 min 0 W/m² 13,2 °C 14,7 °C 0,0 km/h (0 Bft)
27.06.2020 03:18 24,0 °C 14,4 °C 57 % 90 % 1010,7 hPa 0,0 l/m² 0,0 km/h (0 Bft) NO 34 ° 0 min 0 W/m² 12,8 °C 14,4 °C 0,0 km/h (0 Bft)
27.06.2020 03:20 24,0 °C 14,4 °C 57 % 91 % 1010,7 hPa 0,0 l/m² 1,9 km/h (1 Bft) NO 34 ° 0 min 0 W/m² 12,9 °C 14,4 °C 3,2 km/h (1 Bft)
27.06.2020 03:21 24,0 °C 14,4 °C 57 % 91 % 1010,7 hPa 0,0 l/m² 2,5 km/h (1 Bft) NO 34 ° 0 min 0 W/m² 12,9 °C 14,4 °C 3,2 km/h (1 Bft)
27.06.2020 03:22 24,0 °C 14,4 °C 57 % 91 % 1010,7 hPa 0,0 l/m² 1,3 km/h (1 Bft) NO 34 ° 0 min 0 W/m² 12,9 °C 14,4 °C 3,2 km/h (1 Bft)
27.06.2020 03:23 24,1 °C 14,5 °C 57 % 91 % 1010,7 hPa 0,0 l/m² 0,9 km/h (0 Bft) NO 34 ° 0 min 0 W/m² 13,0 °C 14,5 °C 1,6 km/h (1 Bft)
27.06.2020 03:25 24,0 °C 14,6 °C 57 % 91 % 1010,7 hPa 0,0 l/m² 0,1 km/h (0 Bft) NO 34 ° 0 min 0 W/m² 13,1 °C 14,6 °C 1,6 km/h (1 Bft)
27.06.2020 03:27 24,0 °C 14,4 °C 57 % 91 % 1010,7 hPa 0,0 l/m² 0,0 km/h (0 Bft) NO 34 ° 0 min 0 W/m² 12,9 °C 14,4 °C 0,0 km/h (0 Bft)
27.06.2020 03:28 24,0 °C 14,3 °C 57 % 90 % 1010,7 hPa 0,0 l/m² 0,0 km/h (0 Bft) NO 34 ° 0 min 0 W/m² 12,7 °C 14,3 °C 0,0 km/h (0 Bft)
27.06.2020 03:30 24,0 °C 14,2 °C 57 % 90 % 1010,6 hPa 0,0 l/m² 0,0 km/h (0 Bft) NO 34 ° 0 min 0 W/m² 12,6 °C 14,2 °C 0,0 km/h (0 Bft)
27.06.2020 03:31 24,0 °C 14,2 °C 57 % 91 % 1010,7 hPa 0,0 l/m² 0,0 km/h (0 Bft) NO 34 ° 0 min 0 W/m² 12,8 °C 14,2 °C 0,0 km/h (0 Bft)
27.06.2020 03:32 24,0 °C 14,2 °C 57 % 91 % 1010,7 hPa 0,0 l/m² 0,0 km/h (0 Bft) NO 34 ° 0 min 0 W/m² 12,8 °C 14,2 °C 0,0 km/h (0 Bft)
27.06.2020 03:33 24,0 °C 14,2 °C 57 % 90 % 1010,7 hPa 0,0 l/m² 0,0 km/h (0 Bft) NO 34 ° 0 min 0 W/m² 12,6 °C 14,2 °C 0,0 km/h (0 Bft)
27.06.2020 03:35 24,0 °C 14,3 °C 57 % 91 % 1010,7 hPa 0,0 l/m² 0,0 km/h (0 Bft) NO 34 ° 0 min 0 W/m² 12,8 °C 14,3 °C 0,0 km/h (0 Bft)
27.06.2020 03:37 23,9 °C 14,3 °C 57 % 91 % 1010,7 hPa 0,0 l/m² 0,0 km/h (0 Bft) NO 34 ° 0 min 0 W/m² 12,8 °C 14,3 °C 0,0 km/h (0 Bft)
27.06.2020 03:39 24,0 °C 14,3 °C 57 % 91 % 1010,7 hPa 0,0 l/m² 0,1 km/h (0 Bft) NO 34 ° 0 min 0 W/m² 12,8 °C 14,3 °C 1,6 km/h (1 Bft)
27.06.2020 03:40 24,0 °C 14,3 °C 57 % 91 % 1010,7 hPa 0,0 l/m² 0,7 km/h (0 Bft) NO 34 ° 0 min 0 W/m² 12,8 °C 14,3 °C 1,6 km/h (1 Bft)
27.06.2020 03:41 24,0 °C 14,3 °C 57 % 91 % 1010,7 hPa 0,0 l/m² 0,6 km/h (0 Bft) NO 34 ° 0 min 0 W/m² 12,8 °C 14,3 °C 1,6 km/h (1 Bft)
27.06.2020 03:43 23,9 °C 14,3 °C 57 % 91 % 1010,6 hPa 0,0 l/m² 1,4 km/h (1 Bft) NO 34 ° 0 min 0 W/m² 12,8 °C 14,3 °C 3,2 km/h (1 Bft)
27.06.2020 03:45 24,0 °C 14,3 °C 57 % 91 % 1010,6 hPa 0,0 l/m² 2,2 km/h (1 Bft) NO 34 ° 0 min 0 W/m² 12,8 °C 14,3 °C 3,2 km/h (1 Bft)
27.06.2020 03:47 24,0 °C 14,3 °C 57 % 91 % 1010,7 hPa 0,0 l/m² 0,8 km/h (0 Bft) NO 34 ° 0 min 0 W/m² 12,8 °C 14,3 °C 3,2 km/h (1 Bft)
27.06.2020 03:48 24,0 °C 14,3 °C 57 % 91 % 1010,7 hPa 0,0 l/m² 0,0 km/h (0 Bft) NO 34 ° 0 min 0 W/m² 12,8 °C 14,3 °C 0,0 km/h (0 Bft)
27.06.2020 03:50 24,0 °C 14,1 °C 57 % 90 % 1010,7 hPa 0,0 l/m² 1,3 km/h (1 Bft) NO 34 ° 0 min 0 W/m² 12,5 °C 14,1 °C 3,2 km/h (1 Bft)
27.06.2020 03:51 24,0 °C 13,9 °C 57 % 88 % 1010,7 hPa 0,0 l/m² 2,7 km/h (1 Bft) NO 34 ° 0 min 0 W/m² 11,9 °C 13,9 °C 3,2 km/h (1 Bft)
27.06.2020 03:52 24,0 °C 13,7 °C 57 % 88 % 1010,7 hPa 0,0 l/m² 3,5 km/h (1 Bft) N-NW 348 ° 0 min 0 W/m² 11,7 °C 13,7 °C 4,8 km/h (1 Bft)
27.06.2020 03:53 24,0 °C 13,6 °C 57 % 89 % 1010,6 hPa 0,0 l/m² 4,4 km/h (1 Bft) W 271 ° 0 min 0 W/m² 11,8 °C 13,6 °C 4,8 km/h (1 Bft)
27.06.2020 03:55 24,0 °C 13,5 °C 57 % 90 % 1010,7 hPa 0,0 l/m² 3,4 km/h (1 Bft) W 271 ° 0 min 0 W/m² 11,9 °C 13,5 °C 4,8 km/h (1 Bft)
27.06.2020 03:57 24,0 °C 13,6 °C 57 % 90 % 1010,6 hPa 0,0 l/m² 2,6 km/h (1 Bft) W 271 ° 0 min 0 W/m² 12,0 °C 13,6 °C 3,2 km/h (1 Bft)
27.06.2020 03:59 24,0 °C 13,8 °C 57 % 91 % 1010,7 hPa 0,0 l/m² 2,0 km/h (1 Bft) W 271 ° 0 min 0 W/m² 12,4 °C 13,8 °C 3,2 km/h (1 Bft)
27.06.2020 04:00 23,9 °C 13,9 °C 57 % 91 % 1010,6 hPa 0,0 l/m² 2,1 km/h (1 Bft) W 271 ° 0 min 0 W/m² 12,5 °C 13,9 °C 3,2 km/h (1 Bft)
27.06.2020 04:01 24,0 °C 13,9 °C 57 % 91 % 1010,6 hPa 0,0 l/m² 2,0 km/h (1 Bft) W 271 ° 0 min 0 W/m² 12,5 °C 13,9 °C 3,2 km/h (1 Bft)
27.06.2020 04:03 24,0 °C 13,9 °C 57 % 91 % 1010,8 hPa 0,0 l/m² 6,5 km/h (2 Bft) SW 234 ° 0 min 0 W/m² 12,5 °C 13,9 °C 9,7 km/h (2 Bft)
27.06.2020 04:05 24,0 °C 13,8 °C 57 % 90 % 1010,7 hPa 0,0 l/m² 6,0 km/h (2 Bft) W-SW 244 ° 0 min 0 W/m² 12,2 °C 13,8 °C 8,0 km/h (2 Bft)
27.06.2020 04:07 24,0 °C 13,8 °C 57 % 91 % 1010,8 hPa 0,0 l/m² 1,9 km/h (1 Bft) W-SW 244 ° 0 min 0 W/m² 12,4 °C 13,8 °C 3,2 km/h (1 Bft)
27.06.2020 04:09 24,0 °C 14,0 °C 57 % 92 % 1010,6 hPa 0,0 l/m² 2,2 km/h (1 Bft) W-SW 244 ° 0 min 0 W/m² 12,7 °C 14,0 °C 3,2 km/h (1 Bft)
27.06.2020 04:10 24,0 °C 14,1 °C 57 % 92 % 1010,6 hPa 0,0 l/m² 2,5 km/h (1 Bft) W-SW 244 ° 0 min 0 W/m² 12,8 °C 14,1 °C 3,2 km/h (1 Bft)
27.06.2020 04:11 24,0 °C 14,1 °C 57 % 92 % 1010,6 hPa 0,0 l/m² 3,0 km/h (1 Bft) W-SW 257 ° 0 min 0 W/m² 12,8 °C 14,1 °C 4,8 km/h (1 Bft)
27.06.2020 04:13 23,9 °C 14,2 °C 57 % 92 % 1010,6 hPa 0,0 l/m² 3,4 km/h (1 Bft) W-SW 257 ° 0 min 0 W/m² 12,9 °C 14,2 °C 4,8 km/h (1 Bft)
27.06.2020 04:15 24,0 °C 14,2 °C 57 % 92 % 1010,6 hPa 0,0 l/m² 1,5 km/h (1 Bft) W-SW 257 ° 0 min 0 W/m² 12,9 °C 14,2 °C 3,2 km/h (1 Bft)
27.06.2020 04:17 23,9 °C 14,2 °C 57 % 91 % 1010,6 hPa 0,0 l/m² 1,7 km/h (1 Bft) W-SW 257 ° 0 min 0 W/m² 12,8 °C 14,2 °C 3,2 km/h (1 Bft)
27.06.2020 04:19 24,0 °C 13,8 °C 57 % 90 % 1010,6 hPa 0,0 l/m² 1,1 km/h (1 Bft) W-SW 257 ° 0 min 0 W/m² 12,2 °C 13,8 °C 1,6 km/h (1 Bft)
27.06.2020 04:20 23,9 °C 13,6 °C 57 % 89 % 1010,6 hPa 0,0 l/m² 1,4 km/h (1 Bft) W-SW 257 ° 0 min 0 W/m² 11,8 °C 13,6 °C 1,6 km/h (1 Bft)
27.06.2020 04:21 23,9 °C 13,6 °C 57 % 90 % 1010,6 hPa 0,0 l/m² 1,0 km/h (0 Bft) W-SW 257 ° 0 min 0 W/m² 12,0 °C 13,6 °C 1,6 km/h (1 Bft)
27.06.2020 04:22 24,0 °C 13,6 °C 57 % 90 % 1010,5 hPa 0,0 l/m² 0,7 km/h (0 Bft) W-SW 257 ° 0 min 0 W/m² 12,0 °C 13,6 °C 1,6 km/h (1 Bft)
27.06.2020 04:23 23,9 °C 13,5 °C 57 % 91 % 1010,6 hPa 0,0 l/m² 1,8 km/h (1 Bft) W-SW 257 ° 0 min 0 W/m² 12,1 °C 13,5 °C 3,2 km/h (1 Bft)
27.06.2020 04:25 23,9 °C 13,6 °C 57 % 91 % 1010,5 hPa 0,0 l/m² 2,4 km/h (1 Bft) W-SW 257 ° 0 min 0 W/m² 12,2 °C 13,6 °C 3,2 km/h (1 Bft)
27.06.2020 04:27 23,9 °C 13,7 °C 57 % 92 % 1010,5 hPa 0,0 l/m² 2,1 km/h (1 Bft) W-SW 257 ° 0 min 0 W/m² 12,4 °C 13,7 °C 3,2 km/h (1 Bft)
27.06.2020 04:29 23,9 °C 13,9 °C 57 % 92 % 1010,5 hPa 0,0 l/m² 1,6 km/h (1 Bft) W-SW 257 ° 0 min 0 W/m² 12,6 °C 13,9 °C 3,2 km/h (1 Bft)
27.06.2020 04:30 23,9 °C 13,9 °C 57 % 92 % 1010,4 hPa 0,0 l/m² 2,3 km/h (1 Bft) W-SW 257 ° 0 min 0 W/m² 12,6 °C 13,9 °C 3,2 km/h (1 Bft)
27.06.2020 04:31 23,9 °C 14,0 °C 57 % 92 % 1010,4 hPa 0,0 l/m² 2,1 km/h (1 Bft) W-SW 257 ° 0 min 0 W/m² 12,7 °C 14,0 °C 3,2 km/h (1 Bft)
27.06.2020 04:32 23,9 °C 14,0 °C 57 % 92 % 1010,4 hPa 0,0 l/m² 1,5 km/h (1 Bft) W-SW 257 ° 0 min 0 W/m² 12,7 °C 14,0 °C 3,2 km/h (1 Bft)
27.06.2020 04:33 23,9 °C 14,1 °C 57 % 92 % 1010,5 hPa 0,0 l/m² 1,2 km/h (1 Bft) W-SW 257 ° 0 min 0 W/m² 12,8 °C 14,1 °C 1,6 km/h (1 Bft)
27.06.2020 04:35 23,9 °C 14,0 °C 57 % 91 % 1010,4 hPa 0,0 l/m² 0,1 km/h (0 Bft) W-SW 257 ° 0 min 0 W/m² 12,6 °C 14,0 °C 1,6 km/h (1 Bft)
27.06.2020 04:37 23,9 °C 13,6 °C 57 % 89 % 1010,5 hPa 0,0 l/m² 0,9 km/h (0 Bft) W-SW 257 ° 0 min 0 W/m² 11,8 °C 13,6 °C 3,2 km/h (1 Bft)
27.06.2020 04:39 23,9 °C 13,2 °C 57 % 89 % 1010,5 hPa 0,0 l/m² 2,2 km/h (1 Bft) W-SW 257 ° 0 min 0 W/m² 11,4 °C 13,2 °C 3,2 km/h (1 Bft)
27.06.2020 04:40 23,9 °C 13,1 °C 57 % 90 % 1010,5 hPa 0,0 l/m² 0,1 km/h (0 Bft) W-SW 257 ° 0 min 0 W/m² 11,5 °C 13,1 °C 1,6 km/h (1 Bft)
27.06.2020 04:41 23,9 °C 13,1 °C 57 % 90 % 1010,5 hPa 0,0 l/m² 0,0 km/h (0 Bft) W-SW 257 ° 0 min 0 W/m² 11,5 °C 13,1 °C 0,0 km/h (0 Bft)
27.06.2020 04:42 23,9 °C 13,2 °C 57 % 90 % 1010,5 hPa 0,0 l/m² 0,0 km/h (0 Bft) W-SW 257 ° 0 min 0 W/m² 11,6 °C 13,2 °C 0,0 km/h (0 Bft)
27.06.2020 04:43 23,9 °C 13,2 °C 57 % 90 % 1010,5 hPa 0,0 l/m² 0,1 km/h (0 Bft) W-SW 257 ° 0 min 0 W/m² 11,6 °C 13,2 °C 1,6 km/h (1 Bft)
27.06.2020 04:45 23,9 °C 13,2 °C 57 % 91 % 1010,6 hPa 0,0 l/m² 1,0 km/h (0 Bft) W-SW 257 ° 0 min 0 W/m² 11,8 °C 13,2 °C 1,6 km/h (1 Bft)
27.06.2020 04:47 23,9 °C 13,3 °C 57 % 91 % 1010,5 hPa 0,0 l/m² 1,1 km/h (1 Bft) W-SW 257 ° 0 min 0 W/m² 11,9 °C 13,3 °C 1,6 km/h (1 Bft)
27.06.2020 04:49 23,9 °C 13,4 °C 57 % 91 % 1010,5 hPa 0,0 l/m² 1,0 km/h (0 Bft) W-SW 257 ° 0 min 0 W/m² 12,0 °C 13,4 °C 1,6 km/h (1 Bft)
27.06.2020 04:50 23,9 °C 13,4 °C 57 % 92 % 1010,5 hPa 0,0 l/m² 0,9 km/h (0 Bft) W-SW 257 ° 0 min 0 W/m² 12,1 °C 13,4 °C 1,6 km/h (1 Bft)
27.06.2020 04:51 23,9 °C 13,6 °C 57 % 92 % 1010,5 hPa 0,0 l/m² 0,6 km/h (0 Bft) W-SW 257 ° 0 min 0 W/m² 12,3 °C 13,6 °C 1,6 km/h (1 Bft)
27.06.2020 04:53 23,9 °C 13,6 °C 57 % 92 % 1010,5 hPa 0,0 l/m² 0,2 km/h (0 Bft) W-SW 257 ° 0 min 0 W/m² 12,3 °C 13,6 °C 1,6 km/h (1 Bft)
27.06.2020 04:55 23,9 °C 13,6 °C 57 % 92 % 1010,6 hPa 0,0 l/m² 1,2 km/h (1 Bft) W-SW 257 ° 0 min 0 W/m² 12,3 °C 13,6 °C 1,6 km/h (1 Bft)
27.06.2020 04:57 23,9 °C 13,5 °C 57 % 91 % 1010,6 hPa 0,0 l/m² 1,6 km/h (1 Bft) W-SW 257 ° 0 min 0 W/m² 12,1 °C 13,5 °C 3,2 km/h (1 Bft)
27.06.2020 04:59 23,9 °C 13,4 °C 57 % 91 % 1010,6 hPa 0,0 l/m² 1,0 km/h (0 Bft) W-SW 257 ° 0 min 0 W/m² 12,0 °C 13,4 °C 1,6 km/h (1 Bft)
27.06.2020 05:00 23,9 °C 13,4 °C 56 % 92 % 1010,6 hPa 0,0 l/m² 1,0 km/h (0 Bft) W-SW 257 ° 0 min 5 W/m² 12,1 °C 13,4 °C 1,6 km/h (1 Bft)
27.06.2020 05:01 23,9 °C 13,4 °C 56 % 92 % 1010,6 hPa 0,0 l/m² 0,8 km/h (0 Bft) W-SW 257 ° 0 min 5 W/m² 12,1 °C 13,4 °C 1,6 km/h (1 Bft)
27.06.2020 05:02 23,9 °C 13,4 °C 56 % 92 % 1010,5 hPa 0,0 l/m² 0,8 km/h (0 Bft) W-SW 257 ° 0 min 5 W/m² 12,1 °C 13,4 °C 1,6 km/h (1 Bft)
27.06.2020 05:03 23,9 °C 13,5 °C 56 % 92 % 1010,5 hPa 0,0 l/m² 0,9 km/h (0 Bft) W-SW 257 ° 0 min 5 W/m² 12,2 °C 13,5 °C 1,6 km/h (1 Bft)
27.06.2020 05:05 23,9 °C 13,6 °C 57 % 92 % 1010,6 hPa 0,0 l/m² 1,0 km/h (0 Bft) W-SW 257 ° 0 min 5 W/m² 12,3 °C 13,6 °C 3,2 km/h (1 Bft)
27.06.2020 05:07 23,9 °C 13,7 °C 57 % 92 % 1010,5 hPa 0,0 l/m² 1,9 km/h (1 Bft) W-SW 257 ° 0 min 7 W/m² 12,4 °C 13,7 °C 3,2 km/h (1 Bft)
27.06.2020 05:09 23,9 °C 13,7 °C 57 % 92 % 1010,5 hPa 0,0 l/m² 0,5 km/h (0 Bft) W-SW 257 ° 0 min 7 W/m² 12,4 °C 13,7 °C 1,6 km/h (1 Bft)
27.06.2020 05:10 23,9 °C 13,8 °C 56 % 92 % 1010,5 hPa 0,0 l/m² 0,5 km/h (0 Bft) W-SW 257 ° 0 min 7 W/m² 12,5 °C 13,8 °C 1,6 km/h (1 Bft)
27.06.2020 05:11 23,9 °C 13,8 °C 56 % 92 % 1010,5 hPa 0,0 l/m² 0,0 km/h (0 Bft) W-SW 257 ° 0 min 7 W/m² 12,5 °C 13,8 °C 0,0 km/h (0 Bft)
27.06.2020 05:12 23,9 °C 13,8 °C 56 % 92 % 1010,4 hPa 0,0 l/m² 0,0 km/h (0 Bft) W-SW 257 ° 0 min 9 W/m² 12,5 °C 13,8 °C 0,0 km/h (0 Bft)
27.06.2020 05:13 23,9 °C 13,8 °C 56 % 92 % 1010,5 hPa 0,0 l/m² 0,0 km/h (0 Bft) W-SW 257 ° 0 min 9 W/m² 12,5 °C 13,8 °C 0,0 km/h (0 Bft)
27.06.2020 05:15 23,9 °C 13,8 °C 56 % 92 % 1010,5 hPa 0,0 l/m² 0,3 km/h (0 Bft) W-SW 257 ° 0 min 9 W/m² 12,5 °C 13,8 °C 1,6 km/h (1 Bft)
27.06.2020 05:17 23,9 °C 13,6 °C 56 % 91 % 1010,5 hPa 0,0 l/m² 1,9 km/h (1 Bft) W-SW 257 ° 0 min 11 W/m² 12,2 °C 13,6 °C 3,2 km/h (1 Bft)
27.06.2020 05:19 23,9 °C 13,3 °C 56 % 91 % 1010,6 hPa 0,0 l/m² 2,2 km/h (1 Bft) W-SW 257 ° 0 min 11 W/m² 11,9 °C 13,3 °C 3,2 km/h (1 Bft)
27.06.2020 05:20 23,9 °C 13,2 °C 56 % 91 % 1010,6 hPa 0,0 l/m² 2,8 km/h (1 Bft) W-SW 257 ° 0 min 11 W/m² 11,8 °C 13,2 °C 3,2 km/h (1 Bft)
27.06.2020 05:21 23,9 °C 13,1 °C 56 % 91 % 1010,6 hPa 0,0 l/m² 2,8 km/h (1 Bft) W-SW 257 ° 0 min 12 W/m² 11,7 °C 13,1 °C 3,2 km/h (1 Bft)
27.06.2020 05:22 23,9 °C 13,0 °C 56 % 91 % 1010,6 hPa 0,0 l/m² 2,2 km/h (1 Bft) W-SW 257 ° 0 min 12 W/m² 11,6 °C 13,0 °C 3,2 km/h (1 Bft)
27.06.2020 05:23 23,9 °C 13,0 °C 56 % 92 % 1010,6 hPa 0,0 l/m² 1,7 km/h (1 Bft) W-SW 257 ° 0 min 12 W/m² 11,7 °C 13,0 °C 3,2 km/h (1 Bft)
27.06.2020 05:25 23,9 °C 13,0 °C 56 % 92 % 1010,6 hPa 0,0 l/m² 1,5 km/h (1 Bft) W-SW 257 ° 0 min 14 W/m² 11,7 °C 13,0 °C 3,2 km/h (1 Bft)
27.06.2020 05:27 23,9 °C 13,1 °C 56 % 92 % 1010,6 hPa 0,0 l/m² 0,9 km/h (0 Bft) W-SW 257 ° 0 min 14 W/m² 11,8 °C 13,1 °C 1,6 km/h (1 Bft)
27.06.2020 05:29 23,9 °C 13,2 °C 56 % 92 % 1010,6 hPa 0,0 l/m² 0,3 km/h (0 Bft) W-SW 257 ° 0 min 16 W/m² 11,9 °C 13,2 °C 1,6 km/h (1 Bft)
27.06.2020 05:30 23,9 °C 13,2 °C 56 % 92 % 1010,6 hPa 0,0 l/m² 0,0 km/h (0 Bft) W-SW 257 ° 0 min 16 W/m² 11,9 °C 13,2 °C 0,0 km/h (0 Bft)
27.06.2020 05:31 23,9 °C 13,3 °C 56 % 92 % 1010,6 hPa 0,0 l/m² 0,0 km/h (0 Bft) W-SW 257 ° 0 min 16 W/m² 12,0 °C 13,3 °C 0,0 km/h (0 Bft)
27.06.2020 05:32 23,8 °C 13,3 °C 56 % 93 % 1010,6 hPa 0,0 l/m² 0,5 km/h (0 Bft) W-SW 257 ° 0 min 18 W/m² 12,2 °C 13,3 °C 1,6 km/h (1 Bft)
27.06.2020 05:33 23,9 °C 13,4 °C 56 % 93 % 1010,6 hPa 0,0 l/m² 1,4 km/h (1 Bft) W-SW 257 ° 0 min 18 W/m² 12,3 °C 13,4 °C 1,6 km/h (1 Bft)
27.06.2020 05:35 23,9 °C 13,5 °C 56 % 93 % 1010,5 hPa 0,0 l/m² 1,3 km/h (1 Bft) W-SW 257 ° 0 min 18 W/m² 12,4 °C 13,5 °C 1,6 km/h (1 Bft)
27.06.2020 05:37 23,8 °C 13,6 °C 56 % 93 % 1010,6 hPa 0,0 l/m² 1,7 km/h (1 Bft) W-SW 257 ° 0 min 19 W/m² 12,5 °C 13,6 °C 3,2 km/h (1 Bft)
27.06.2020 05:39 23,9 °C 13,6 °C 56 % 93 % 1010,6 hPa 0,0 l/m² 1,3 km/h (1 Bft) W-SW 257 ° 0 min 19 W/m² 12,5 °C 13,6 °C 3,2 km/h (1 Bft)
27.06.2020 05:40 23,9 °C 13,5 °C 56 % 92 % 1010,7 hPa 0,0 l/m² 4,4 km/h (1 Bft) W-SW 257 ° 0 min 21 W/m² 12,2 °C 13,5 °C 4,8 km/h (1 Bft)
27.06.2020 05:41 23,9 °C 13,5 °C 56 % 92 % 1010,7 hPa 0,0 l/m² 5,7 km/h (2 Bft) W-SW 244 ° 0 min 21 W/m² 12,2 °C 13,5 °C 6,4 km/h (2 Bft)
27.06.2020 05:42 23,9 °C 13,4 °C 56 % 92 % 1010,7 hPa 0,0 l/m² 4,2 km/h (1 Bft) W-SW 252 ° 0 min 23 W/m² 12,1 °C 13,4 °C 4,8 km/h (1 Bft)
27.06.2020 05:43 23,8 °C 13,4 °C 56 % 92 % 1010,6 hPa 0,0 l/m² 2,5 km/h (1 Bft) W-SW 252 ° 0 min 23 W/m² 12,1 °C 13,4 °C 3,2 km/h (1 Bft)
27.06.2020 05:45 23,8 °C 13,4 °C 56 % 92 % 1010,6 hPa 0,0 l/m² 1,9 km/h (1 Bft) W-SW 252 ° 0 min 25 W/m² 12,1 °C 13,4 °C 3,2 km/h (1 Bft)
27.06.2020 05:47 23,8 °C 13,6 °C 56 % 93 % 1010,7 hPa 0,0 l/m² 1,0 km/h (0 Bft) W-SW 252 ° 0 min 26 W/m² 12,5 °C 13,6 °C 1,6 km/h (1 Bft)
27.06.2020 05:49 23,9 °C 13,7 °C 56 % 93 % 1010,6 hPa 0,0 l/m² 0,4 km/h (0 Bft) W-SW 252 ° 0 min 30 W/m² 12,6 °C 13,7 °C 1,6 km/h (1 Bft)
27.06.2020 05:50 23,8 °C 13,7 °C 56 % 93 % 1010,7 hPa 0,0 l/m² 1,5 km/h (1 Bft) W-SW 252 ° 0 min 32 W/m² 12,6 °C 13,7 °C 1,6 km/h (1 Bft)
27.06.2020 05:51 23,8 °C 13,7 °C 56 % 93 % 1010,7 hPa 0,0 l/m² 1,5 km/h (1 Bft) W-SW 252 ° 0 min 32 W/m² 12,6 °C 13,7 °C 1,6 km/h (1 Bft)
27.06.2020 05:52 23,8 °C 13,6 °C 56 % 92 % 1010,7 hPa 0,0 l/m² 0,7 km/h (0 Bft) W-SW 252 ° 0 min 33 W/m² 12,3 °C 13,6 °C 1,6 km/h (1 Bft)
27.06.2020 05:53 23,8 °C 13,6 °C 56 % 92 % 1010,7 hPa 0,0 l/m² 0,0 km/h (0 Bft) W-SW 252 ° 0 min 37 W/m² 12,3 °C 13,6 °C 0,0 km/h (0 Bft)
27.06.2020 05:55 23,8 °C 13,4 °C 56 % 92 % 1010,6 hPa 0,0 l/m² 0,0 km/h (0 Bft) W-SW 252 ° 0 min 39 W/m² 12,1 °C 13,4 °C 0,0 km/h (0 Bft)
27.06.2020 05:57 23,8 °C 13,4 °C 56 % 92 % 1010,7 hPa 0,0 l/m² 0,4 km/h (0 Bft) W-SW 252 ° 0 min 42 W/m² 12,1 °C 13,4 °C 3,2 km/h (1 Bft)
27.06.2020 05:59 23,8 °C 13,6 °C 56 % 93 % 1010,6 hPa 0,0 l/m² 2,6 km/h (1 Bft) W-SW 252 ° 0 min 46 W/m² 12,5 °C 13,6 °C 4,8 km/h (1 Bft)
27.06.2020 06:00 23,8 °C 13,7 °C 56 % 93 % 1010,6 hPa 0,0 l/m² 2,5 km/h (1 Bft) W-SW 252 ° 0 min 47 W/m² 12,6 °C 13,7 °C 3,2 km/h (1 Bft)
27.06.2020 06:01 23,8 °C 13,8 °C 56 % 93 % 1010,6 hPa 0,0 l/m² 2,4 km/h (1 Bft) W-SW 252 ° 0 min 49 W/m² 12,7 °C 13,8 °C 3,2 km/h (1 Bft)
27.06.2020 06:02 23,8 °C 13,8 °C 56 % 93 % 1010,6 hPa 0,0 l/m² 1,3 km/h (1 Bft) W-SW 252 ° 0 min 51 W/m² 12,7 °C 13,8 °C 1,6 km/h (1 Bft)
27.06.2020 06:03 23,8 °C 13,8 °C 56 % 93 % 1010,6 hPa 0,0 l/m² 1,7 km/h (1 Bft) W-SW 252 ° 1 min 53 W/m² 12,7 °C 13,8 °C 3,2 km/h (1 Bft)
27.06.2020 06:05 23,8 °C 14,0 °C 56 % 93 % 1010,6 hPa 0,0 l/m² 2,1 km/h (1 Bft) W-SW 252 ° 2 min 56 W/m² 12,9 °C 14,0 °C 3,2 km/h (1 Bft)
27.06.2020 06:07 23,8 °C 14,1 °C 56 % 93 % 1010,6 hPa 0,0 l/m² 1,7 km/h (1 Bft) W-SW 252 ° 2 min 60 W/m² 13,0 °C 14,1 °C 3,2 km/h (1 Bft)
27.06.2020 06:09 23,8 °C 14,2 °C 56 % 93 % 1010,5 hPa 0,0 l/m² 1,8 km/h (1 Bft) W-SW 252 ° 2 min 63 W/m² 13,1 °C 14,2 °C 3,2 km/h (1 Bft)
27.06.2020 06:10 23,8 °C 14,3 °C 56 % 93 % 1010,5 hPa 0,0 l/m² 2,6 km/h (1 Bft) W-SW 252 ° 1 min 67 W/m² 13,2 °C 14,3 °C 3,2 km/h (1 Bft)
27.06.2020 06:11 23,8 °C 14,3 °C 56 % 93 % 1010,5 hPa 0,0 l/m² 2,7 km/h (1 Bft) W-SW 252 ° 1 min 69 W/m² 13,2 °C 14,3 °C 3,2 km/h (1 Bft)
27.06.2020 06:12 23,8 °C 14,4 °C 56 % 93 % 1010,6 hPa 0,0 l/m² 1,0 km/h (0 Bft) W-SW 252 ° 1 min 70 W/m² 13,3 °C 14,4 °C 3,2 km/h (1 Bft)
27.06.2020 06:13 23,8 °C 14,5 °C 56 % 93 % 1010,6 hPa 0,0 l/m² 0,7 km/h (0 Bft) W-SW 252 ° 1 min 72 W/m² 13,4 °C 14,5 °C 1,6 km/h (1 Bft)
27.06.2020 06:15 23,8 °C 14,5 °C 56 % 92 % 1010,6 hPa 0,0 l/m² 0,8 km/h (0 Bft) W-SW 252 ° 2 min 74 W/m² 13,2 °C 14,5 °C 1,6 km/h (1 Bft)
27.06.2020 06:17 23,8 °C 14,6 °C 56 % 92 % 1010,6 hPa 0,0 l/m² 2,0 km/h (1 Bft) W-SW 252 ° 2 min 79 W/m² 13,3 °C 14,6 °C 3,2 km/h (1 Bft)
27.06.2020 06:19 23,8 °C 14,7 °C 56 % 93 % 1010,6 hPa 0,0 l/m² 2,2 km/h (1 Bft) W-SW 252 ° 2 min 83 W/m² 13,6 °C 14,7 °C 4,8 km/h (1 Bft)
27.06.2020 06:20 23,8 °C 14,8 °C 56 % 92 % 1010,6 hPa 0,0 l/m² 2,0 km/h (1 Bft) W-SW 252 ° 1 min 86 W/m² 13,5 °C 14,8 °C 3,2 km/h (1 Bft)
27.06.2020 06:21 23,8 °C 14,8 °C 56 % 92 % 1010,6 hPa 0,0 l/m² 0,4 km/h (0 Bft) W-SW 252 ° 1 min 88 W/m² 13,5 °C 14,8 °C 1,6 km/h (1 Bft)
27.06.2020 06:22 23,8 °C 14,8 °C 56 % 92 % 1010,6 hPa 0,0 l/m² 2,4 km/h (1 Bft) W-SW 252 ° 1 min 91 W/m² 13,5 °C 14,8 °C 3,2 km/h (1 Bft)
27.06.2020 06:23 23,8 °C 14,8 °C 56 % 92 % 1010,6 hPa 0,0 l/m² 2,1 km/h (1 Bft) W-SW 252 ° 1 min 93 W/m² 13,5 °C 14,8 °C 3,2 km/h (1 Bft)
27.06.2020 06:25 23,8 °C 14,9 °C 56 % 92 % 1010,6 hPa 0,0 l/m² 3,0 km/h (1 Bft) W-SW 252 ° 2 min 98 W/m² 13,6 °C 14,9 °C 4,8 km/h (1 Bft)
27.06.2020 06:27 23,8 °C 15,1 °C 56 % 92 % 1010,7 hPa 0,0 l/m² 3,4 km/h (1 Bft) W-SW 252 ° 2 min 102 W/m² 13,8 °C 15,1 °C 4,8 km/h (1 Bft)
27.06.2020 06:29 23,8 °C 15,2 °C 56 % 92 % 1010,7 hPa 0,0 l/m² 2,1 km/h (1 Bft) W-SW 252 ° 2 min 109 W/m² 13,9 °C 15,2 °C 3,2 km/h (1 Bft)
27.06.2020 06:30 23,8 °C 15,2 °C 56 % 92 % 1010,7 hPa 0,0 l/m² 1,2 km/h (1 Bft) W-SW 252 ° 1 min 109 W/m² 13,9 °C 15,2 °C 3,2 km/h (1 Bft)
27.06.2020 06:31 23,8 °C 15,3 °C 56 % 92 % 1010,7 hPa 0,0 l/m² 0,2 km/h (0 Bft) W-SW 252 ° 1 min 111 W/m² 14,0 °C 15,3 °C 1,6 km/h (1 Bft)
27.06.2020 06:32 23,8 °C 15,3 °C 56 % 92 % 1010,7 hPa 0,0 l/m² 0,0 km/h (0 Bft) W-SW 252 ° 1 min 111 W/m² 14,0 °C 15,3 °C 0,0 km/h (0 Bft)
27.06.2020 06:33 23,8 °C 15,4 °C 56 % 92 % 1010,7 hPa 0,0 l/m² 0,0 km/h (0 Bft) W-SW 252 ° 1 min 111 W/m² 14,1 °C 15,4 °C 0,0 km/h (0 Bft)
27.06.2020 06:35 23,8 °C 15,4 °C 56 % 92 % 1010,7 hPa 0,0 l/m² 1,0 km/h (0 Bft) W-SW 252 ° 2 min 113 W/m² 14,1 °C 15,4 °C 1,6 km/h (1 Bft)
27.06.2020 06:37 23,8 °C 15,4 °C 56 % 91 % 1010,7 hPa 0,0 l/m² 1,4 km/h (1 Bft) W-SW 252 ° 2 min 113 W/m² 13,9 °C 15,4 °C 3,2 km/h (1 Bft)
27.06.2020 06:39 23,8 °C 15,6 °C 56 % 91 % 1010,6 hPa 0,0 l/m² 0,2 km/h (0 Bft) W-SW 252 ° 2 min 113 W/m² 14,1 °C 15,6 °C 1,6 km/h (1 Bft)
27.06.2020 06:40 23,8 °C 15,6 °C 56 % 91 % 1010,6 hPa 0,0 l/m² 0,0 km/h (0 Bft) W-SW 252 ° 1 min 114 W/m² 14,1 °C 15,6 °C 0,0 km/h (0 Bft)
27.06.2020 06:41 23,8 °C 15,6 °C 56 % 91 % 1010,6 hPa 0,0 l/m² 0,0 km/h (0 Bft) W-SW 252 ° 1 min 116 W/m² 14,1 °C 15,6 °C 0,0 km/h (0 Bft)
27.06.2020 06:42 23,8 °C 15,7 °C 56 % 91 % 1010,5 hPa 0,0 l/m² 0,5 km/h (0 Bft) W-SW 252 ° 1 min 118 W/m² 14,2 °C 15,7 °C 1,6 km/h (1 Bft)
27.06.2020 06:43 23,8 °C 15,7 °C 56 % 91 % 1010,5 hPa 0,0 l/m² 1,1 km/h (1 Bft) W-SW 252 ° 1 min 120 W/m² 14,2 °C 15,7 °C 1,6 km/h (1 Bft)
27.06.2020 06:45 23,8 °C 15,8 °C 56 % 90 % 1010,5 hPa 0,0 l/m² 0,9 km/h (0 Bft) W-SW 252 ° 2 min 127 W/m² 14,2 °C 15,8 °C 1,6 km/h (1 Bft)
27.06.2020 06:47 23,8 °C 16,0 °C 56 % 90 % 1010,5 hPa 0,0 l/m² 1,3 km/h (1 Bft) W-SW 252 ° 2 min 139 W/m² 14,4 °C 16,0 °C 1,6 km/h (1 Bft)
27.06.2020 06:48 23,8 °C 16,1 °C 56 % 90 % 1010,5 hPa 0,0 l/m² 0,8 km/h (0 Bft) W-SW 252 ° 1 min 142 W/m² 14,5 °C 16,1 °C 1,6 km/h (1 Bft)
27.06.2020 06:50 23,8 °C 16,2 °C 56 % 89 % 1010,4 hPa 0,0 l/m² 1,6 km/h (1 Bft) W-SW 252 ° 2 min 151 W/m² 14,4 °C 16,2 °C 3,2 km/h (1 Bft)
27.06.2020 06:51 23,8 °C 16,3 °C 56 % 88 % 1010,5 hPa 0,0 l/m² 0,4 km/h (0 Bft) W-SW 252 ° 1 min 158 W/m² 14,3 °C 16,3 °C 1,6 km/h (1 Bft)
27.06.2020 06:52 23,8 °C 16,4 °C 56 % 88 % 1010,5 hPa 0,0 l/m² 0,1 km/h (0 Bft) W-SW 252 ° 1 min 162 W/m² 14,4 °C 16,4 °C 1,6 km/h (1 Bft)
27.06.2020 06:54 23,8 °C 16,5 °C 56 % 88 % 1010,6 hPa 0,0 l/m² 0,3 km/h (0 Bft) W-SW 252 ° 2 min 167 W/m² 14,5 °C 16,5 °C 1,6 km/h (1 Bft)
27.06.2020 06:56 23,8 °C 16,6 °C 56 % 87 % 1010,6 hPa 0,0 l/m² 0,0 km/h (0 Bft) W-SW 252 ° 2 min 172 W/m² 14,4 °C 16,6 °C 0,0 km/h (0 Bft)
27.06.2020 06:58 23,8 °C 16,7 °C 56 % 86 % 1010,5 hPa 0,0 l/m² 0,1 km/h (0 Bft) W-SW 252 ° 2 min 179 W/m² 14,3 °C 16,7 °C 1,6 km/h (1 Bft)
27.06.2020 07:00 23,8 °C 16,8 °C 56 % 86 % 1010,5 hPa 0,0 l/m² 0,5 km/h (0 Bft) W-SW 252 ° 2 min 183 W/m² 14,4 °C 16,8 °C 1,6 km/h (1 Bft)
27.06.2020 07:01 23,8 °C 16,9 °C 56 % 85 % 1010,5 hPa 0,0 l/m² 0,0 km/h (0 Bft) W-SW 252 ° 1 min 185 W/m² 14,4 °C 16,9 °C 0,0 km/h (0 Bft)
27.06.2020 07:02 23,8 °C 16,9 °C 56 % 85 % 1010,5 hPa 0,0 l/m² 0,0 km/h (0 Bft) W-SW 252 ° 1 min 188 W/m² 14,4 °C 16,9 °C 0,0 km/h (0 Bft)
27.06.2020 07:04 23,8 °C 17,1 °C 56 % 86 % 1010,4 hPa 0,0 l/m² 0,0 km/h (0 Bft) W-SW 252 ° 2 min 197 W/m² 14,7 °C 17,1 °C 0,0 km/h (0 Bft)
27.06.2020 07:06 23,8 °C 17,3 °C 56 % 85 % 1010,5 hPa 0,0 l/m² 0,4 km/h (0 Bft) W-SW 252 ° 2 min 204 W/m² 14,8 °C 17,3 °C 1,6 km/h (1 Bft)
27.06.2020 07:08 23,8 °C 17,4 °C 56 % 84 % 1010,4 hPa 0,0 l/m² 1,0 km/h (0 Bft) W-SW 252 ° 2 min 190 W/m² 14,7 °C 17,4 °C 1,6 km/h (1 Bft)
27.06.2020 07:10 23,8 °C 17,6 °C 56 % 84 % 1010,5 hPa 0,0 l/m² 0,0 km/h (0 Bft) W-SW 252 ° 2 min 90 W/m² 14,9 °C 17,6 °C 0,0 km/h (0 Bft)
27.06.2020 07:11 23,8 °C 17,7 °C 56 % 84 % 1010,5 hPa 0,0 l/m² 0,1 km/h (0 Bft) W-SW 252 ° 1 min 62 W/m² 15,0 °C 17,7 °C 1,6 km/h (1 Bft)
27.06.2020 07:12 23,8 °C 17,7 °C 56 % 84 % 1010,5 hPa 0,0 l/m² 0,6 km/h (0 Bft) W-SW 252 ° 1 min 62 W/m² 15,0 °C 17,7 °C 1,6 km/h (1 Bft)
27.06.2020 07:14 23,8 °C 17,8 °C 56 % 84 % 1010,5 hPa 0,0 l/m² 0,5 km/h (0 Bft) W-SW 252 ° 2 min 62 W/m² 15,1 °C 17,8 °C 1,6 km/h (1 Bft)
27.06.2020 07:16 23,8 °C 17,9 °C 56 % 83 % 1010,5 hPa 0,0 l/m² 1,5 km/h (1 Bft) W-SW 252 ° 2 min 195 W/m² 15,0 °C 17,9 °C 3,2 km/h (1 Bft)
27.06.2020 07:18 23,8 °C 18,1 °C 56 % 83 % 1010,5 hPa 0,0 l/m² 2,6 km/h (1 Bft) W-SW 252 ° 2 min 236 W/m² 15,2 °C 18,1 °C 4,8 km/h (1 Bft)
27.06.2020 07:20 23,8 °C 18,2 °C 56 % 83 % 1010,4 hPa 0,0 l/m² 1,8 km/h (1 Bft) W-SW 252 ° 2 min 239 W/m² 15,3 °C 18,2 °C 3,2 km/h (1 Bft)
27.06.2020 07:21 23,8 °C 18,3 °C 56 % 83 % 1010,4 hPa 0,0 l/m² 0,2 km/h (0 Bft) W-SW 252 ° 1 min 243 W/m² 15,4 °C 18,3 °C 1,6 km/h (1 Bft)
27.06.2020 07:22 23,8 °C 18,3 °C 56 % 83 % 1010,4 hPa 0,0 l/m² 0,0 km/h (0 Bft) W-SW 252 ° 1 min 243 W/m² 15,4 °C 18,3 °C 0,0 km/h (0 Bft)
27.06.2020 07:23 23,8 °C 18,4 °C 56 % 83 % 1010,4 hPa 0,0 l/m² 0,0 km/h (0 Bft) W-SW 252 ° 1 min 244 W/m² 15,5 °C 18,4 °C 0,0 km/h (0 Bft)
27.06.2020 07:25 23,8 °C 18,4 °C 56 % 82 % 1010,3 hPa 0,0 l/m² 0,0 km/h (0 Bft) W-SW 252 ° 2 min 246 W/m² 15,3 °C 18,4 °C 0,0 km/h (0 Bft)
27.06.2020 07:27 23,8 °C 18,7 °C 56 % 82 % 1010,3 hPa 0,0 l/m² 0,6 km/h (0 Bft) W-SW 252 ° 2 min 251 W/m² 15,6 °C 18,7 °C 1,6 km/h (1 Bft)
27.06.2020 07:29 23,8 °C 18,8 °C 56 % 82 % 1010,3 hPa 0,0 l/m² 0,3 km/h (0 Bft) W-SW 252 ° 2 min 246 W/m² 15,7 °C 18,8 °C 1,6 km/h (1 Bft)
27.06.2020 07:30 23,8 °C 18,8 °C 56 % 81 % 1010,3 hPa 0,0 l/m² 1,2 km/h (1 Bft) W-SW 252 ° 1 min 232 W/m² 15,5 °C 18,8 °C 3,2 km/h (1 Bft)
27.06.2020 07:31 23,8 °C 18,9 °C 56 % 80 % 1010,3 hPa 0,0 l/m² 1,9 km/h (1 Bft) W-SW 252 ° 1 min 239 W/m² 15,4 °C 18,9 °C 3,2 km/h (1 Bft)
27.06.2020 07:32 23,8 °C 18,9 °C 56 % 80 % 1010,3 hPa 0,0 l/m² 1,0 km/h (0 Bft) W-SW 252 ° 1 min 234 W/m² 15,4 °C 18,9 °C 1,6 km/h (1 Bft)
27.06.2020 07:33 23,8 °C 19,0 °C 56 % 80 % 1010,3 hPa 0,0 l/m² 0,1 km/h (0 Bft) W-SW 252 ° 1 min 229 W/m² 15,5 °C 19,0 °C 1,6 km/h (1 Bft)
27.06.2020 07:35 23,8 °C 19,2 °C 56 % 80 % 1010,3 hPa 0,0 l/m² 0,5 km/h (0 Bft) W-SW 252 ° 2 min 221 W/m² 15,7 °C 19,2 °C 1,6 km/h (1 Bft)
27.06.2020 07:37 23,8 °C 19,3 °C 56 % 80 % 1010,3 hPa 0,0 l/m² 1,5 km/h (1 Bft) W-SW 252 ° 2 min 218 W/m² 15,8 °C 19,3 °C 3,2 km/h (1 Bft)
27.06.2020 07:39 23,7 °C 19,6 °C 56 % 79 % 1010,3 hPa 0,0 l/m² 2,6 km/h (1 Bft) W-SW 252 ° 2 min 218 W/m² 15,9 °C 19,6 °C 4,8 km/h (1 Bft)
27.06.2020 07:40 23,8 °C 19,7 °C 56 % 79 % 1010,3 hPa 0,0 l/m² 2,4 km/h (1 Bft) W-SW 252 ° 1 min 220 W/m² 16,0 °C 19,7 °C 3,2 km/h (1 Bft)
27.06.2020 07:41 23,8 °C 19,7 °C 56 % 78 % 1010,3 hPa 0,0 l/m² 0,9 km/h (0 Bft) W-SW 252 ° 1 min 221 W/m² 15,8 °C 19,7 °C 3,2 km/h (1 Bft)
27.06.2020 07:42 23,8 °C 19,8 °C 56 % 77 % 1010,3 hPa 0,0 l/m² 2,7 km/h (1 Bft) W-SW 252 ° 1 min 223 W/m² 15,6 °C 19,8 °C 3,2 km/h (1 Bft)
27.06.2020 07:43 23,7 °C 19,9 °C 56 % 77 % 1010,3 hPa 0,0 l/m² 5,3 km/h (1 Bft) S-SW 211 ° 1 min 227 W/m² 15,7 °C 19,9 °C 6,4 km/h (2 Bft)
27.06.2020 07:45 23,8 °C 20,1 °C 56 % 77 % 1010,4 hPa 0,0 l/m² 5,3 km/h (1 Bft) SW 217 ° 2 min 237 W/m² 15,9 °C 20,1 °C 8,0 km/h (2 Bft)
27.06.2020 07:47 23,8 °C 20,3 °C 56 % 77 % 1010,4 hPa 0,0 l/m² 5,6 km/h (2 Bft) SW 216 ° 2 min 248 W/m² 16,1 °C 20,3 °C 8,0 km/h (2 Bft)
27.06.2020 07:49 23,8 °C 20,5 °C 56 % 73 % 1010,4 hPa 0,0 l/m² 5,4 km/h (2 Bft) S-SW 211 ° 2 min 258 W/m² 15,5 °C 20,5 °C 6,4 km/h (2 Bft)
27.06.2020 07:50 23,8 °C 20,6 °C 56 % 74 % 1010,4 hPa 0,0 l/m² 5,9 km/h (2 Bft) S-SW 200 ° 1 min 271 W/m² 15,8 °C 20,6 °C 6,4 km/h (2 Bft)
27.06.2020 07:51 23,8 °C 20,7 °C 56 % 74 % 1010,5 hPa 0,0 l/m² 7,4 km/h (2 Bft) S-SW 198 ° 1 min 274 W/m² 15,9 °C 20,3 °C 9,7 km/h (2 Bft)
27.06.2020 07:52 23,8 °C 20,7 °C 56 % 73 % 1010,5 hPa 0,0 l/m² 6,8 km/h (2 Bft) S-SW 198 ° 1 min 278 W/m² 15,7 °C 20,5 °C 8,0 km/h (2 Bft)
27.06.2020 07:53 23,8 °C 20,8 °C 56 % 73 % 1010,4 hPa 0,0 l/m² 5,7 km/h (2 Bft) S-SW 198 ° 1 min 279 W/m² 15,8 °C 20,8 °C 8,0 km/h (2 Bft)
27.06.2020 07:55 23,8 °C 20,8 °C 56 % 72 % 1010,4 hPa 0,0 l/m² 4,0 km/h (1 Bft) S-SW 198 ° 2 min 283 W/m² 15,6 °C 20,8 °C 6,4 km/h (2 Bft)
27.06.2020 07:57 23,8 °C 20,9 °C 56 % 72 % 1010,4 hPa 0,0 l/m² 3,2 km/h (1 Bft) S-SW 198 ° 2 min 287 W/m² 15,7 °C 20,9 °C 4,8 km/h (1 Bft)
27.06.2020 07:59 23,8 °C 20,9 °C 56 % 72 % 1010,5 hPa 0,0 l/m² 4,3 km/h (1 Bft) S-SW 198 ° 2 min 288 W/m² 15,7 °C 20,9 °C 6,4 km/h (2 Bft)
27.06.2020 08:00 23,8 °C 20,9 °C 56 % 71 % 1010,5 hPa 0,0 l/m² 3,9 km/h (1 Bft) S-SW 198 ° 1 min 290 W/m² 15,4 °C 20,9 °C 4,8 km/h (1 Bft)
27.06.2020 08:01 23,8 °C 21,0 °C 56 % 71 % 1010,6 hPa 0,0 l/m² 3,7 km/h (1 Bft) S-SW 198 ° 1 min 292 W/m² 15,5 °C 21,0 °C 4,8 km/h (1 Bft)
27.06.2020 08:03 23,8 °C 21,1 °C 56 % 71 % 1010,6 hPa 0,0 l/m² 4,7 km/h (1 Bft) S-SW 202 ° 2 min 297 W/m² 15,6 °C 21,1 °C 6,4 km/h (2 Bft)
27.06.2020 08:04 23,8 °C 21,2 °C 56 % 71 % 1010,6 hPa 0,0 l/m² 6,5 km/h (2 Bft) S-SW 205 ° 1 min 297 W/m² 15,7 °C 21,2 °C 8,0 km/h (2 Bft)
27.06.2020 08:06 23,8 °C 21,4 °C 56 % 70 % 1010,6 hPa 0,0 l/m² 6,8 km/h (2 Bft) SW 229 ° 2 min 302 W/m² 15,7 °C 21,3 °C 9,7 km/h (2 Bft)
27.06.2020 08:08 23,7 °C 21,7 °C 56 % 70 % 1010,7 hPa 0,0 l/m² 7,9 km/h (2 Bft) SW 219 ° 2 min 308 W/m² 16,0 °C 21,2 °C 9,7 km/h (2 Bft)
27.06.2020 08:10 23,7 °C 21,9 °C 56 % 69 % 1010,7 hPa 0,0 l/m² 9,4 km/h (2 Bft) S-SW 209 ° 2 min 313 W/m² 15,9 °C 20,9 °C 12,9 km/h (3 Bft)
27.06.2020 08:11 23,8 °C 21,9 °C 56 % 69 % 1010,7 hPa 0,0 l/m² 9,0 km/h (2 Bft) S-SW 200 ° 1 min 315 W/m² 15,9 °C 21,0 °C 11,3 km/h (2 Bft)
27.06.2020 08:12 23,8 °C 22,0 °C 56 % 68 % 1010,7 hPa 0,0 l/m² 8,6 km/h (2 Bft) S-SW 206 ° 1 min 316 W/m² 15,8 °C 21,3 °C 11,3 km/h (2 Bft)
27.06.2020 08:14 23,8 °C 22,1 °C 56 % 68 % 1010,7 hPa 0,0 l/m² 6,1 km/h (2 Bft) S-SW 203 ° 2 min 323 W/m² 15,9 °C 22,1 °C 8,0 km/h (2 Bft)
27.06.2020 08:16 23,7 °C 22,2 °C 56 % 68 % 1010,7 hPa 0,0 l/m² 5,4 km/h (2 Bft) S 189 ° 2 min 322 W/m² 16,0 °C 22,2 °C 8,0 km/h (2 Bft)
27.06.2020 08:18 23,8 °C 22,4 °C 56 % 67 % 1010,6 hPa 0,0 l/m² 7,9 km/h (2 Bft) S-SW 204 ° 2 min 320 W/m² 16,0 °C 21,9 °C 11,3 km/h (2 Bft)
27.06.2020 08:20 23,8 °C 22,6 °C 56 % 66 % 1010,6 hPa 0,0 l/m² 7,9 km/h (2 Bft) S-SW 207 ° 2 min 320 W/m² 15,9 °C 22,1 °C 12,9 km/h (3 Bft)
27.06.2020 08:21 23,8 °C 22,7 °C 57 % 66 % 1010,6 hPa 0,0 l/m² 9,9 km/h (2 Bft) SW 227 ° 1 min 322 W/m² 16,0 °C 21,6 °C 16,1 km/h (3 Bft)
27.06.2020 08:22 23,8 °C 22,8 °C 57 % 66 % 1010,6 hPa 0,0 l/m² 9,7 km/h (2 Bft) SW 225 ° 1 min 325 W/m² 16,1 °C 21,8 °C 14,5 km/h (3 Bft)
27.06.2020 08:24 23,7 °C 22,9 °C 57 % 65 % 1010,6 hPa 0,0 l/m² 7,4 km/h (2 Bft) S-SW 202 ° 2 min 338 W/m² 16,0 °C 22,6 °C 11,3 km/h (2 Bft)
27.06.2020 08:26 23,8 °C 23,1 °C 57 % 64 % 1010,6 hPa 0,0 l/m² 7,4 km/h (2 Bft) SW 219 ° 2 min 359 W/m² 15,9 °C 22,8 °C 11,3 km/h (2 Bft)
27.06.2020 08:28 23,8 °C 23,2 °C 57 % 64 % 1010,5 hPa 0,0 l/m² 5,7 km/h (2 Bft) SW 233 ° 2 min 373 W/m² 16,0 °C 23,2 °C 8,0 km/h (2 Bft)
27.06.2020 08:30 23,8 °C 23,2 °C 57 % 65 % 1010,6 hPa 0,0 l/m² 4,8 km/h (1 Bft) W-SW 238 ° 2 min 385 W/m² 16,2 °C 23,2 °C 9,7 km/h (2 Bft)
27.06.2020 08:31 23,8 °C 23,3 °C 57 % 63 % 1010,7 hPa 0,0 l/m² 8,4 km/h (2 Bft) SW 223 ° 1 min 397 W/m² 15,9 °C 22,7 °C 9,7 km/h (2 Bft)
27.06.2020 08:32 23,8 °C 23,3 °C 57 % 62 % 1010,7 hPa 0,0 l/m² 6,8 km/h (2 Bft) SW 221 ° 1 min 403 W/m² 15,6 °C 23,2 °C 8,0 km/h (2 Bft)
27.06.2020 08:33 23,8 °C 23,3 °C 57 % 62 % 1010,7 hPa 0,0 l/m² 6,4 km/h (2 Bft) SW 226 ° 1 min 408 W/m² 15,6 °C 23,3 °C 8,0 km/h (2 Bft)
27.06.2020 08:34 23,8 °C 23,4 °C 57 % 62 % 1010,6 hPa 0,0 l/m² 5,3 km/h (1 Bft) W-SW 248 ° 1 min 411 W/m² 15,7 °C 23,4 °C 6,4 km/h (2 Bft)
27.06.2020 08:36 23,8 °C 23,6 °C 57 % 62 % 1010,5 hPa 0,0 l/m² 4,6 km/h (1 Bft) SW 216 ° 2 min 420 W/m² 15,9 °C 23,6 °C 12,9 km/h (3 Bft)
27.06.2020 08:38 23,8 °C 23,8 °C 57 % 62 % 1010,5 hPa 0,0 l/m² 8,2 km/h (2 Bft) S-SW 205 ° 2 min 425 W/m² 16,1 °C 23,3 °C 11,3 km/h (2 Bft)
27.06.2020 08:40 23,9 °C 23,8 °C 57 % 61 % 1010,6 hPa 0,0 l/m² 6,0 km/h (2 Bft) SW 234 ° 2 min 427 W/m² 15,8 °C 23,8 °C 9,7 km/h (2 Bft)
27.06.2020 08:41 23,9 °C 23,9 °C 57 % 61 % 1010,5 hPa 0,0 l/m² 1,9 km/h (1 Bft) SW 234 ° 1 min 429 W/m² 15,9 °C 23,9 °C 4,8 km/h (1 Bft)
27.06.2020 08:42 23,9 °C 24,0 °C 57 % 62 % 1010,5 hPa 0,0 l/m² 3,1 km/h (1 Bft) SW 236 ° 1 min 429 W/m² 16,3 °C 24,0 °C 4,8 km/h (1 Bft)
27.06.2020 08:43 23,9 °C 24,1 °C 57 % 61 % 1010,5 hPa 0,0 l/m² 4,2 km/h (1 Bft) S-SW 205 ° 1 min 429 W/m² 16,1 °C 24,1 °C 6,4 km/h (2 Bft)
27.06.2020 08:44 23,9 °C 24,2 °C 57 % 60 % 1010,5 hPa 0,0 l/m² 3,4 km/h (1 Bft) W-SW 246 ° 1 min 429 W/m² 15,9 °C 24,2 °C 6,4 km/h (2 Bft)
27.06.2020 08:46 23,9 °C 24,2 °C 58 % 59 % 1010,5 hPa 0,0 l/m² 5,8 km/h (2 Bft) SW 217 ° 2 min 427 W/m² 15,7 °C 24,2 °C 9,7 km/h (2 Bft)
27.06.2020 08:48 23,9 °C 24,3 °C 58 % 61 % 1010,5 hPa 0,0 l/m² 7,9 km/h (2 Bft) SW 225 ° 2 min 425 W/m² 16,3 °C 23,9 °C 12,9 km/h (3 Bft)
27.06.2020 08:50 23,9 °C 24,6 °C 58 % 60 % 1010,5 hPa 0,0 l/m² 8,8 km/h (2 Bft) S-SW 194 ° 2 min 420 W/m² 16,3 °C 24,0 °C 16,1 km/h (3 Bft)
27.06.2020 08:51 23,9 °C 24,7 °C 58 % 60 % 1010,5 hPa 0,0 l/m² 6,9 km/h (2 Bft) W-SW 246 ° 1 min 418 W/m² 16,4 °C 24,6 °C 9,7 km/h (2 Bft)
27.06.2020 08:52 23,9 °C 24,7 °C 58 % 59 % 1010,5 hPa 0,0 l/m² 7,0 km/h (2 Bft) W-SW 243 ° 1 min 417 W/m² 16,1 °C 24,5 °C 11,3 km/h (2 Bft)
27.06.2020 08:53 24,0 °C 24,7 °C 58 % 59 % 1010,5 hPa 0,0 l/m² 7,3 km/h (2 Bft) W-SW 257 ° 1 min 417 W/m² 16,1 °C 24,5 °C 12,9 km/h (3 Bft)
27.06.2020 08:55 24,0 °C 24,5 °C 58 % 59 % 1010,4 hPa 0,0 l/m² 7,2 km/h (2 Bft) W-SW 241 ° 2 min 415 W/m² 15,9 °C 24,3 °C 11,3 km/h (2 Bft)
27.06.2020 08:57 24,0 °C 24,5 °C 58 % 58 % 1010,5 hPa 0,0 l/m² 8,0 km/h (2 Bft) W-SW 246 ° 2 min 417 W/m² 15,7 °C 24,1 °C 11,3 km/h (2 Bft)
27.06.2020 08:59 24,0 °C 24,7 °C 58 % 59 % 1010,5 hPa 0,0 l/m² 6,2 km/h (2 Bft) S-SW 212 ° 2 min 417 W/m² 16,1 °C 24,7 °C 9,7 km/h (2 Bft)
27.06.2020 09:00 24,1 °C 24,8 °C 58 % 58 % 1010,4 hPa 0,0 l/m² 6,4 km/h (2 Bft) S-SW 192 ° 1 min 422 W/m² 16,0 °C 24,8 °C 9,7 km/h (2 Bft)
27.06.2020 09:01 24,1 °C 24,9 °C 58 % 58 % 1010,4 hPa 0,0 l/m² 7,0 km/h (2 Bft) S-SW 198 ° 1 min 425 W/m² 16,1 °C 24,7 °C 8,0 km/h (2 Bft)
27.06.2020 09:02 24,1 °C 24,9 °C 58 % 57 % 1010,5 hPa 0,0 l/m² 8,2 km/h (2 Bft) S-SW 208 ° 1 min 429 W/m² 15,8 °C 24,4 °C 11,3 km/h (2 Bft)
27.06.2020 09:03 24,1 °C 25,1 °C 58 % 58 % 1010,3 hPa 0,0 l/m² 8,3 km/h (2 Bft) S 181 ° 1 min 432 W/m² 16,2 °C 24,6 °C 9,7 km/h (2 Bft)
27.06.2020 09:05 24,1 °C 25,3 °C 58 % 57 % 1010,4 hPa 0,0 l/m² 10,8 km/h (2 Bft) S-SW 213 ° 2 min 443 W/m² 16,2 °C 24,3 °C 14,5 km/h (3 Bft)
27.06.2020 09:07 24,1 °C 25,3 °C 58 % 57 % 1010,4 hPa 0,0 l/m² 9,3 km/h (2 Bft) S 190 ° 2 min 464 W/m² 16,2 °C 24,6 °C 14,5 km/h (3 Bft)
27.06.2020 09:09 24,1 °C 25,5 °C 59 % 56 % 1010,4 hPa 0,0 l/m² 8,6 km/h (2 Bft) S 188 ° 2 min 480 W/m² 16,1 °C 25,0 °C 12,9 km/h (3 Bft)
27.06.2020 09:10 24,1 °C 25,6 °C 59 % 56 % 1010,4 hPa 0,0 l/m² 10,4 km/h (2 Bft) S-SW 200 ° 1 min 489 W/m² 16,2 °C 24,8 °C 14,5 km/h (3 Bft)
27.06.2020 09:11 24,1 °C 25,7 °C 59 % 56 % 1010,4 hPa 0,0 l/m² 9,7 km/h (2 Bft) S-SW 205 ° 1 min 497 W/m² 16,2 °C 25,0 °C 11,3 km/h (2 Bft)
27.06.2020 09:12 24,1 °C 25,7 °C 59 % 56 % 1010,3 hPa 0,0 l/m² 9,1 km/h (2 Bft) SW 214 ° 1 min 513 W/m² 16,2 °C 25,1 °C 14,5 km/h (3 Bft)
27.06.2020 09:13 24,1 °C 25,8 °C 59 % 56 % 1010,4 hPa 0,0 l/m² 10,0 km/h (2 Bft) S-SW 200 ° 1 min 520 W/m² 16,3 °C 25,0 °C 14,5 km/h (3 Bft)
27.06.2020 09:15 24,1 °C 25,9 °C 59 % 55 % 1010,4 hPa 0,0 l/m² 10,2 km/h (2 Bft) S 190 ° 2 min 538 W/m² 16,2 °C 25,1 °C 12,9 km/h (3 Bft)
27.06.2020 09:17 24,2 °C 25,9 °C 59 % 55 % 1010,3 hPa 0,0 l/m² 11,5 km/h (2 Bft) S-SW 194 ° 2 min 554 W/m² 16,2 °C 24,9 °C 14,5 km/h (3 Bft)
27.06.2020 09:19 24,2 °C 25,9 °C 59 % 56 % 1010,4 hPa 0,0 l/m² 10,7 km/h (2 Bft) S 184 ° 2 min 575 W/m² 16,4 °C 25,0 °C 14,5 km/h (3 Bft)
27.06.2020 09:20 24,2 °C 25,9 °C 59 % 55 % 1010,3 hPa 0,0 l/m² 10,0 km/h (2 Bft) S-SW 194 ° 1 min 582 W/m² 16,2 °C 25,2 °C 16,1 km/h (3 Bft)
27.06.2020 09:21 24,2 °C 26,1 °C 59 % 56 % 1010,3 hPa 0,0 l/m² 7,6 km/h (2 Bft) SW 236 ° 1 min 587 W/m² 16,6 °C 25,8 °C 11,3 km/h (2 Bft)
27.06.2020 09:22 24,2 °C 26,2 °C 59 % 55 % 1010,3 hPa 0,0 l/m² 8,9 km/h (2 Bft) SW 215 ° 1 min 589 W/m² 16,4 °C 25,7 °C 12,9 km/h (3 Bft)
27.06.2020 09:23 24,2 °C 26,3 °C 59 % 55 % 1010,3 hPa 0,0 l/m² 8,6 km/h (2 Bft) SW 217 ° 1 min 596 W/m² 16,5 °C 25,8 °C 11,3 km/h (2 Bft)
27.06.2020 09:25 24,2 °C 26,4 °C 59 % 55 % 1010,3 hPa 0,0 l/m² 10,6 km/h (2 Bft) SW 227 ° 2 min 605 W/m² 16,6 °C 25,6 °C 12,9 km/h (3 Bft)
27.06.2020 09:27 24,2 °C 26,5 °C 59 % 54 % 1010,2 hPa 0,0 l/m² 10,1 km/h (2 Bft) SW 221 ° 2 min 612 W/m² 16,4 °C 25,8 °C 12,9 km/h (3 Bft)
27.06.2020 09:29 24,2 °C 26,5 °C 59 % 53 % 1010,3 hPa 0,0 l/m² 10,7 km/h (2 Bft) SW 217 ° 2 min 622 W/m² 16,1 °C 25,7 °C 14,5 km/h (3 Bft)
27.06.2020 09:30 24,2 °C 26,5 °C 59 % 53 % 1010,3 hPa 0,0 l/m² 10,3 km/h (2 Bft) SW 214 ° 1 min 638 W/m² 16,1 °C 25,8 °C 12,9 km/h (3 Bft)
27.06.2020 09:31 24,2 °C 26,5 °C 59 % 54 % 1010,3 hPa 0,0 l/m² 10,4 km/h (2 Bft) SW 218 ° 1 min 650 W/m² 16,4 °C 25,8 °C 12,9 km/h (3 Bft)
27.06.2020 09:32 24,2 °C 26,6 °C 59 % 53 % 1010,3 hPa 0,0 l/m² 9,3 km/h (2 Bft) SW 227 ° 1 min 668 W/m² 16,2 °C 26,0 °C 14,5 km/h (3 Bft)
27.06.2020 09:33 24,2 °C 26,8 °C 59 % 54 % 1010,3 hPa 0,0 l/m² 8,8 km/h (2 Bft) S-SW 209 ° 1 min 682 W/m² 16,7 °C 26,3 °C 12,9 km/h (3 Bft)
27.06.2020 09:35 24,2 °C 27,2 °C 59 % 52 % 1010,4 hPa 0,0 l/m² 14,3 km/h (3 Bft) S-SW 205 ° 2 min 714 W/m² 16,5 °C 26,0 °C 19,3 km/h (3 Bft)
27.06.2020 09:37 24,2 °C 27,1 °C 59 % 51 % 1010,4 hPa 0,0 l/m² 12,6 km/h (3 Bft) S-SW 213 ° 2 min 752 W/m² 16,1 °C 26,1 °C 16,1 km/h (3 Bft)
27.06.2020 09:39 24,3 °C 27,2 °C 59 % 52 % 1010,4 hPa 0,0 l/m² 12,9 km/h (3 Bft) SW 224 ° 2 min 752 W/m² 16,5 °C 26,2 °C 16,1 km/h (3 Bft)
27.06.2020 09:40 24,2 °C 27,0 °C 59 % 52 % 1010,4 hPa 0,0 l/m² 12,2 km/h (2 Bft) SW 227 ° 1 min 295 W/m² 16,3 °C 26,1 °C 14,5 km/h (3 Bft)
27.06.2020 09:41 24,2 °C 26,8 °C 59 % 52 % 1010,3 hPa 0,0 l/m² 11,5 km/h (2 Bft) SW 227 ° 1 min 239 W/m² 16,1 °C 25,9 °C 16,1 km/h (3 Bft)
27.06.2020 09:42 24,3 °C 26,6 °C 59 % 53 % 1010,3 hPa 0,0 l/m² 13,1 km/h (3 Bft) SW 229 ° 1 min 239 W/m² 16,2 °C 25,5 °C 16,1 km/h (3 Bft)
27.06.2020 09:43 24,3 °C 26,4 °C 59 % 53 % 1010,3 hPa 0,0 l/m² 11,1 km/h (2 Bft) S-SW 199 ° 1 min 239 W/m² 16,0 °C 25,5 °C 14,5 km/h (3 Bft)
27.06.2020 09:44 24,2 °C 26,5 °C 59 % 54 % 1010,3 hPa 0,0 l/m² 12,4 km/h (2 Bft) SW 223 ° 1 min 239 W/m² 16,4 °C 25,5 °C 17,7 km/h (3 Bft)
27.06.2020 09:46 24,3 °C 26,4 °C 58 % 53 % 1010,3 hPa 0,0 l/m² 9,3 km/h (2 Bft) S-SW 205 ° 2 min 359 W/m² 16,0 °C 25,8 °C 14,5 km/h (3 Bft)
27.06.2020 09:47 24,3 °C 26,4 °C 58 % 54 % 1010,3 hPa 0,0 l/m² 7,0 km/h (2 Bft) W 265 ° 1 min 359 W/m² 16,3 °C 26,3 °C 17,7 km/h (3 Bft)
27.06.2020 09:48 24,3 °C 26,4 °C 58 % 54 % 1010,4 hPa 0,0 l/m² 11,1 km/h (2 Bft) S-SW 211 ° 1 min 359 W/m² 16,3 °C 25,5 °C 17,7 km/h (3 Bft)
27.06.2020 09:50 24,2 °C 26,6 °C 58 % 54 % 1010,3 hPa 0,0 l/m² 11,8 km/h (2 Bft) S-SW 204 ° 2 min 359 W/m² 16,5 °C 25,7 °C 17,7 km/h (3 Bft)
27.06.2020 09:51 24,3 °C 26,6 °C 58 % 54 % 1010,3 hPa 0,0 l/m² 11,0 km/h (2 Bft) SW 222 ° 1 min 359 W/m² 16,5 °C 25,8 °C 14,5 km/h (3 Bft)
27.06.2020 09:52 24,3 °C 26,7 °C 58 % 53 % 1010,3 hPa 0,0 l/m² 8,9 km/h (2 Bft) W-SW 238 ° 1 min 359 W/m² 16,3 °C 26,2 °C 12,9 km/h (3 Bft)
27.06.2020 09:53 24,3 °C 26,8 °C 58 % 53 % 1010,3 hPa 0,0 l/m² 9,8 km/h (2 Bft) SW 220 ° 1 min 677 W/m² 16,4 °C 26,2 °C 14,5 km/h (3 Bft)
27.06.2020 09:55 24,3 °C 26,9 °C 58 % 53 % 1010,3 hPa 0,0 l/m² 10,6 km/h (2 Bft) S-SW 197 ° 2 min 679 W/m² 16,5 °C 26,2 °C 14,5 km/h (3 Bft)
27.06.2020 09:57 24,3 °C 27,1 °C 58 % 53 % 1010,3 hPa 0,0 l/m² 11,5 km/h (2 Bft) SW 214 ° 2 min 680 W/m² 16,7 °C 26,3 °C 16,1 km/h (3 Bft)
27.06.2020 09:59 24,3 °C 27,3 °C 58 % 53 % 1010,3 hPa 0,0 l/m² 16,6 km/h (3 Bft) SW 225 ° 2 min 691 W/m² 16,9 °C 25,9 °C 20,9 km/h (4 Bft)
27.06.2020 10:00 24,3 °C 27,4 °C 58 % 53 % 1010,3 hPa 0,0 l/m² 15,8 km/h (3 Bft) SW 222 ° 1 min 696 W/m² 17,0 °C 26,1 °C 22,5 km/h (4 Bft)
27.06.2020 10:01 24,3 °C 27,5 °C 58 % 53 % 1010,3 hPa 0,0 l/m² 13,6 km/h (3 Bft) SW 219 ° 1 min 703 W/m² 17,0 °C 26,5 °C 19,3 km/h (3 Bft)
27.06.2020 10:02 24,3 °C 27,6 °C 58 % 52 % 1010,3 hPa 0,0 l/m² 12,3 km/h (2 Bft) S 182 ° 1 min 707 W/m² 16,8 °C 26,7 °C 17,7 km/h (3 Bft)
27.06.2020 10:03 24,3 °C 27,7 °C 58 % 52 % 1010,3 hPa 0,0 l/m² 16,5 km/h (3 Bft) S-SW 206 ° 1 min 714 W/m² 16,9 °C 26,4 °C 19,3 km/h (3 Bft)
27.06.2020 10:05 24,3 °C 27,6 °C 58 % 52 % 1010,3 hPa 0,0 l/m² 15,8 km/h (3 Bft) W-SW 243 ° 2 min 629 W/m² 16,8 °C 26,4 °C 20,9 km/h (4 Bft)
27.06.2020 10:07 24,3 °C 27,4 °C 58 % 53 % 1010,2 hPa 0,0 l/m² 17,1 km/h (3 Bft) SW 217 ° 2 min 629 W/m² 17,0 °C 26,0 °C 24,1 km/h (4 Bft)
27.06.2020 10:09 24,3 °C 27,2 °C 58 % 53 % 1010,2 hPa 0,0 l/m² 12,8 km/h (3 Bft) SW 218 ° 2 min 598 W/m² 16,8 °C 26,2 °C 17,7 km/h (3 Bft)
27.06.2020 10:10 24,3 °C 27,2 °C 58 % 55 % 1010,2 hPa 0,0 l/m² 15,1 km/h (3 Bft) W-SW 240 ° 1 min 705 W/m² 17,4 °C 26,0 °C 19,3 km/h (3 Bft)
27.06.2020 10:11 24,3 °C 27,3 °C 58 % 54 % 1010,2 hPa 0,0 l/m² 16,0 km/h (3 Bft) S-SW 205 ° 1 min 708 W/m² 17,2 °C 26,0 °C 19,3 km/h (3 Bft)
27.06.2020 10:12 24,3 °C 27,3 °C 58 % 53 % 1010,3 hPa 0,0 l/m² 14,6 km/h (3 Bft) SW 225 ° 1 min 710 W/m² 16,9 °C 26,1 °C 19,3 km/h (3 Bft)
27.06.2020 10:13 24,3 °C 27,4 °C 58 % 53 % 1010,3 hPa 0,0 l/m² 17,0 km/h (3 Bft) SW 229 ° 1 min 714 W/m² 17,0 °C 26,0 °C 24,1 km/h (4 Bft)
27.06.2020 10:15 24,2 °C 27,4 °C 58 % 53 % 1010,3 hPa 0,0 l/m² 16,2 km/h (3 Bft) W-SW 240 ° 2 min 717 W/m² 17,0 °C 26,1 °C 20,9 km/h (4 Bft)
27.06.2020 10:17 24,3 °C 27,6 °C 58 % 52 % 1010,4 hPa 0,0 l/m² 14,6 km/h (3 Bft) W-SW 251 ° 2 min 728 W/m² 16,8 °C 26,5 °C 20,9 km/h (4 Bft)
27.06.2020 10:19 24,2 °C 27,6 °C 58 % 52 % 1010,2 hPa 0,0 l/m² 14,7 km/h (3 Bft) W-SW 252 ° 2 min 738 W/m² 16,8 °C 26,5 °C 19,3 km/h (3 Bft)
27.06.2020 10:20 24,2 °C 27,5 °C 58 % 53 % 1010,3 hPa 0,0 l/m² 13,5 km/h (3 Bft) SW 217 ° 1 min 745 W/m² 17,0 °C 26,5 °C 17,7 km/h (3 Bft)
27.06.2020 10:21 24,2 °C 27,5 °C 58 % 52 % 1010,3 hPa 0,0 l/m² 15,6 km/h (3 Bft) S-SW 203 ° 1 min 752 W/m² 16,7 °C 26,3 °C 20,9 km/h (4 Bft)
27.06.2020 10:22 24,2 °C 27,6 °C 58 % 53 % 1010,2 hPa 0,0 l/m² 11,9 km/h (2 Bft) W 259 ° 1 min 758 W/m² 17,1 °C 26,8 °C 17,7 km/h (3 Bft)
27.06.2020 10:23 24,2 °C 27,6 °C 58 % 52 % 1010,2 hPa 0,0 l/m² 16,3 km/h (3 Bft) SW 225 ° 1 min 680 W/m² 16,8 °C 26,3 °C 20,9 km/h (4 Bft)
27.06.2020 10:25 24,2 °C 27,7 °C 58 % 51 % 1010,3 hPa 0,0 l/m² 15,6 km/h (3 Bft) S-SW 211 ° 2 min 645 W/m² 16,6 °C 26,5 °C 19,3 km/h (3 Bft)
27.06.2020 10:27 24,2 °C 27,7 °C 58 % 53 % 1010,3 hPa 0,0 l/m² 13,6 km/h (3 Bft) S 180 ° 2 min 761 W/m² 17,2 °C 26,7 °C 17,7 km/h (3 Bft)
27.06.2020 10:29 24,2 °C 27,8 °C 58 % 52 % 1010,4 hPa 0,0 l/m² 11,8 km/h (2 Bft) SW 215 ° 2 min 814 W/m² 17,0 °C 27,0 °C 16,1 km/h (3 Bft)
27.06.2020 10:30 24,2 °C 28,1 °C 58 % 52 % 1010,3 hPa 0,0 l/m² 10,7 km/h (2 Bft) W-SW 240 ° 1 min 833 W/m² 17,3 °C 27,5 °C 16,1 km/h (3 Bft)
27.06.2020 10:31 24,2 °C 28,3 °C 58 % 52 % 1010,3 hPa 0,0 l/m² 9,9 km/h (2 Bft) SW 219 ° 1 min 856 W/m² 17,5 °C 27,8 °C 16,1 km/h (3 Bft)
27.06.2020 10:32 24,2 °C 28,4 °C 58 % 52 % 1010,3 hPa 0,0 l/m² 10,4 km/h (2 Bft) W 271 ° 1 min 893 W/m² 17,6 °C 27,9 °C 14,5 km/h (3 Bft)
27.06.2020 10:33 24,2 °C 28,4 °C 58 % 51 % 1010,3 hPa 0,0 l/m² 11,3 km/h (2 Bft) W-SW 249 ° 1 min 893 W/m² 17,3 °C 27,8 °C 16,1 km/h (3 Bft)
27.06.2020 10:35 24,2 °C 28,2 °C 58 % 51 % 1010,2 hPa 0,0 l/m² 11,1 km/h (2 Bft) S-SW 207 ° 2 min 446 W/m² 17,1 °C 27,6 °C 14,5 km/h (3 Bft)
27.06.2020 10:37 24,2 °C 28,1 °C 58 % 51 % 1010,3 hPa 0,0 l/m² 13,3 km/h (3 Bft) S 185 ° 2 min 446 W/m² 17,0 °C 27,2 °C 17,7 km/h (3 Bft)
27.06.2020 10:39 24,1 °C 28,1 °C 58 % 52 % 1010,3 hPa 0,0 l/m² 11,7 km/h (2 Bft) S 191 ° 2 min 494 W/m² 17,3 °C 27,4 °C 19,3 km/h (3 Bft)
27.06.2020 10:40 24,2 °C 28,1 °C 58 % 52 % 1010,3 hPa 0,0 l/m² 10,1 km/h (2 Bft) SW 227 ° 1 min 323 W/m² 17,3 °C 27,6 °C 12,9 km/h (3 Bft)
27.06.2020 10:41 24,2 °C 27,9 °C 58 % 51 % 1010,3 hPa 0,0 l/m² 11,6 km/h (2 Bft) S-SW 211 ° 1 min 336 W/m² 16,8 °C 27,2 °C 17,7 km/h (3 Bft)
27.06.2020 10:42 24,2 °C 27,8 °C 58 % 52 % 1010,4 hPa 0,0 l/m² 15,8 km/h (3 Bft) S-SW 196 ° 1 min 366 W/m² 17,0 °C 26,6 °C 24,1 km/h (4 Bft)
27.06.2020 10:43 24,2 °C 27,7 °C 58 % 52 % 1010,3 hPa 0,0 l/m² 14,4 km/h (3 Bft) S-SW 200 ° 1 min 313 W/m² 16,9 °C 26,6 °C 17,7 km/h (3 Bft)
27.06.2020 10:45 24,1 °C 27,4 °C 58 % 52 % 1010,3 hPa 0,0 l/m² 13,1 km/h (3 Bft) S-SW 201 ° 2 min 388 W/m² 16,7 °C 26,4 °C 16,1 km/h (3 Bft)
27.06.2020 10:47 24,2 °C 27,6 °C 58 % 53 % 1010,3 hPa 0,0 l/m² 12,9 km/h (3 Bft) S-SW 192 ° 2 min 687 W/m² 17,1 °C 26,7 °C 16,1 km/h (3 Bft)
27.06.2020 10:49 24,1 °C 27,7 °C 58 % 52 % 1010,3 hPa 0,0 l/m² 11,3 km/h (2 Bft) S-SW 205 ° 2 min 687 W/m² 16,9 °C 27,0 °C 16,1 km/h (3 Bft)
27.06.2020 10:50 24,1 °C 27,9 °C 58 % 52 % 1010,2 hPa 0,0 l/m² 11,3 km/h (2 Bft) W-SW 242 ° 1 min 856 W/m² 17,1 °C 27,2 °C 16,1 km/h (3 Bft)
27.06.2020 10:51 24,1 °C 28,1 °C 58 % 50 % 1010,2 hPa 0,0 l/m² 15,8 km/h (3 Bft) SW 221 ° 1 min 837 W/m² 16,7 °C 27,0 °C 17,7 km/h (3 Bft)
27.06.2020 10:52 24,1 °C 28,2 °C 58 % 50 % 1010,3 hPa 0,0 l/m² 12,0 km/h (2 Bft) S 177 ° 1 min 798 W/m² 16,8 °C 27,5 °C 17,7 km/h (3 Bft)
27.06.2020 10:53 24,1 °C 28,3 °C 58 % 50 % 1010,2 hPa 0,0 l/m² 9,9 km/h (2 Bft) S-SW 198 ° 1 min 800 W/m² 16,9 °C 27,8 °C 12,9 km/h (3 Bft)
27.06.2020 10:55 24,1 °C 28,4 °C 58 % 49 % 1010,3 hPa 0,0 l/m² 10,4 km/h (2 Bft) W-SW 252 ° 2 min 800 W/m² 16,6 °C 27,9 °C 19,3 km/h (3 Bft)
27.06.2020 10:57 24,1 °C 28,6 °C 58 % 49 % 1010,2 hPa 0,0 l/m² 12,2 km/h (2 Bft) W-SW 244 ° 2 min 777 W/m² 16,8 °C 27,9 °C 16,1 km/h (3 Bft)
27.06.2020 10:59 24,1 °C 28,6 °C 58 % 49 % 1010,3 hPa 0,0 l/m² 9,7 km/h (2 Bft) SW 226 ° 2 min 803 W/m² 16,8 °C 28,2 °C 12,9 km/h (3 Bft)
27.06.2020 11:00 24,1 °C 28,8 °C 58 % 49 % 1010,2 hPa 0,0 l/m² 7,3 km/h (2 Bft) SW 233 ° 1 min 803 W/m² 17,0 °C 28,7 °C 11,3 km/h (2 Bft)
27.06.2020 11:01 24,1 °C 28,9 °C 58 % 50 % 1010,2 hPa 0,0 l/m² 8,0 km/h (2 Bft) W 263 ° 1 min 803 W/m² 17,4 °C 28,7 °C 11,3 km/h (2 Bft)
27.06.2020 11:02 24,1 °C 28,9 °C 58 % 49 % 1010,2 hPa 0,0 l/m² 12,2 km/h (2 Bft) S-SW 207 ° 1 min 803 W/m² 17,1 °C 28,3 °C 16,1 km/h (3 Bft)
27.06.2020 11:03 24,1 °C 29,1 °C 58 % 49 % 1010,3 hPa 0,0 l/m² 12,7 km/h (3 Bft) S 186 ° 1 min 805 W/m² 17,3 °C 28,5 °C 16,1 km/h (3 Bft)
27.06.2020 11:05 24,1 °C 29,0 °C 58 % 48 % 1010,2 hPa 0,0 l/m² 9,4 km/h (2 Bft) S 182 ° 2 min 786 W/m² 16,9 °C 28,6 °C 12,9 km/h (3 Bft)
27.06.2020 11:07 24,1 °C 29,1 °C 58 % 48 % 1010,2 hPa 0,0 l/m² 11,9 km/h (2 Bft) SW 230 ° 2 min 800 W/m² 16,9 °C 28,5 °C 19,3 km/h (3 Bft)
27.06.2020 11:09 24,1 °C 29,2 °C 58 % 47 % 1010,2 hPa 0,0 l/m² 13,0 km/h (3 Bft) S-SW 205 ° 2 min 796 W/m² 16,7 °C 28,5 °C 17,7 km/h (3 Bft)
27.06.2020 11:10 24,1 °C 29,1 °C 58 % 48 % 1010,1 hPa 0,0 l/m² 13,5 km/h (3 Bft) SW 217 ° 1 min 802 W/m² 16,9 °C 28,4 °C 17,7 km/h (3 Bft)
27.06.2020 11:11 24,1 °C 29,1 °C 58 % 48 % 1010,1 hPa 0,0 l/m² 11,2 km/h (2 Bft) SW 234 ° 1 min 809 W/m² 16,9 °C 28,6 °C 16,1 km/h (3 Bft)
27.06.2020 11:12 24,1 °C 29,1 °C 58 % 47 % 1010,1 hPa 0,0 l/m² 10,9 km/h (2 Bft) SW 217 ° 1 min 800 W/m² 16,6 °C 28,6 °C 16,1 km/h (3 Bft)
27.06.2020 11:13 24,1 °C 29,1 °C 59 % 49 % 1010,2 hPa 0,0 l/m² 13,5 km/h (3 Bft) S-SW 204 ° 1 min 810 W/m² 17,3 °C 28,4 °C 16,1 km/h (3 Bft)
27.06.2020 11:15 24,1 °C 29,2 °C 59 % 48 % 1010,1 hPa 0,0 l/m² 11,0 km/h (2 Bft) S-SW 198 ° 2 min 819 W/m² 17,0 °C 28,7 °C 16,1 km/h (3 Bft)
27.06.2020 11:17 24,1 °C 29,2 °C 59 % 49 % 1010,1 hPa 0,0 l/m² 15,3 km/h (3 Bft) S-SW 202 ° 2 min 817 W/m² 17,4 °C 28,4 °C 22,5 km/h (4 Bft)
27.06.2020 11:19 24,1 °C 29,3 °C 59 % 49 % 1010,2 hPa 0,0 l/m² 15,6 km/h (3 Bft) S-SW 197 ° 2 min 817 W/m² 17,5 °C 28,5 °C 19,3 km/h (3 Bft)
27.06.2020 11:20 24,1 °C 29,4 °C 59 % 49 % 1010,2 hPa 0,0 l/m² 13,2 km/h (3 Bft) SW 229 ° 1 min 817 W/m² 17,5 °C 28,8 °C 17,7 km/h (3 Bft)
27.06.2020 11:21 24,1 °C 29,4 °C 59 % 48 % 1010,2 hPa 0,0 l/m² 10,8 km/h (2 Bft) S-SW 213 ° 1 min 817 W/m² 17,2 °C 29,0 °C 14,5 km/h (3 Bft)
27.06.2020 11:22 24,1 °C 29,4 °C 59 % 49 % 1010,2 hPa 0,0 l/m² 12,2 km/h (2 Bft) SW 222 ° 1 min 819 W/m² 17,5 °C 28,8 °C 14,5 km/h (3 Bft)
27.06.2020 11:23 24,2 °C 29,4 °C 59 % 50 % 1010,3 hPa 0,0 l/m² 14,5 km/h (3 Bft) W-SW 257 ° 1 min 821 W/m² 17,9 °C 28,7 °C 22,5 km/h (4 Bft)
27.06.2020 11:25 24,1 °C 29,5 °C 59 % 48 % 1010,3 hPa 0,0 l/m² 15,7 km/h (3 Bft) S-SW 211 ° 2 min 824 W/m² 17,3 °C 28,7 °C 22,5 km/h (4 Bft)
27.06.2020 11:27 24,2 °C 29,4 °C 59 % 48 % 1010,3 hPa 0,0 l/m² 16,1 km/h (3 Bft) SW 224 ° 2 min 830 W/m² 17,2 °C 28,6 °C 20,9 km/h (4 Bft)
27.06.2020 11:29 24,2 °C 29,5 °C 59 % 47 % 1010,4 hPa 0,0 l/m² 15,2 km/h (3 Bft) S-SW 211 ° 2 min 833 W/m² 17,0 °C 28,7 °C 20,9 km/h (4 Bft)
27.06.2020 11:30 24,1 °C 29,4 °C 59 % 47 % 1010,4 hPa 0,0 l/m² 16,6 km/h (3 Bft) S-SW 201 ° 1 min 830 W/m² 16,9 °C 28,5 °C 22,5 km/h (4 Bft)
27.06.2020 11:31 24,1 °C 29,4 °C 59 % 48 % 1010,4 hPa 0,0 l/m² 17,2 km/h (3 Bft) S-SW 200 ° 1 min 837 W/m² 17,2 °C 28,5 °C 22,5 km/h (4 Bft)
27.06.2020 11:32 24,2 °C 29,6 °C 59 % 49 % 1010,3 hPa 0,0 l/m² 19,2 km/h (3 Bft) SW 227 ° 1 min 840 W/m² 17,7 °C 28,6 °C 33,8 km/h (5 Bft)
27.06.2020 11:33 24,1 °C 29,6 °C 59 % 49 % 1010,5 hPa 0,0 l/m² 24,5 km/h (4 Bft) SW 228 ° 1 min 840 W/m² 17,7 °C 28,4 °C 30,6 km/h (5 Bft)
27.06.2020 11:35 24,2 °C 29,4 °C 59 % 50 % 1010,5 hPa 0,0 l/m² 19,7 km/h (3 Bft) SW 215 ° 2 min 844 W/m² 17,9 °C 28,4 °C 27,4 km/h (5 Bft)
27.06.2020 11:37 24,1 °C 29,2 °C 59 % 49 % 1010,5 hPa 0,0 l/m² 18,9 km/h (3 Bft) SW 224 ° 2 min 849 W/m² 17,4 °C 28,2 °C 30,6 km/h (5 Bft)
27.06.2020 11:39 24,1 °C 29,2 °C 59 % 50 % 1010,4 hPa 0,0 l/m² 16,0 km/h (3 Bft) SW 217 ° 2 min 858 W/m² 17,7 °C 28,3 °C 22,5 km/h (4 Bft)
27.06.2020 11:40 24,1 °C 29,2 °C 59 % 49 % 1010,4 hPa 0,0 l/m² 19,5 km/h (3 Bft) W-SW 240 ° 1 min 851 W/m² 17,4 °C 28,1 °C 27,4 km/h (5 Bft)
27.06.2020 11:41 24,1 °C 29,1 °C 59 % 50 % 1010,4 hPa 0,0 l/m² 17,1 km/h (3 Bft) W-SW 239 ° 1 min 847 W/m² 17,6 °C 28,1 °C 24,1 km/h (4 Bft)
27.06.2020 11:42 24,2 °C 29,0 °C 59 % 50 % 1010,5 hPa 0,0 l/m² 17,5 km/h (3 Bft) SW 233 ° 1 min 893 W/m² 17,5 °C 28,0 °C 20,9 km/h (4 Bft)
27.06.2020 11:43 24,1 °C 28,9 °C 59 % 50 % 1010,5 hPa 0,0 l/m² 17,6 km/h (3 Bft) W-SW 240 ° 1 min 907 W/m² 17,4 °C 27,9 °C 22,5 km/h (4 Bft)
27.06.2020 11:45 24,1 °C 28,9 °C 59 % 50 % 1010,4 hPa 0,0 l/m² 16,5 km/h (3 Bft) SW 230 ° 2 min 907 W/m² 17,4 °C 27,9 °C 24,1 km/h (4 Bft)
27.06.2020 11:47 24,1 °C 29,0 °C 59 % 50 % 1010,5 hPa 0,0 l/m² 18,0 km/h (3 Bft) SW 227 ° 2 min 905 W/m² 17,5 °C 28,0 °C 25,7 km/h (4 Bft)
27.06.2020 11:49 24,1 °C 29,0 °C 59 % 49 % 1010,4 hPa 0,0 l/m² 18,0 km/h (3 Bft) SW 218 ° 2 min 893 W/m² 17,2 °C 28,0 °C 24,1 km/h (4 Bft)
27.06.2020 11:50 24,1 °C 29,1 °C 59 % 50 % 1010,4 hPa 0,0 l/m² 13,4 km/h (3 Bft) SW 219 ° 1 min 904 W/m² 17,6 °C 28,4 °C 16,1 km/h (3 Bft)
27.06.2020 11:51 24,1 °C 29,2 °C 59 % 49 % 1010,4 hPa 0,0 l/m² 13,0 km/h (3 Bft) S 182 ° 1 min 919 W/m² 17,4 °C 28,5 °C 17,7 km/h (3 Bft)
27.06.2020 11:52 24,1 °C 29,2 °C 59 % 50 % 1010,4 hPa 0,0 l/m² 16,7 km/h (3 Bft) SW 234 ° 1 min 911 W/m² 17,7 °C 28,3 °C 24,1 km/h (4 Bft)
27.06.2020 11:53 24,1 °C 29,1 °C 59 % 50 % 1010,4 hPa 0,0 l/m² 15,8 km/h (3 Bft) W-SW 244 ° 1 min 911 W/m² 17,6 °C 28,2 °C 20,9 km/h (4 Bft)
27.06.2020 11:55 24,1 °C 28,9 °C 59 % 49 % 1010,5 hPa 0,0 l/m² 17,5 km/h (3 Bft) W-SW 246 ° 2 min 508 W/m² 17,1 °C 27,9 °C 24,1 km/h (4 Bft)
27.06.2020 11:57 24,1 °C 28,6 °C 59 % 52 % 1010,4 hPa 0,0 l/m² 13,1 km/h (3 Bft) SW 227 ° 2 min 418 W/m² 17,8 °C 27,8 °C 17,7 km/h (3 Bft)
27.06.2020 11:59 24,1 °C 28,6 °C 59 % 51 % 1010,4 hPa 0,0 l/m² 15,8 km/h (3 Bft) W-NW 283 ° 2 min 870 W/m² 17,4 °C 27,6 °C 20,9 km/h (4 Bft)
27.06.2020 12:00 24,1 °C 28,5 °C 59 % 51 % 1010,4 hPa 0,0 l/m² 14,1 km/h (3 Bft) W 265 ° 1 min 886 W/m² 17,4 °C 27,6 °C 22,5 km/h (4 Bft)
27.06.2020 12:01 24,1 °C 28,3 °C 59 % 51 % 1010,4 hPa 0,0 l/m² 19,7 km/h (3 Bft) SW 219 ° 1 min 904 W/m² 17,2 °C 26,9 °C 25,7 km/h (4 Bft)
27.06.2020 12:02 24,1 °C 28,4 °C 59 % 52 % 1010,4 hPa 0,0 l/m² 15,4 km/h (3 Bft) SW 214 ° 1 min 895 W/m² 17,6 °C 27,4 °C 20,9 km/h (4 Bft)
27.06.2020 12:03 24,1 °C 28,7 °C 59 % 51 % 1010,4 hPa 0,0 l/m² 15,9 km/h (3 Bft) SW 230 ° 1 min 891 W/m² 17,5 °C 27,7 °C 20,9 km/h (4 Bft)
27.06.2020 12:05 24,1 °C 29,1 °C 59 % 50 % 1010,4 hPa 0,0 l/m² 15,9 km/h (3 Bft) SW 226 ° 2 min 809 W/m² 17,6 °C 28,2 °C 22,5 km/h (4 Bft)
27.06.2020 12:07 24,1 °C 29,2 °C 59 % 48 % 1010,5 hPa 0,0 l/m² 16,7 km/h (3 Bft) W-SW 239 ° 2 min 874 W/m² 17,0 °C 28,3 °C 24,1 km/h (4 Bft)
27.06.2020 12:09 24,1 °C 29,2 °C 59 % 49 % 1010,4 hPa 0,0 l/m² 12,6 km/h (3 Bft) SW 228 ° 2 min 928 W/m² 17,4 °C 28,6 °C 19,3 km/h (3 Bft)
27.06.2020 12:10 24,1 °C 29,3 °C 59 % 49 % 1010,5 hPa 0,0 l/m² 17,0 km/h (3 Bft) S-SW 211 ° 1 min 928 W/m² 17,5 °C 28,4 °C 22,5 km/h (4 Bft)
27.06.2020 12:11 24,1 °C 29,4 °C 59 % 49 % 1010,5 hPa 0,0 l/m² 14,7 km/h (3 Bft) SW 221 ° 1 min 930 W/m² 17,5 °C 28,7 °C 16,1 km/h (3 Bft)
27.06.2020 12:12 24,1 °C 29,6 °C 59 % 48 % 1010,4 hPa 0,0 l/m² 17,6 km/h (3 Bft) S-SW 207 ° 1 min 919 W/m² 17,4 °C 28,7 °C 25,7 km/h (4 Bft)
27.06.2020 12:13 24,1 °C 29,6 °C 59 % 47 % 1010,4 hPa 0,0 l/m² 20,7 km/h (4 Bft) SW 217 ° 1 min 925 W/m² 17,1 °C 28,6 °C 24,1 km/h (4 Bft)
27.06.2020 12:15 24,1 °C 29,7 °C 59 % 48 % 1010,4 hPa 0,0 l/m² 14,7 km/h (3 Bft) S-SW 200 ° 2 min 928 W/m² 17,5 °C 29,0 °C 20,9 km/h (4 Bft)
27.06.2020 12:17 24,1 °C 29,9 °C 59 % 47 % 1010,4 hPa 0,0 l/m² 18,2 km/h (3 Bft) SW 219 ° 2 min 916 W/m² 17,3 °C 29,1 °C 27,4 km/h (5 Bft)
27.06.2020 12:19 24,1 °C 29,6 °C 60 % 48 % 1010,3 hPa 0,0 l/m² 15,7 km/h (3 Bft) SW 232 ° 2 min 884 W/m² 17,4 °C 28,8 °C 22,5 km/h (4 Bft)
27.06.2020 12:21 24,1 °C 29,4 °C 60 % 48 % 1010,3 hPa 0,0 l/m² 13,1 km/h (3 Bft) SW 226 ° 2 min 875 W/m² 17,2 °C 28,8 °C 17,7 km/h (3 Bft)
27.06.2020 12:22 24,1 °C 29,3 °C 60 % 47 % 1010,3 hPa 0,0 l/m² 14,6 km/h (3 Bft) SW 214 ° 1 min 867 W/m² 16,8 °C 28,5 °C 19,3 km/h (3 Bft)
27.06.2020 12:23 24,1 °C 29,3 °C 60 % 47 % 1010,3 hPa 0,0 l/m² 18,2 km/h (3 Bft) S-SW 196 ° 1 min 856 W/m² 16,8 °C 28,3 °C 20,9 km/h (4 Bft)
27.06.2020 12:25 24,1 °C 29,4 °C 60 % 47 % 1010,3 hPa 0,0 l/m² 15,8 km/h (3 Bft) W-SW 238 ° 2 min 821 W/m² 16,9 °C 28,6 °C 20,9 km/h (4 Bft)
27.06.2020 12:27 24,1 °C 29,6 °C 60 % 49 % 1010,3 hPa 0,0 l/m² 10,4 km/h (2 Bft) S-SW 211 ° 2 min 881 W/m² 17,7 °C 29,2 °C 14,5 km/h (3 Bft)
27.06.2020 12:29 24,1 °C 29,4 °C 60 % 48 % 1010,3 hPa 0,0 l/m² 8,9 km/h (2 Bft) SW 227 ° 2 min 877 W/m² 17,2 °C 29,1 °C 14,5 km/h (3 Bft)
27.06.2020 12:31 24,1 °C 29,6 °C 60 % 48 % 1010,3 hPa 0,0 l/m² 14,7 km/h (3 Bft) W-SW 251 ° 2 min 881 W/m² 17,4 °C 28,9 °C 22,5 km/h (4 Bft)
27.06.2020 12:32 24,1 °C 29,5 °C 60 % 46 % 1010,2 hPa 0,0 l/m² 15,3 km/h (3 Bft) SW 225 ° 1 min 884 W/m² 16,6 °C 28,7 °C 19,3 km/h (3 Bft)
27.06.2020 12:33 24,1 °C 29,4 °C 60 % 48 % 1010,2 hPa 0,0 l/m² 13,5 km/h (3 Bft) SW 223 ° 1 min 896 W/m² 17,2 °C 28,7 °C 20,9 km/h (4 Bft)
27.06.2020 12:35 24,2 °C 29,6 °C 60 % 48 % 1010,2 hPa 0,0 l/m² 14,0 km/h (3 Bft) W-SW 243 ° 2 min 905 W/m² 17,4 °C 28,9 °C 20,9 km/h (4 Bft)
27.06.2020 12:37 24,2 °C 29,8 °C 60 % 49 % 1010,1 hPa 0,0 l/m² 11,6 km/h (2 Bft) SW 219 ° 2 min 895 W/m² 17,9 °C 29,3 °C 16,1 km/h (3 Bft)
27.06.2020 12:39 24,2 °C 29,9 °C 60 % 48 % 1010,1 hPa 0,0 l/m² 13,1 km/h (3 Bft) W-SW 244 ° 2 min 874 W/m² 17,7 °C 29,4 °C 19,3 km/h (3 Bft)
27.06.2020 12:41 24,2 °C 30,0 °C 61 % 47 % 1010,1 hPa 0,0 l/m² 13,0 km/h (3 Bft) SW 216 ° 2 min 896 W/m² 17,4 °C 29,5 °C 17,7 km/h (3 Bft)
27.06.2020 12:42 24,2 °C 30,1 °C 61 % 46 % 1010,1 hPa 0,0 l/m² 12,3 km/h (2 Bft) SW 224 ° 1 min 884 W/m² 17,2 °C 29,6 °C 17,7 km/h (3 Bft)
27.06.2020 12:43 24,2 °C 30,0 °C 61 % 47 % 1010,1 hPa 0,0 l/m² 12,6 km/h (3 Bft) SW 215 ° 1 min 868 W/m² 17,4 °C 29,5 °C 16,1 km/h (3 Bft)
27.06.2020 12:45 24,3 °C 30,2 °C 61 % 48 % 1010,0 hPa 0,0 l/m² 10,8 km/h (2 Bft) SW 229 ° 2 min 898 W/m² 17,9 °C 29,9 °C 20,9 km/h (4 Bft)
27.06.2020 12:46 24,3 °C 30,2 °C 61 % 48 % 1010,0 hPa 0,0 l/m² 19,1 km/h (3 Bft) SW 223 ° 1 min 904 W/m² 17,9 °C 29,4 °C 22,5 km/h (4 Bft)
27.06.2020 12:48 24,3 °C 30,4 °C 61 % 46 % 1010,1 hPa 0,0 l/m² 15,7 km/h (3 Bft) W-SW 241 ° 2 min 905 W/m² 17,5 °C 29,8 °C 19,3 km/h (3 Bft)
27.06.2020 12:50 24,3 °C 30,0 °C 61 % 48 % 1010,0 hPa 0,0 l/m² 11,2 km/h (2 Bft) SW 218 ° 2 min 902 W/m² 17,8 °C 29,6 °C 19,3 km/h (3 Bft)
27.06.2020 12:52 24,3 °C 29,8 °C 62 % 47 % 1009,9 hPa 0,0 l/m² 12,6 km/h (3 Bft) SW 229 ° 2 min 951 W/m² 17,2 °C 29,3 °C 22,5 km/h (4 Bft)
27.06.2020 12:53 24,3 °C 29,8 °C 62 % 47 % 1009,9 hPa 0,0 l/m² 14,7 km/h (3 Bft) W-SW 257 ° 1 min 520 W/m² 17,2 °C 29,1 °C 19,3 km/h (3 Bft)
27.06.2020 12:55 24,3 °C 29,5 °C 62 % 48 % 1009,9 hPa 0,0 l/m² 14,8 km/h (3 Bft) SW 215 ° 2 min 788 W/m² 17,3 °C 28,8 °C 24,1 km/h (4 Bft)
27.06.2020 12:57 24,3 °C 29,8 °C 62 % 47 % 1009,8 hPa 0,0 l/m² 12,9 km/h (3 Bft) S-SW 206 ° 2 min 1032 W/m² 17,2 °C 29,3 °C 17,7 km/h (3 Bft)
27.06.2020 12:59 24,3 °C 30,0 °C 62 % 48 % 1009,9 hPa 0,0 l/m² 11,3 km/h (2 Bft) W-SW 244 ° 2 min 1046 W/m² 17,8 °C 29,6 °C 19,3 km/h (3 Bft)
27.06.2020 13:01 24,4 °C 29,8 °C 62 % 47 % 1009,9 hPa 0,0 l/m² 11,4 km/h (2 Bft) W-SW 247 ° 2 min 1046 W/m² 17,2 °C 29,4 °C 17,7 km/h (3 Bft)
27.06.2020 13:02 24,4 °C 29,7 °C 62 % 48 % 1009,9 hPa 0,0 l/m² 13,9 km/h (3 Bft) W-SW 245 ° 1 min 408 W/m² 17,5 °C 29,1 °C 17,7 km/h (3 Bft)
27.06.2020 13:04 24,4 °C 29,3 °C 62 % 48 % 1009,9 hPa 0,0 l/m² 16,6 km/h (3 Bft) SW 222 ° 2 min 346 W/m² 17,1 °C 28,4 °C 20,9 km/h (4 Bft)
27.06.2020 13:06 24,4 °C 29,2 °C 62 % 48 % 1009,9 hPa 0,0 l/m² 15,0 km/h (3 Bft) SW 231 ° 2 min 374 W/m² 17,0 °C 28,4 °C 20,9 km/h (4 Bft)
27.06.2020 13:08 24,4 °C 29,6 °C 62 % 48 % 1009,9 hPa 0,0 l/m² 14,1 km/h (3 Bft) W-SW 238 ° 2 min 977 W/m² 17,4 °C 28,9 °C 20,9 km/h (4 Bft)
27.06.2020 13:10 24,4 °C 30,0 °C 61 % 46 % 1009,9 hPa 0,0 l/m² 10,0 km/h (2 Bft) S-SW 211 ° 2 min 997 W/m² 17,1 °C 29,7 °C 14,5 km/h (3 Bft)
27.06.2020 13:12 24,4 °C 30,4 °C 61 % 46 % 1009,8 hPa 0,0 l/m² 12,3 km/h (2 Bft) W-SW 252 ° 2 min 974 W/m² 17,5 °C 30,0 °C 19,3 km/h (3 Bft)
27.06.2020 13:13 24,4 °C 30,4 °C 61 % 46 % 1009,8 hPa 0,0 l/m² 13,4 km/h (3 Bft) W-SW 252 ° 1 min 1011 W/m² 17,5 °C 29,9 °C 19,3 km/h (3 Bft)
27.06.2020 13:15 24,4 °C 30,3 °C 61 % 45 % 1009,8 hPa 0,0 l/m² 11,9 km/h (2 Bft) SW 232 ° 2 min 947 W/m² 17,0 °C 29,9 °C 19,3 km/h (3 Bft)
27.06.2020 13:17 24,4 °C 30,4 °C 61 % 46 % 1009,8 hPa 0,0 l/m² 15,9 km/h (3 Bft) W-SW 244 ° 2 min 947 W/m² 17,5 °C 29,8 °C 22,5 km/h (4 Bft)
27.06.2020 13:19 24,5 °C 30,1 °C 61 % 46 % 1009,7 hPa 0,0 l/m² 15,2 km/h (3 Bft) W-SW 247 ° 2 min 947 W/m² 17,2 °C 29,5 °C 24,1 km/h (4 Bft)
27.06.2020 13:21 24,5 °C 29,6 °C 61 % 47 % 1009,8 hPa 0,0 l/m² 14,8 km/h (3 Bft) SW 234 ° 2 min 366 W/m² 17,1 °C 28,9 °C 19,3 km/h (3 Bft)
27.06.2020 13:22 24,5 °C 29,3 °C 61 % 47 % 1009,8 hPa 0,0 l/m² 13,4 km/h (3 Bft) SW 228 ° 1 min 399 W/m² 16,8 °C 28,6 °C 17,7 km/h (3 Bft)
27.06.2020 13:24 24,5 °C 29,3 °C 61 % 47 % 1009,8 hPa 0,0 l/m² 13,8 km/h (3 Bft) W-SW 245 ° 2 min 450 W/m² 16,8 °C 28,6 °C 19,3 km/h (3 Bft)
27.06.2020 13:26 24,6 °C 29,4 °C 61 % 48 % 1009,8 hPa 0,0 l/m² 11,4 km/h (2 Bft) SW 236 ° 2 min 443 W/m² 17,2 °C 28,9 °C 16,1 km/h (3 Bft)
27.06.2020 13:28 24,5 °C 29,7 °C 61 % 48 % 1009,8 hPa 0,0 l/m² 13,5 km/h (3 Bft) SW 231 ° 2 min 443 W/m² 17,5 °C 29,1 °C 19,3 km/h (3 Bft)
27.06.2020 13:30 24,6 °C 29,9 °C 61 % 45 % 1009,8 hPa 0,0 l/m² 18,4 km/h (3 Bft) S 184 ° 2 min 362 W/m² 16,7 °C 29,1 °C 25,7 km/h (4 Bft)
27.06.2020 13:32 24,5 °C 29,7 °C 61 % 46 % 1009,9 hPa 0,0 l/m² 18,8 km/h (3 Bft) S-SW 208 ° 2 min 290 W/m² 16,8 °C 28,8 °C 25,7 km/h (4 Bft)
27.06.2020 13:33 24,5 °C 29,5 °C 61 % 46 % 1009,9 hPa 0,0 l/m² 19,5 km/h (3 Bft) S-SW 193 ° 1 min 279 W/m² 16,6 °C 28,5 °C 24,1 km/h (4 Bft)
27.06.2020 13:35 24,5 °C 29,0 °C 61 % 47 % 1010,0 hPa 0,0 l/m² 17,2 km/h (3 Bft) S-SW 212 ° 2 min 290 W/m² 16,5 °C 28,0 °C 24,1 km/h (4 Bft)
27.06.2020 13:37 24,5 °C 28,7 °C 61 % 48 % 1010,0 hPa 0,0 l/m² 18,3 km/h (3 Bft) S-SW 202 ° 2 min 420 W/m² 16,6 °C 27,6 °C 24,1 km/h (4 Bft)
27.06.2020 13:39 24,5 °C 28,7 °C 61 % 49 % 1010,0 hPa 0,0 l/m² 14,9 km/h (3 Bft) SW 221 ° 2 min 371 W/m² 16,9 °C 27,8 °C 20,9 km/h (4 Bft)
27.06.2020 13:41 24,5 °C 28,7 °C 61 % 48 % 1010,1 hPa 0,0 l/m² 15,5 km/h (3 Bft) S 190 ° 2 min 450 W/m² 16,6 °C 27,8 °C 20,9 km/h (4 Bft)
27.06.2020 13:42 24,5 °C 28,8 °C 61 % 48 % 1010,1 hPa 0,0 l/m² 18,2 km/h (3 Bft) S-SW 198 ° 1 min 450 W/m² 16,7 °C 27,7 °C 24,1 km/h (4 Bft)
27.06.2020 13:43 24,5 °C 28,9 °C 61 % 49 % 1010,1 hPa 0,0 l/m² 15,0 km/h (3 Bft) SW 221 ° 1 min 1021 W/m² 17,1 °C 28,0 °C 20,9 km/h (4 Bft)
27.06.2020 13:45 24,4 °C 29,4 °C 61 % 47 % 1010,1 hPa 0,0 l/m² 16,3 km/h (3 Bft) SW 218 ° 2 min 993 W/m² 16,9 °C 28,6 °C 20,9 km/h (4 Bft)
27.06.2020 13:47 24,4 °C 29,9 °C 61 % 47 % 1010,0 hPa 0,0 l/m² 15,7 km/h (3 Bft) S 173 ° 2 min 1009 W/m² 17,3 °C 29,2 °C 20,9 km/h (4 Bft)
27.06.2020 13:49 24,4 °C 30,3 °C 61 % 46 % 1010,0 hPa 0,0 l/m² 18,0 km/h (3 Bft) W-SW 239 ° 2 min 1065 W/m² 17,4 °C 29,6 °C 27,4 km/h (5 Bft)
27.06.2020 13:51 24,4 °C 30,4 °C 61 % 45 % 1010,1 hPa 0,0 l/m² 14,8 km/h (3 Bft) SW 220 ° 2 min 1060 W/m² 17,1 °C 29,9 °C 19,3 km/h (3 Bft)
27.06.2020 13:52 24,4 °C 30,4 °C 61 % 45 % 1009,9 hPa 0,0 l/m² 12,3 km/h (2 Bft) SW 234 ° 1 min 1044 W/m² 17,1 °C 30,0 °C 16,1 km/h (3 Bft)
27.06.2020 13:53 24,4 °C 30,6 °C 61 % 46 % 1009,9 hPa 0,0 l/m² 14,5 km/h (3 Bft) S-SW 207 ° 1 min 891 W/m² 17,6 °C 30,1 °C 19,3 km/h (3 Bft)
27.06.2020 13:55 24,4 °C 30,7 °C 61 % 46 % 1010,1 hPa 0,0 l/m² 17,7 km/h (3 Bft) S 178 ° 2 min 452 W/m² 17,7 °C 30,1 °C 24,1 km/h (4 Bft)
27.06.2020 13:57 24,4 °C 30,5 °C 61 % 46 % 1010,0 hPa 0,0 l/m² 19,9 km/h (4 Bft) S-SW 192 ° 2 min 552 W/m² 17,5 °C 29,8 °C 25,7 km/h (4 Bft)
27.06.2020 13:59 24,4 °C 30,3 °C 61 % 47 % 1010,0 hPa 0,0 l/m² 17,0 km/h (3 Bft) SW 234 ° 2 min 559 W/m² 17,7 °C 29,6 °C 24,1 km/h (4 Bft)
27.06.2020 14:01 24,4 °C 30,2 °C 61 % 47 % 1009,9 hPa 0,0 l/m² 13,5 km/h (3 Bft) S-SW 213 ° 2 min 925 W/m² 17,6 °C 29,7 °C 22,5 km/h (4 Bft)
27.06.2020 14:02 24,4 °C 30,2 °C 61 % 47 % 1009,9 hPa 0,0 l/m² 9,9 km/h (2 Bft) SW 236 ° 1 min 914 W/m² 17,6 °C 29,9 °C 14,5 km/h (3 Bft)
27.06.2020 14:03 24,4 °C 30,3 °C 61 % 46 % 1009,9 hPa 0,0 l/m² 18,4 km/h (3 Bft) S 185 ° 1 min 905 W/m² 17,4 °C 29,6 °C 24,1 km/h (4 Bft)
27.06.2020 14:05 24,4 °C 30,6 °C 61 % 45 % 1010,0 hPa 0,0 l/m² 16,6 km/h (3 Bft) NW 309 ° 2 min 853 W/m² 17,3 °C 30,0 °C 27,4 km/h (5 Bft)
27.06.2020 14:07 24,4 °C 30,1 °C 61 % 46 % 1010,0 hPa 0,0 l/m² 12,9 km/h (3 Bft) W 269 ° 2 min 925 W/m² 17,2 °C 29,6 °C 19,3 km/h (3 Bft)
27.06.2020 14:09 24,4 °C 29,9 °C 61 % 48 % 1009,9 hPa 0,0 l/m² 9,9 km/h (2 Bft) SW 219 ° 2 min 935 W/m² 17,7 °C 29,6 °C 19,3 km/h (3 Bft)
27.06.2020 14:11 24,4 °C 30,4 °C 61 % 46 % 1009,8 hPa 0,0 l/m² 9,8 km/h (2 Bft) SW 226 ° 2 min 909 W/m² 17,5 °C 30,1 °C 17,7 km/h (3 Bft)
27.06.2020 14:12 24,4 °C 30,4 °C 61 % 47 % 1009,8 hPa 0,0 l/m² 11,9 km/h (2 Bft) SW 223 ° 1 min 889 W/m² 17,8 °C 30,0 °C 16,1 km/h (3 Bft)
27.06.2020 14:13 24,4 °C 30,6 °C 61 % 46 % 1009,8 hPa 0,0 l/m² 19,3 km/h (3 Bft) SW 225 ° 1 min 882 W/m² 17,6 °C 29,9 °C 22,5 km/h (4 Bft)
27.06.2020 14:15 24,4 °C 30,4 °C 61 % 48 % 1009,8 hPa 0,0 l/m² 11,9 km/h (2 Bft) S-SW 194 ° 2 min 888 W/m² 18,1 °C 30,0 °C 19,3 km/h (3 Bft)
27.06.2020 14:17 24,4 °C 30,7 °C 60 % 45 % 1009,8 hPa 0,0 l/m² 13,5 km/h (3 Bft) SW 229 ° 2 min 893 W/m² 17,4 °C 30,3 °C 20,9 km/h (4 Bft)
27.06.2020 14:19 24,4 °C 30,6 °C 60 % 44 % 1009,8 hPa 0,0 l/m² 16,2 km/h (3 Bft) W-SW 252 ° 2 min 889 W/m² 16,9 °C 30,0 °C 20,9 km/h (4 Bft)
27.06.2020 14:21 24,4 °C 30,3 °C 60 % 46 % 1009,8 hPa 0,0 l/m² 16,9 km/h (3 Bft) S 183 ° 2 min 900 W/m² 17,4 °C 29,6 °C 24,1 km/h (4 Bft)
27.06.2020 14:22 24,4 °C 30,5 °C 60 % 46 % 1009,8 hPa 0,0 l/m² 6,4 km/h (2 Bft) S-SW 210 ° 1 min 837 W/m² 17,5 °C 30,5 °C 14,5 km/h (3 Bft)
27.06.2020 14:24 24,4 °C 30,7 °C 60 % 46 % 1009,7 hPa 0,0 l/m² 11,7 km/h (2 Bft) SW 221 ° 2 min 907 W/m² 17,7 °C 30,4 °C 20,9 km/h (4 Bft)
27.06.2020 14:26 24,4 °C 30,9 °C 60 % 45 % 1009,8 hPa 0,0 l/m² 16,2 km/h (3 Bft) S-SW 195 ° 2 min 893 W/m² 17,6 °C 30,4 °C 27,4 km/h (5 Bft)
27.06.2020 14:28 24,4 °C 31,1 °C 60 % 44 % 1009,7 hPa 0,0 l/m² 17,9 km/h (3 Bft) S-SW 208 ° 2 min 879 W/m² 17,4 °C 30,6 °C 25,7 km/h (4 Bft)
27.06.2020 14:30 24,4 °C 31,3 °C 60 % 44 % 1009,6 hPa 0,0 l/m² 12,9 km/h (3 Bft) SW 226 ° 2 min 875 W/m² 17,6 °C 31,0 °C 17,7 km/h (3 Bft)
27.06.2020 14:32 24,4 °C 31,6 °C 60 % 44 % 1009,5 hPa 0,0 l/m² 12,0 km/h (2 Bft) S-SW 210 ° 2 min 882 W/m² 17,8 °C 31,4 °C 17,7 km/h (3 Bft)
27.06.2020 14:33 24,4 °C 31,5 °C 60 % 43 % 1009,5 hPa 0,0 l/m² 11,8 km/h (2 Bft) SW 225 ° 1 min 169 W/m² 17,4 °C 31,3 °C 19,3 km/h (3 Bft)
27.06.2020 14:35 24,4 °C 31,3 °C 60 % 44 % 1009,5 hPa 0,0 l/m² 9,5 km/h (2 Bft) W 261 ° 2 min 932 W/m² 17,6 °C 31,1 °C 14,5 km/h (3 Bft)
27.06.2020 14:37 24,5 °C 30,8 °C 60 % 44 % 1009,5 hPa 0,0 l/m² 14,6 km/h (3 Bft) W-SW 252 ° 2 min 225 W/m² 17,1 °C 30,4 °C 24,1 km/h (4 Bft)
27.06.2020 14:39 24,5 °C 30,4 °C 60 % 46 % 1009,5 hPa 0,0 l/m² 13,9 km/h (3 Bft) W-NW 284 ° 2 min 979 W/m² 17,5 °C 29,9 °C 20,9 km/h (4 Bft)
27.06.2020 14:41 24,5 °C 30,8 °C 60 % 47 % 1009,4 hPa 0,0 l/m² 17,9 km/h (3 Bft) W-SW 238 ° 2 min 979 W/m² 18,2 °C 30,2 °C 27,4 km/h (5 Bft)
27.06.2020 14:42 24,5 °C 31,1 °C 60 % 45 % 1009,4 hPa 0,0 l/m² 20,7 km/h (4 Bft) S-SW 213 ° 1 min 986 W/m² 17,7 °C 30,5 °C 25,7 km/h (4 Bft)
27.06.2020 14:43 24,5 °C 31,3 °C 60 % 44 % 1009,4 hPa 0,0 l/m² 16,8 km/h (3 Bft) SW 219 ° 1 min 1007 W/m² 17,6 °C 30,9 °C 20,9 km/h (4 Bft)
27.06.2020 14:45 24,6 °C 31,4 °C 60 % 44 % 1009,4 hPa 0,0 l/m² 21,3 km/h (4 Bft) W-SW 250 ° 2 min 494 W/m² 17,6 °C 30,9 °C 29,0 km/h (5 Bft)
27.06.2020 14:47 24,6 °C 31,2 °C 60 % 43 % 1009,5 hPa 0,0 l/m² 19,5 km/h (3 Bft) W-SW 242 ° 2 min 325 W/m² 17,1 °C 30,7 °C 25,7 km/h (4 Bft)
27.06.2020 14:49 24,6 °C 30,8 °C 60 % 44 % 1009,5 hPa 0,0 l/m² 19,5 km/h (3 Bft) SW 235 ° 2 min 364 W/m² 17,1 °C 30,2 °C 27,4 km/h (5 Bft)
27.06.2020 14:51 24,6 °C 30,6 °C 60 % 42 % 1009,5 hPa 0,0 l/m² 24,4 km/h (4 Bft) S-SW 213 ° 2 min 345 W/m² 16,2 °C 29,8 °C 38,6 km/h (6 Bft)
27.06.2020 14:52 24,6 °C 30,4 °C 60 % 43 % 1009,5 hPa 0,0 l/m² 22,6 km/h (4 Bft) SW 236 ° 1 min 322 W/m² 16,4 °C 29,6 °C 27,4 km/h (5 Bft)
27.06.2020 14:53 24,6 °C 30,3 °C 60 % 44 % 1009,5 hPa 0,0 l/m² 23,0 km/h (4 Bft) W-SW 252 ° 1 min 323 W/m² 16,7 °C 29,4 °C 27,4 km/h (5 Bft)
27.06.2020 14:55 24,6 °C 30,1 °C 60 % 45 % 1009,5 hPa 0,0 l/m² 19,8 km/h (3 Bft) SW 229 ° 2 min 332 W/m² 16,8 °C 29,3 °C 24,1 km/h (4 Bft)
27.06.2020 14:57 24,6 °C 30,7 °C 59 % 43 % 1009,7 hPa 0,0 l/m² 25,6 km/h (4 Bft) SW 229 ° 2 min 984 W/m² 16,7 °C 29,9 °C 40,2 km/h (6 Bft)
27.06.2020 14:59 24,6 °C 31,1 °C 59 % 42 % 1009,6 hPa 0,0 l/m² 26,9 km/h (4 Bft) W-SW 244 ° 2 min 984 W/m² 16,6 °C 30,4 °C 37,0 km/h (5 Bft)
27.06.2020 15:01 24,7 °C 31,1 °C 57 % 42 % 1009,6 hPa 0,0 l/m² 23,6 km/h (4 Bft) W-SW 252 ° 2 min 984 W/m² 16,6 °C 30,5 °C 32,2 km/h (5 Bft)
27.06.2020 15:02 24,7 °C 30,9 °C 57 % 42 % 1009,7 hPa 0,0 l/m² 27,2 km/h (5 Bft) SW 235 ° 1 min 984 W/m² 16,5 °C 30,1 °C 41,8 km/h (6 Bft)
27.06.2020 15:03 24,7 °C 30,8 °C 57 % 42 % 1009,7 hPa 0,0 l/m² 23,5 km/h (4 Bft) W-SW 240 ° 1 min 271 W/m² 16,4 °C 30,1 °C 30,6 km/h (5 Bft)
27.06.2020 15:06 24,8 °C 30,1 °C 56 % 42 % 1009,6 hPa 0,0 l/m² 23,6 km/h (4 Bft) SW 219 ° 3 min 244 W/m² 15,7 °C 29,1 °C 30,6 km/h (5 Bft)
27.06.2020 15:08 24,8 °C 29,8 °C 56 % 43 % 1009,6 hPa 0,0 l/m² 25,0 km/h (4 Bft) SW 215 ° 2 min 243 W/m² 15,8 °C 28,7 °C 37,0 km/h (5 Bft)
27.06.2020 15:10 24,8 °C 29,4 °C 56 % 45 % 1009,8 hPa 0,0 l/m² 26,0 km/h (4 Bft) SW 225 ° 2 min 258 W/m² 16,2 °C 28,1 °C 35,4 km/h (5 Bft)
27.06.2020 15:12 24,8 °C 29,2 °C 56 % 45 % 1009,7 hPa 0,0 l/m² 24,6 km/h (4 Bft) W-SW 249 ° 2 min 267 W/m² 16,0 °C 27,9 °C 30,6 km/h (5 Bft)
27.06.2020 15:13 24,8 °C 29,0 °C 56 % 46 % 1009,7 hPa 0,0 l/m² 19,5 km/h (3 Bft) W-SW 250 ° 1 min 269 W/m² 16,2 °C 27,9 °C 27,4 km/h (5 Bft)
27.06.2020 15:15 24,8 °C 28,9 °C 56 % 47 % 1009,7 hPa 0,0 l/m² 16,1 km/h (3 Bft) SW 228 ° 2 min 276 W/m² 16,4 °C 28,0 °C 22,5 km/h (4 Bft)
27.06.2020 15:17 24,8 °C 28,9 °C 56 % 47 % 1009,8 hPa 0,0 l/m² 16,2 km/h (3 Bft) SW 234 ° 2 min 287 W/m² 16,4 °C 27,9 °C 25,7 km/h (4 Bft)
27.06.2020 15:19 24,8 °C 29,0 °C 56 % 47 % 1009,6 hPa 0,0 l/m² 18,7 km/h (3 Bft) S-SW 209 ° 2 min 299 W/m² 16,5 °C 27,9 °C 29,0 km/h (5 Bft)
27.06.2020 15:21 24,9 °C 29,0 °C 56 % 47 % 1009,7 hPa 0,0 l/m² 21,6 km/h (4 Bft) SW 231 ° 2 min 374 W/m² 16,5 °C 27,7 °C 30,6 km/h (5 Bft)
27.06.2020 15:22 24,8 °C 29,1 °C 56 % 47 % 1009,7 hPa 0,0 l/m² 17,4 km/h (3 Bft) W-SW 240 ° 1 min 374 W/m² 16,6 °C 28,1 °C 20,9 km/h (4 Bft)
27.06.2020 15:23 24,8 °C 29,3 °C 56 % 48 % 1009,7 hPa 0,0 l/m² 18,1 km/h (3 Bft) W-SW 247 ° 1 min 374 W/m² 17,1 °C 28,3 °C 22,5 km/h (4 Bft)
27.06.2020 15:26 24,9 °C 30,2 °C 56 % 45 % 1009,5 hPa 0,0 l/m² 20,6 km/h (4 Bft) SW 234 ° 3 min 1028 W/m² 16,9 °C 29,4 °C 29,0 km/h (5 Bft)
27.06.2020 15:28 24,9 °C 30,9 °C 56 % 44 % 1009,5 hPa 0,0 l/m² 19,6 km/h (3 Bft) S-SW 208 ° 2 min 1009 W/m² 17,2 °C 30,3 °C 32,2 km/h (5 Bft)
27.06.2020 15:30 24,9 °C 31,3 °C 56 % 41 % 1009,4 hPa 0,0 l/m² 22,5 km/h (4 Bft) SW 227 ° 2 min 947 W/m² 16,4 °C 30,7 °C 37,0 km/h (5 Bft)
27.06.2020 15:32 24,9 °C 31,7 °C 56 % 41 % 1009,6 hPa 0,0 l/m² 24,0 km/h (4 Bft) SW 235 ° 2 min 837 W/m² 16,8 °C 31,3 °C 35,4 km/h (5 Bft)
27.06.2020 15:33 24,9 °C 31,8 °C 56 % 40 % 1009,6 hPa 0,0 l/m² 27,2 km/h (5 Bft) W 270 ° 1 min 838 W/m² 16,5 °C 31,3 °C 35,4 km/h (5 Bft)
27.06.2020 15:35 24,9 °C 31,5 °C 55 % 39 % 1009,6 hPa 0,0 l/m² 24,3 km/h (4 Bft) W-SW 258 ° 2 min 854 W/m² 15,8 °C 31,0 °C 32,2 km/h (5 Bft)
27.06.2020 15:37 25,0 °C 30,9 °C 55 % 40 % 1009,5 hPa 0,0 l/m² 26,2 km/h (4 Bft) W-SW 244 ° 2 min 223 W/m² 15,7 °C 30,1 °C 37,0 km/h (5 Bft)
27.06.2020 15:39 25,0 °C 30,3 °C 55 % 40 % 1009,5 hPa 0,0 l/m² 25,7 km/h (4 Bft) W-SW 241 ° 2 min 255 W/m² 15,2 °C 29,3 °C 33,8 km/h (5 Bft)
27.06.2020 15:41 25,0 °C 30,3 °C 54 % 42 % 1009,6 hPa 0,0 l/m² 24,0 km/h (4 Bft) W-SW 239 ° 2 min 911 W/m² 15,9 °C 29,4 °C 32,2 km/h (5 Bft)
27.06.2020 15:42 25,0 °C 30,6 °C 54 % 41 % 1009,4 hPa 0,0 l/m² 20,0 km/h (4 Bft) SW 236 ° 1 min 904 W/m² 15,8 °C 29,9 °C 27,4 km/h (5 Bft)
27.06.2020 15:43 25,0 °C 30,8 °C 54 % 42 % 1009,4 hPa 0,0 l/m² 16,5 km/h (3 Bft) W-SW 257 ° 1 min 877 W/m² 16,4 °C 30,3 °C 20,9 km/h (4 Bft)
27.06.2020 15:45 25,0 °C 31,3 °C 54 % 39 % 1009,4 hPa 0,0 l/m² 19,4 km/h (3 Bft) W 261 ° 2 min 853 W/m² 15,7 °C 30,8 °C 27,4 km/h (5 Bft)
27.06.2020 15:47 25,0 °C 31,7 °C 54 % 39 % 1009,3 hPa 0,0 l/m² 20,1 km/h (4 Bft) SW 227 ° 2 min 817 W/m² 16,0 °C 31,3 °C 25,7 km/h (4 Bft)
27.06.2020 15:49 25,1 °C 31,8 °C 54 % 37 % 1009,4 hPa 0,0 l/m² 27,7 km/h (5 Bft) W-SW 256 ° 2 min 772 W/m² 15,3 °C 31,3 °C 38,6 km/h (6 Bft)
27.06.2020 15:50 25,1 °C 31,8 °C 54 % 37 % 1009,3 hPa 0,0 l/m² 23,1 km/h (4 Bft) W-SW 250 ° 1 min 504 W/m² 15,3 °C 31,4 °C 35,4 km/h (5 Bft)
27.06.2020 15:51 25,1 °C 31,6 °C 54 % 36 % 1009,3 hPa 0,0 l/m² 27,2 km/h (5 Bft) SW 227 ° 1 min 504 W/m² 14,7 °C 31,1 °C 32,2 km/h (5 Bft)
27.06.2020 15:52 25,1 °C 31,4 °C 54 % 37 % 1009,3 hPa 0,0 l/m² 24,8 km/h (4 Bft) W-SW 255 ° 1 min 891 W/m² 14,9 °C 30,8 °C 32,2 km/h (5 Bft)
27.06.2020 15:54 25,1 °C 31,3 °C 53 % 37 % 1009,3 hPa 0,0 l/m² 28,0 km/h (5 Bft) W-SW 242 ° 2 min 875 W/m² 14,8 °C 30,6 °C 35,4 km/h (5 Bft)
27.06.2020 15:56 25,1 °C 31,3 °C 53 % 38 % 1009,4 hPa 0,0 l/m² 27,9 km/h (5 Bft) SW 228 ° 2 min 912 W/m² 15,3 °C 30,6 °C 37,0 km/h (5 Bft)
27.06.2020 15:58 25,1 °C 31,6 °C 53 % 37 % 1009,3 hPa 0,0 l/m² 22,2 km/h (4 Bft) SW 224 ° 2 min 865 W/m² 15,1 °C 31,1 °C 29,0 km/h (5 Bft)
27.06.2020 16:00 25,1 °C 31,8 °C 53 % 36 % 1009,4 hPa 0,0 l/m² 23,5 km/h (4 Bft) W-SW 257 ° 2 min 707 W/m² 14,9 °C 31,4 °C 35,4 km/h (5 Bft)
27.06.2020 16:02 25,1 °C 31,7 °C 54 % 38 % 1009,3 hPa 0,0 l/m² 27,2 km/h (5 Bft) SW 232 ° 2 min 937 W/m² 15,6 °C 31,2 °C 37,0 km/h (5 Bft)
27.06.2020 16:03 25,1 °C 31,7 °C 54 % 38 % 1009,3 hPa 0,0 l/m² 30,9 km/h (5 Bft) W-SW 238 ° 1 min 865 W/m² 15,6 °C 31,2 °C 37,0 km/h (5 Bft)
27.06.2020 16:05 25,1 °C 31,6 °C 54 % 37 % 1009,4 hPa 0,0 l/m² 30,3 km/h (5 Bft) W-SW 246 ° 2 min 788 W/m² 15,1 °C 31,0 °C 40,2 km/h (6 Bft)
27.06.2020 16:07 25,1 °C 31,3 °C 53 % 38 % 1009,4 hPa 0,0 l/m² 26,1 km/h (4 Bft) W-SW 238 ° 2 min 788 W/m² 15,3 °C 30,7 °C 33,8 km/h (5 Bft)
27.06.2020 16:09 25,1 °C 31,0 °C 53 % 39 % 1009,3 hPa 0,0 l/m² 24,7 km/h (4 Bft) SW 235 ° 2 min 599 W/m² 15,4 °C 30,3 °C 33,8 km/h (5 Bft)
27.06.2020 16:11 25,1 °C 30,9 °C 53 % 40 % 1009,4 hPa 0,0 l/m² 22,0 km/h (4 Bft) SW 221 ° 2 min 599 W/m² 15,7 °C 30,2 °C 29,0 km/h (5 Bft)
27.06.2020 16:12 25,1 °C 30,9 °C 52 % 40 % 1009,4 hPa 0,0 l/m² 20,8 km/h (4 Bft) W-SW 247 ° 1 min 599 W/m² 15,7 °C 30,3 °C 25,7 km/h (4 Bft)
27.06.2020 16:13 25,1 °C 30,9 °C 52 % 40 % 1009,4 hPa 0,0 l/m² 19,6 km/h (3 Bft) SW 229 ° 1 min 599 W/m² 15,7 °C 30,3 °C 25,7 km/h (4 Bft)
27.06.2020 16:15 25,1 °C 31,2 °C 52 % 40 % 1009,4 hPa 0,0 l/m² 24,3 km/h (4 Bft) SW 221 ° 2 min 911 W/m² 16,0 °C 30,6 °C 33,8 km/h (5 Bft)
27.06.2020 16:17 25,2 °C 31,3 °C 52 % 40 % 1009,4 hPa 0,0 l/m² 25,2 km/h (4 Bft) W-SW 257 ° 2 min 911 W/m² 16,1 °C 30,7 °C 35,4 km/h (5 Bft)
27.06.2020 16:19 25,1 °C 31,3 °C 52 % 39 % 1009,4 hPa 0,0 l/m² 24,1 km/h (4 Bft) SW 234 ° 2 min 534 W/m² 15,7 °C 30,7 °C 32,2 km/h (5 Bft)
27.06.2020 16:21 25,2 °C 31,3 °C 52 % 39 % 1009,4 hPa 0,0 l/m² 23,9 km/h (4 Bft) SW 225 ° 2 min 800 W/m² 15,7 °C 30,7 °C 32,2 km/h (5 Bft)
27.06.2020 16:22 25,2 °C 31,4 °C 52 % 40 % 1009,4 hPa 0,0 l/m² 28,1 km/h (5 Bft) SW 225 ° 1 min 800 W/m² 16,1 °C 30,8 °C 35,4 km/h (5 Bft)
27.06.2020 16:23 25,2 °C 31,3 °C 52 % 39 % 1009,4 hPa 0,0 l/m² 27,2 km/h (5 Bft) SW 227 ° 1 min 371 W/m² 15,7 °C 30,7 °C 32,2 km/h (5 Bft)
27.06.2020 16:26 25,2 °C 30,7 °C 52 % 40 % 1009,3 hPa 0,0 l/m² 29,4 km/h (5 Bft) SW 221 ° 3 min 406 W/m² 15,5 °C 29,8 °C 41,8 km/h (6 Bft)
27.06.2020 16:28 25,2 °C 30,4 °C 52 % 41 % 1009,4 hPa 0,0 l/m² 19,3 km/h (3 Bft) SW 226 ° 2 min 243 W/m² 15,6 °C 29,7 °C 29,0 km/h (5 Bft)
27.06.2020 16:30 25,2 °C 30,3 °C 51 % 42 % 1009,3 hPa 0,0 l/m² 17,8 km/h (3 Bft) SW 234 ° 2 min 332 W/m² 15,9 °C 29,6 °C 27,4 km/h (5 Bft)
27.06.2020 16:32 25,2 °C 30,8 °C 52 % 42 % 1009,4 hPa 0,0 l/m² 19,5 km/h (3 Bft) SW 227 ° 2 min 642 W/m² 16,4 °C 30,2 °C 32,2 km/h (5 Bft)
27.06.2020 16:33 25,2 °C 30,9 °C 52 % 42 % 1009,4 hPa 0,0 l/m² 23,4 km/h (4 Bft) W-SW 256 ° 1 min 603 W/m² 16,5 °C 30,2 °C 29,0 km/h (5 Bft)
27.06.2020 16:35 25,2 °C 30,9 °C 52 % 40 % 1009,4 hPa 0,0 l/m² 23,9 km/h (4 Bft) W-SW 240 ° 2 min 353 W/m² 15,7 °C 30,2 °C 32,2 km/h (5 Bft)
27.06.2020 16:37 25,2 °C 30,8 °C 52 % 40 % 1009,4 hPa 0,0 l/m² 25,7 km/h (4 Bft) W 267 ° 2 min 353 W/m² 15,6 °C 30,0 °C 40,2 km/h (6 Bft)
27.06.2020 16:39 25,2 °C 31,0 °C 52 % 40 % 1009,4 hPa 0,0 l/m² 23,0 km/h (4 Bft) SW 227 ° 2 min 779 W/m² 15,8 °C 30,3 °C 29,0 km/h (5 Bft)
27.06.2020 16:41 25,2 °C 31,3 °C 52 % 40 % 1009,3 hPa 0,0 l/m² 22,5 km/h (4 Bft) W-SW 244 ° 2 min 779 W/m² 16,1 °C 30,7 °C 33,8 km/h (5 Bft)
27.06.2020 16:42 25,2 °C 31,3 °C 52 % 40 % 1009,3 hPa 0,0 l/m² 22,5 km/h (4 Bft) W-SW 242 ° 1 min 779 W/m² 16,1 °C 30,7 °C 33,8 km/h (5 Bft)
27.06.2020 16:43 25,2 °C 31,2 °C 52 % 39 % 1009,3 hPa 0,0 l/m² 27,8 km/h (5 Bft) SW 229 ° 1 min 315 W/m² 15,6 °C 30,5 °C 37,0 km/h (5 Bft)
27.06.2020 16:46 25,2 °C 30,9 °C 52 % 40 % 1009,4 hPa 0,0 l/m² 24,7 km/h (4 Bft) SW 215 ° 3 min 680 W/m² 15,7 °C 30,2 °C 38,6 km/h (6 Bft)
27.06.2020 16:48 25,2 °C 31,0 °C 52 % 39 % 1009,4 hPa 0,0 l/m² 27,4 km/h (5 Bft) SW 223 ° 2 min 638 W/m² 15,4 °C 30,2 °C 35,4 km/h (5 Bft)
27.06.2020 16:50 25,3 °C 30,8 °C 52 % 40 % 1009,3 hPa 0,0 l/m² 25,9 km/h (4 Bft) SW 234 ° 2 min 432 W/m² 15,6 °C 30,0 °C 38,6 km/h (6 Bft)
27.06.2020 16:52 25,3 °C 30,7 °C 51 % 41 % 1009,3 hPa 0,0 l/m² 25,4 km/h (4 Bft) SW 231 ° 2 min 366 W/m² 15,9 °C 29,9 °C 37,0 km/h (5 Bft)
27.06.2020 16:53 25,3 °C 30,6 °C 51 % 40 % 1009,3 hPa 0,0 l/m² 32,6 km/h (5 Bft) SW 217 ° 1 min 396 W/m² 15,4 °C 29,6 °C 37,0 km/h (5 Bft)
27.06.2020 16:55 25,2 °C 30,6 °C 51 % 41 % 1009,3 hPa 0,0 l/m² 25,3 km/h (4 Bft) SW 227 ° 2 min 512 W/m² 15,8 °C 29,7 °C 33,8 km/h (5 Bft)
27.06.2020 16:57 25,2 °C 30,5 °C 51 % 41 % 1009,3 hPa 0,0 l/m² 22,6 km/h (4 Bft) W-SW 243 ° 2 min 348 W/m² 15,7 °C 29,7 °C 35,4 km/h (5 Bft)
27.06.2020 16:59 25,3 °C 30,4 °C 51 % 41 % 1009,2 hPa 0,0 l/m² 23,6 km/h (4 Bft) W-SW 239 ° 2 min 387 W/m² 15,6 °C 29,5 °C 32,2 km/h (5 Bft)
27.06.2020 17:01 25,3 °C 30,4 °C 51 % 42 % 1009,3 hPa 0,0 l/m² 22,2 km/h (4 Bft) W-SW 258 ° 2 min 401 W/m² 16,0 °C 29,6 °C 30,6 km/h (5 Bft)
27.06.2020 17:02 25,2 °C 30,4 °C 51 % 42 % 1009,3 hPa 0,0 l/m² 21,3 km/h (4 Bft) SW 232 ° 1 min 376 W/m² 16,0 °C 29,6 °C 25,7 km/h (4 Bft)
27.06.2020 17:03 25,2 °C 30,4 °C 51 % 41 % 1009,3 hPa 0,0 l/m² 26,6 km/h (4 Bft) SW 233 ° 1 min 359 W/m² 15,6 °C 29,4 °C 35,4 km/h (5 Bft)
27.06.2020 17:06 25,2 °C 30,3 °C 51 % 41 % 1009,3 hPa 0,0 l/m² 21,7 km/h (4 Bft) SW 236 ° 3 min 345 W/m² 15,6 °C 29,4 °C 33,8 km/h (5 Bft)
27.06.2020 17:07 25,2 °C 30,2 °C 51 % 41 % 1009,4 hPa 0,0 l/m² 23,1 km/h (4 Bft) W-SW 258 ° 1 min 359 W/m² 15,5 °C 29,3 °C 32,2 km/h (5 Bft)
27.06.2020 17:08 25,2 °C 30,2 °C 51 % 41 % 1009,4 hPa 0,0 l/m² 22,9 km/h (4 Bft) SW 227 ° 1 min 236 W/m² 15,5 °C 29,3 °C 32,2 km/h (5 Bft)
27.06.2020 17:09 25,2 °C 30,1 °C 51 % 42 % 1009,4 hPa 0,0 l/m² 22,3 km/h (4 Bft) W-SW 254 ° 1 min 220 W/m² 15,7 °C 29,2 °C 30,6 km/h (5 Bft)
27.06.2020 17:11 25,3 °C 29,8 °C 51 % 42 % 1009,5 hPa 0,0 l/m² 19,3 km/h (3 Bft) W 269 ° 2 min 204 W/m² 15,5 °C 28,9 °C 30,6 km/h (5 Bft)
27.06.2020 17:12 25,2 °C 29,8 °C 51 % 42 % 1009,5 hPa 0,0 l/m² 23,1 km/h (4 Bft) SW 236 ° 1 min 202 W/m² 15,5 °C 28,7 °C 30,6 km/h (5 Bft)
27.06.2020 17:13 25,2 °C 29,7 °C 51 % 42 % 1009,5 hPa 0,0 l/m² 26,0 km/h (4 Bft) SW 228 ° 1 min 199 W/m² 15,4 °C 28,5 °C 35,4 km/h (5 Bft)
27.06.2020 17:15 25,2 °C 29,5 °C 51 % 42 % 1009,4 hPa 0,0 l/m² 23,3 km/h (4 Bft) W-SW 255 ° 2 min 186 W/m² 15,2 °C 28,3 °C 37,0 km/h (5 Bft)
27.06.2020 17:17 25,2 °C 29,4 °C 50 % 43 % 1009,5 hPa 0,0 l/m² 25,5 km/h (4 Bft) SW 231 ° 2 min 172 W/m² 15,5 °C 28,1 °C 37,0 km/h (5 Bft)
27.06.2020 17:19 25,2 °C 29,3 °C 50 % 44 % 1009,5 hPa 0,0 l/m² 19,9 km/h (4 Bft) W 259 ° 2 min 153 W/m² 15,8 °C 28,2 °C 29,0 km/h (5 Bft)
27.06.2020 17:21 25,2 °C 29,3 °C 50 % 44 % 1009,5 hPa 0,0 l/m² 16,7 km/h (3 Bft) SW 217 ° 2 min 146 W/m² 15,8 °C 28,4 °C 30,6 km/h (5 Bft)
27.06.2020 17:22 25,2 °C 29,2 °C 51 % 44 % 1009,6 hPa 0,0 l/m² 19,3 km/h (3 Bft) S-SW 200 ° 1 min 142 W/m² 15,7 °C 28,1 °C 25,7 km/h (4 Bft)
27.06.2020 17:23 25,2 °C 29,2 °C 51 % 43 % 1009,6 hPa 0,0 l/m² 21,4 km/h (4 Bft) W-SW 248 ° 1 min 141 W/m² 15,3 °C 28,0 °C 25,7 km/h (4 Bft)
27.06.2020 17:26 25,2 °C 29,1 °C 51 % 43 % 1009,6 hPa 0,0 l/m² 21,1 km/h (4 Bft) W 265 ° 3 min 135 W/m² 15,2 °C 27,9 °C 30,6 km/h (5 Bft)
27.06.2020 17:28 25,2 °C 28,9 °C 51 % 44 % 1009,7 hPa 0,0 l/m² 19,5 km/h (3 Bft) W-SW 243 ° 2 min 134 W/m² 15,4 °C 27,7 °C 27,4 km/h (5 Bft)
27.06.2020 17:30 25,2 °C 28,9 °C 51 % 43 % 1009,7 hPa 0,0 l/m² 22,3 km/h (4 Bft) SW 236 ° 2 min 137 W/m² 15,0 °C 27,6 °C 30,6 km/h (5 Bft)
27.06.2020 17:32 25,2 °C 28,8 °C 51 % 43 % 1009,7 hPa 0,0 l/m² 23,0 km/h (4 Bft) SW 227 ° 2 min 142 W/m² 15,0 °C 27,4 °C 33,8 km/h (5 Bft)
27.06.2020 17:33 25,2 °C 28,8 °C 51 % 43 % 1009,7 hPa 0,0 l/m² 20,9 km/h (4 Bft) SW 230 ° 1 min 144 W/m² 15,0 °C 27,5 °C 30,6 km/h (5 Bft)
27.06.2020 17:35 25,2 °C 28,8 °C 51 % 43 % 1009,6 hPa 0,0 l/m² 23,3 km/h (4 Bft) SW 234 ° 2 min 148 W/m² 15,0 °C 27,4 °C 27,4 km/h (5 Bft)
27.06.2020 17:37 25,2 °C 28,8 °C 51 % 43 % 1009,6 hPa 0,0 l/m² 18,2 km/h (3 Bft) S-SW 205 ° 2 min 171 W/m² 15,0 °C 27,7 °C 24,1 km/h (4 Bft)
27.06.2020 17:39 25,2 °C 28,8 °C 51 % 43 % 1009,5 hPa 0,0 l/m² 23,1 km/h (4 Bft) SW 234 ° 2 min 192 W/m² 15,0 °C 27,4 °C 30,6 km/h (5 Bft)
27.06.2020 17:41 25,2 °C 29,1 °C 51 % 45 % 1009,6 hPa 0,0 l/m² 18,1 km/h (3 Bft) W-SW 244 ° 2 min 285 W/m² 15,9 °C 28,1 °C 27,4 km/h (5 Bft)
27.06.2020 17:42 25,2 °C 29,2 °C 51 % 43 % 1009,5 hPa 0,0 l/m² 21,2 km/h (4 Bft) SW 236 ° 1 min 306 W/m² 15,3 °C 28,0 °C 32,2 km/h (5 Bft)
27.06.2020 17:43 25,2 °C 29,3 °C 51 % 43 % 1009,5 hPa 0,0 l/m² 16,3 km/h (3 Bft) W 260 ° 1 min 306 W/m² 15,4 °C 28,4 °C 20,9 km/h (4 Bft)
27.06.2020 17:46 25,2 °C 30,1 °C 51 % 42 % 1009,4 hPa 0,0 l/m² 16,4 km/h (3 Bft) SW 223 ° 3 min 693 W/m² 15,7 °C 29,4 °C 25,7 km/h (4 Bft)
27.06.2020 17:48 25,2 °C 30,7 °C 51 % 41 % 1009,4 hPa 0,0 l/m² 23,9 km/h (4 Bft) S-SW 198 ° 2 min 624 W/m² 15,9 °C 29,9 °C 37,0 km/h (5 Bft)
27.06.2020 17:50 25,2 °C 31,0 °C 51 % 41 % 1009,4 hPa 0,0 l/m² 22,8 km/h (4 Bft) W 271 ° 2 min 691 W/m² 16,2 °C 30,3 °C 29,0 km/h (5 Bft)
27.06.2020 17:52 25,2 °C 31,2 °C 51 % 39 % 1009,4 hPa 0,0 l/m² 23,9 km/h (4 Bft) W 273 ° 2 min 687 W/m² 15,6 °C 30,6 °C 35,4 km/h (5 Bft)
27.06.2020 17:53 25,2 °C 31,2 °C 51 % 39 % 1009,4 hPa 0,0 l/m² 27,7 km/h (5 Bft) W-SW 242 ° 1 min 647 W/m² 15,6 °C 30,5 °C 33,8 km/h (5 Bft)
27.06.2020 17:55 25,2 °C 31,1 °C 51 % 40 % 1009,3 hPa 0,0 l/m² 26,2 km/h (4 Bft) SW 230 ° 2 min 661 W/m² 15,9 °C 30,4 °C 33,8 km/h (5 Bft)
27.06.2020 17:57 25,2 °C 31,1 °C 52 % 40 % 1009,4 hPa 0,0 l/m² 27,8 km/h (5 Bft) W-SW 247 ° 2 min 570 W/m² 15,9 °C 30,4 °C 37,0 km/h (5 Bft)
27.06.2020 17:59 25,2 °C 31,0 °C 52 % 40 % 1009,3 hPa 0,0 l/m² 27,0 km/h (5 Bft) W-SW 237 ° 2 min 592 W/m² 15,8 °C 30,2 °C 40,2 km/h (6 Bft)
27.06.2020 18:01 25,3 °C 31,0 °C 53 % 40 % 1009,3 hPa 0,0 l/m² 21,9 km/h (4 Bft) SW 223 ° 2 min 506 W/m² 15,8 °C 30,4 °C 30,6 km/h (5 Bft)
27.06.2020 18:02 25,3 °C 31,0 °C 53 % 40 % 1009,3 hPa 0,0 l/m² 22,5 km/h (4 Bft) SW 232 ° 1 min 462 W/m² 15,8 °C 30,3 °C 30,6 km/h (5 Bft)
27.06.2020 18:03 25,3 °C 31,0 °C 53 % 39 % 1009,3 hPa 0,0 l/m² 27,2 km/h (5 Bft) SW 227 ° 1 min 478 W/m² 15,4 °C 30,2 °C 30,6 km/h (5 Bft)
27.06.2020 18:06 25,3 °C 30,8 °C 53 % 39 % 1009,4 hPa 0,0 l/m² 25,5 km/h (4 Bft) SW 229 ° 3 min 404 W/m² 15,2 °C 30,0 °C 40,2 km/h (6 Bft)
27.06.2020 18:08 25,3 °C 30,4 °C 53 % 40 % 1009,3 hPa 0,0 l/m² 23,1 km/h (4 Bft) SW 233 ° 2 min 302 W/m² 15,3 °C 29,5 °C 30,6 km/h (5 Bft)
27.06.2020 18:10 25,3 °C 30,1 °C 53 % 41 % 1009,3 hPa 0,0 l/m² 28,1 km/h (5 Bft) W-SW 241 ° 2 min 274 W/m² 15,4 °C 29,0 °C 38,6 km/h (6 Bft)
27.06.2020 18:12 25,3 °C 29,8 °C 52 % 42 % 1009,4 hPa 0,0 l/m² 27,0 km/h (5 Bft) W-SW 252 ° 2 min 306 W/m² 15,5 °C 28,6 °C 41,8 km/h (6 Bft)
27.06.2020 18:13 25,3 °C 29,6 °C 52 % 43 % 1009,4 hPa 0,0 l/m² 24,0 km/h (4 Bft) SW 228 ° 1 min 260 W/m² 15,7 °C 28,4 °C 29,0 km/h (5 Bft)
27.06.2020 18:15 25,3 °C 29,4 °C 52 % 44 % 1009,4 hPa 0,0 l/m² 23,7 km/h (4 Bft) SW 219 ° 2 min 216 W/m² 15,8 °C 28,2 °C 30,6 km/h (5 Bft)
27.06.2020 18:17 25,4 °C 29,1 °C 52 % 45 % 1009,4 hPa 0,0 l/m² 23,5 km/h (4 Bft) W-SW 244 ° 2 min 183 W/m² 15,9 °C 27,8 °C 30,6 km/h (5 Bft)
27.06.2020 18:19 25,4 °C 28,9 °C 52 % 46 % 1009,4 hPa 0,0 l/m² 20,0 km/h (4 Bft) S-SW 213 ° 2 min 338 W/m² 16,1 °C 27,7 °C 29,0 km/h (5 Bft)
27.06.2020 18:21 25,4 °C 28,8 °C 52 % 47 % 1009,4 hPa 0,0 l/m² 22,7 km/h (4 Bft) S-SW 209 ° 2 min 371 W/m² 16,3 °C 27,4 °C 32,2 km/h (5 Bft)
27.06.2020 18:22 25,4 °C 28,8 °C 52 % 48 % 1009,4 hPa 0,0 l/m² 23,0 km/h (4 Bft) SW 216 ° 1 min 394 W/m² 16,7 °C 27,4 °C 30,6 km/h (5 Bft)
27.06.2020 18:23 25,4 °C 28,8 °C 52 % 47 % 1009,4 hPa 0,0 l/m² 23,8 km/h (4 Bft) SW 218 ° 1 min 450 W/m² 16,3 °C 27,4 °C 29,0 km/h (5 Bft)
27.06.2020 18:26 25,4 °C 29,2 °C 53 % 48 % 1009,3 hPa 0,0 l/m² 18,1 km/h (3 Bft) W 265 ° 3 min 461 W/m² 17,0 °C 28,2 °C 24,1 km/h (4 Bft)
27.06.2020 18:28 25,4 °C 29,3 °C 53 % 47 % 1009,3 hPa 0,0 l/m² 22,4 km/h (4 Bft) SW 228 ° 2 min 438 W/m² 16,8 °C 28,1 °C 32,2 km/h (5 Bft)
27.06.2020 18:30 25,4 °C 29,3 °C 53 % 47 % 1009,3 hPa 0,0 l/m² 22,9 km/h (4 Bft) S-SW 212 ° 2 min 439 W/m² 16,8 °C 28,1 °C 29,0 km/h (5 Bft)
27.06.2020 18:32 25,4 °C 29,4 °C 53 % 47 % 1009,2 hPa 0,0 l/m² 17,0 km/h (3 Bft) S-SW 211 ° 2 min 420 W/m² 16,9 °C 28,5 °C 22,5 km/h (4 Bft)
27.06.2020 18:33 25,4 °C 29,4 °C 53 % 46 % 1009,2 hPa 0,0 l/m² 25,8 km/h (4 Bft) SW 224 ° 1 min 427 W/m² 16,5 °C 28,1 °C 29,0 km/h (5 Bft)
27.06.2020 18:35 25,4 °C 29,4 °C 53 % 46 % 1009,3 hPa 0,0 l/m² 22,2 km/h (4 Bft) S-SW 206 ° 2 min 445 W/m² 16,5 °C 28,2 °C 29,0 km/h (5 Bft)
27.06.2020 18:37 25,4 °C 29,4 °C 53 % 46 % 1009,2 hPa 0,0 l/m² 19,8 km/h (3 Bft) S-SW 205 ° 2 min 434 W/m² 16,5 °C 28,4 °C 27,4 km/h (5 Bft)
27.06.2020 18:39 25,4 °C 29,4 °C 53 % 46 % 1009,3 hPa 0,0 l/m² 20,1 km/h (4 Bft) SW 229 ° 2 min 438 W/m² 16,5 °C 28,3 °C 27,4 km/h (5 Bft)
27.06.2020 18:41 25,3 °C 29,6 °C 53 % 46 % 1009,2 hPa 0,0 l/m² 16,5 km/h (3 Bft) S-SW 202 ° 2 min 431 W/m² 16,7 °C 28,8 °C 27,4 km/h (5 Bft)
27.06.2020 18:42 25,4 °C 29,6 °C 53 % 45 % 1009,2 hPa 0,0 l/m² 22,0 km/h (4 Bft) SW 229 ° 1 min 425 W/m² 16,4 °C 28,5 °C 27,4 km/h (5 Bft)
27.06.2020 18:43 25,4 °C 29,6 °C 53 % 46 % 1009,2 hPa 0,0 l/m² 21,8 km/h (4 Bft) SW 225 ° 1 min 422 W/m² 16,7 °C 28,5 °C 32,2 km/h (5 Bft)
27.06.2020 18:45 25,3 °C 29,6 °C 53 % 46 % 1009,2 hPa 0,0 l/m² 16,9 km/h (3 Bft) S-SW 209 ° 2 min 411 W/m² 16,7 °C 28,8 °C 27,4 km/h (5 Bft)
27.06.2020 18:46 25,3 °C 29,6 °C 53 % 46 % 1009,2 hPa 0,0 l/m² 18,4 km/h (3 Bft) S-SW 199 ° 1 min 376 W/m² 16,7 °C 28,7 °C 22,5 km/h (4 Bft)
27.06.2020 18:48 25,3 °C 29,6 °C 53 % 46 % 1009,2 hPa 0,0 l/m² 17,4 km/h (3 Bft) SW 235 ° 2 min 392 W/m² 16,7 °C 28,7 °C 25,7 km/h (4 Bft)
27.06.2020 18:50 25,3 °C 29,6 °C 53 % 45 % 1009,2 hPa 0,0 l/m² 20,5 km/h (4 Bft) SW 225 ° 2 min 383 W/m² 16,4 °C 28,6 °C 32,2 km/h (5 Bft)
27.06.2020 18:52 25,3 °C 29,5 °C 53 % 45 % 1009,2 hPa 0,0 l/m² 19,1 km/h (3 Bft) SW 223 ° 2 min 364 W/m² 16,3 °C 28,5 °C 25,7 km/h (4 Bft)
27.06.2020 18:53 25,3 °C 29,4 °C 53 % 45 % 1009,2 hPa 0,0 l/m² 18,4 km/h (3 Bft) SW 215 ° 1 min 364 W/m² 16,2 °C 28,4 °C 25,7 km/h (4 Bft)
27.06.2020 18:55 25,3 °C 29,4 °C 53 % 46 % 1009,1 hPa 0,0 l/m² 19,5 km/h (3 Bft) SW 219 ° 2 min 339 W/m² 16,5 °C 28,4 °C 27,4 km/h (5 Bft)
27.06.2020 18:57 25,3 °C 29,3 °C 53 % 47 % 1009,1 hPa 0,0 l/m² 17,3 km/h (3 Bft) SW 230 ° 2 min 329 W/m² 16,8 °C 28,4 °C 24,1 km/h (4 Bft)
27.06.2020 18:59 25,3 °C 29,2 °C 53 % 47 % 1009,1 hPa 0,0 l/m² 13,5 km/h (3 Bft) SW 236 ° 2 min 316 W/m² 16,7 °C 28,5 °C 19,3 km/h (3 Bft)
27.06.2020 19:01 25,3 °C 29,1 °C 53 % 47 % 1009,1 hPa 0,0 l/m² 14,5 km/h (3 Bft) W 259 ° 2 min 316 W/m² 16,6 °C 28,3 °C 20,9 km/h (4 Bft)
27.06.2020 19:02 25,3 °C 29,1 °C 53 % 47 % 1009,1 hPa 0,0 l/m² 14,2 km/h (3 Bft) SW 227 ° 1 min 302 W/m² 16,6 °C 28,3 °C 16,1 km/h (3 Bft)
27.06.2020 19:03 25,3 °C 29,1 °C 53 % 47 % 1009,1 hPa 0,0 l/m² 18,5 km/h (3 Bft) W-SW 238 ° 1 min 309 W/m² 16,6 °C 28,0 °C 22,5 km/h (4 Bft)
27.06.2020 19:06 25,3 °C 29,2 °C 53 % 47 % 1009,1 hPa 0,0 l/m² 13,4 km/h (3 Bft) W-SW 238 ° 3 min 104 W/m² 16,7 °C 28,5 °C 22,5 km/h (4 Bft)
27.06.2020 19:08 25,3 °C 29,3 °C 53 % 46 % 1009,1 hPa 0,0 l/m² 12,8 km/h (3 Bft) S-SW 195 ° 2 min 118 W/m² 16,5 °C 28,7 °C 17,7 km/h (3 Bft)
27.06.2020 19:10 25,3 °C 29,2 °C 54 % 46 % 1009,2 hPa 0,0 l/m² 17,0 km/h (3 Bft) S-SW 208 ° 2 min 281 W/m² 16,4 °C 28,3 °C 27,4 km/h (5 Bft)
27.06.2020 19:12 25,3 °C 29,1 °C 54 % 46 % 1009,3 hPa 0,0 l/m² 18,0 km/h (3 Bft) SW 218 ° 2 min 167 W/m² 16,3 °C 28,1 °C 27,4 km/h (5 Bft)
27.06.2020 19:13 25,3 °C 29,1 °C 54 % 46 % 1009,3 hPa 0,0 l/m² 13,9 km/h (3 Bft) SW 226 ° 1 min 167 W/m² 16,3 °C 28,4 °C 19,3 km/h (3 Bft)
27.06.2020 19:15 25,3 °C 28,9 °C 54 % 46 % 1009,2 hPa 0,0 l/m² 17,9 km/h (3 Bft) W-SW 258 ° 2 min 167 W/m² 16,1 °C 27,8 °C 29,0 km/h (5 Bft)
27.06.2020 19:17 25,3 °C 28,9 °C 54 % 46 % 1009,2 hPa 0,0 l/m² 15,4 km/h (3 Bft) SW 232 ° 2 min 121 W/m² 16,1 °C 28,0 °C 19,3 km/h (3 Bft)
27.06.2020 19:19 25,3 °C 28,8 °C 54 % 47 % 1009,3 hPa 0,0 l/m² 14,9 km/h (3 Bft) SW 226 ° 2 min 165 W/m² 16,3 °C 27,9 °C 24,1 km/h (4 Bft)
27.06.2020 19:21 25,3 °C 28,8 °C 53 % 47 % 1009,2 hPa 0,0 l/m² 17,8 km/h (3 Bft) W-SW 244 ° 2 min 104 W/m² 16,3 °C 27,7 °C 24,1 km/h (4 Bft)
27.06.2020 19:22 25,3 °C 28,8 °C 53 % 47 % 1009,3 hPa 0,0 l/m² 15,3 km/h (3 Bft) SW 227 ° 1 min 105 W/m² 16,3 °C 27,9 °C 20,9 km/h (4 Bft)
27.06.2020 19:23 25,3 °C 28,8 °C 53 % 47 % 1009,3 hPa 0,0 l/m² 16,6 km/h (3 Bft) SW 228 ° 1 min 81 W/m² 16,3 °C 27,8 °C 24,1 km/h (4 Bft)
27.06.2020 19:26 25,3 °C 28,8 °C 53 % 47 % 1009,2 hPa 0,0 l/m² 13,9 km/h (3 Bft) W-SW 238 ° 3 min 77 W/m² 16,3 °C 28,0 °C 24,1 km/h (4 Bft)
27.06.2020 19:28 25,3 °C 28,7 °C 53 % 47 % 1009,1 hPa 0,0 l/m² 15,7 km/h (3 Bft) S-SW 202 ° 2 min 81 W/m² 16,3 °C 27,7 °C 22,5 km/h (4 Bft)
27.06.2020 19:30 25,3 °C 28,7 °C 53 % 47 % 1009,2 hPa 0,0 l/m² 13,8 km/h (3 Bft) SW 221 ° 2 min 76 W/m² 16,3 °C 27,9 °C 20,9 km/h (4 Bft)
27.06.2020 19:32 25,3 °C 28,7 °C 53 % 48 % 1009,1 hPa 0,0 l/m² 11,9 km/h (2 Bft) SW 231 ° 2 min 88 W/m² 16,6 °C 28,1 °C 16,1 km/h (3 Bft)
27.06.2020 19:33 25,3 °C 28,7 °C 53 % 48 % 1009,1 hPa 0,0 l/m² 13,2 km/h (3 Bft) W-SW 242 ° 1 min 76 W/m² 16,6 °C 27,9 °C 19,3 km/h (3 Bft)
27.06.2020 19:35 25,3 °C 28,6 °C 53 % 48 % 1009,1 hPa 0,0 l/m² 15,2 km/h (3 Bft) SW 220 ° 2 min 63 W/m² 16,5 °C 27,7 °C 20,9 km/h (4 Bft)
27.06.2020 19:37 25,3 °C 28,6 °C 53 % 47 % 1009,1 hPa 0,0 l/m² 19,6 km/h (3 Bft) S-SW 211 ° 2 min 62 W/m² 16,2 °C 27,3 °C 29,0 km/h (5 Bft)
27.06.2020 19:39 25,3 °C 28,4 °C 53 % 48 % 1009,3 hPa 0,0 l/m² 16,7 km/h (3 Bft) SW 236 ° 2 min 88 W/m² 16,3 °C 27,3 °C 24,1 km/h (4 Bft)
27.06.2020 19:41 25,3 °C 28,3 °C 52 % 48 % 1009,3 hPa 0,0 l/m² 15,3 km/h (3 Bft) SW 222 ° 2 min 109 W/m² 16,2 °C 27,3 °C 24,1 km/h (4 Bft)
27.06.2020 19:42 25,3 °C 28,3 °C 52 % 48 % 1009,3 hPa 0,0 l/m² 16,2 km/h (3 Bft) W-SW 240 ° 1 min 56 W/m² 16,2 °C 27,2 °C 20,9 km/h (4 Bft)
27.06.2020 19:43 25,3 °C 28,3 °C 52 % 48 % 1009,3 hPa 0,0 l/m² 15,0 km/h (3 Bft) SW 221 ° 1 min 72 W/m² 16,2 °C 27,3 °C 19,3 km/h (3 Bft)
27.06.2020 19:46 25,3 °C 28,2 °C 52 % 49 % 1009,3 hPa 0,0 l/m² 12,8 km/h (3 Bft) SW 225 ° 3 min 56 W/m² 16,5 °C 27,4 °C 20,9 km/h (4 Bft)
27.06.2020 19:48 25,3 °C 28,2 °C 52 % 49 % 1009,4 hPa 0,0 l/m² 15,6 km/h (3 Bft) SW 225 ° 2 min 56 W/m² 16,5 °C 27,1 °C 22,5 km/h (4 Bft)
27.06.2020 19:50 25,3 °C 28,2 °C 52 % 49 % 1009,2 hPa 0,0 l/m² 14,5 km/h (3 Bft) S-SW 207 ° 2 min 53 W/m² 16,5 °C 27,2 °C 19,3 km/h (3 Bft)
27.06.2020 19:52 25,3 °C 28,1 °C 52 % 50 % 1009,2 hPa 0,0 l/m² 13,2 km/h (3 Bft) W-SW 237 ° 0 min 51 W/m² 16,7 °C 27,2 °C 19,3 km/h (3 Bft)
27.06.2020 19:53 25,3 °C 28,1 °C 52 % 50 % 1009,2 hPa 0,0 l/m² 13,5 km/h (3 Bft) SW 227 ° 0 min 47 W/m² 16,7 °C 27,2 °C 17,7 km/h (3 Bft)
27.06.2020 19:55 25,3 °C 28,0 °C 52 % 50 % 1009,3 hPa 0,0 l/m² 15,4 km/h (3 Bft) SW 229 ° 0 min 47 W/m² 16,6 °C 26,9 °C 22,5 km/h (4 Bft)
27.06.2020 19:57 25,3 °C 27,9 °C 53 % 51 % 1009,3 hPa 0,0 l/m² 14,4 km/h (3 Bft) W-SW 248 ° 0 min 46 W/m² 16,8 °C 26,9 °C 20,9 km/h (4 Bft)
27.06.2020 19:59 25,3 °C 27,8 °C 53 % 51 % 1009,4 hPa 0,0 l/m² 11,2 km/h (2 Bft) SW 230 ° 0 min 47 W/m² 16,7 °C 27,1 °C 17,7 km/h (3 Bft)
27.06.2020 20:01 25,3 °C 27,8 °C 53 % 52 % 1009,4 hPa 0,0 l/m² 10,4 km/h (2 Bft) W-SW 246 ° 0 min 46 W/m² 17,0 °C 27,2 °C 14,5 km/h (3 Bft)
27.06.2020 20:02 25,3 °C 27,7 °C 53 % 52 % 1009,5 hPa 0,0 l/m² 13,2 km/h (3 Bft) SW 219 ° 0 min 44 W/m² 16,9 °C 26,8 °C 16,1 km/h (3 Bft)
27.06.2020 20:03 25,3 °C 27,7 °C 53 % 52 % 1009,5 hPa 0,0 l/m² 12,1 km/h (2 Bft) SW 223 ° 0 min 44 W/m² 16,9 °C 26,9 °C 14,5 km/h (3 Bft)
27.06.2020 20:06 25,3 °C 27,6 °C 53 % 52 % 1009,4 hPa 0,0 l/m² 11,0 km/h (2 Bft) SW 230 ° 0 min 44 W/m² 16,8 °C 26,9 °C 19,3 km/h (3 Bft)
27.06.2020 20:08 25,3 °C 27,6 °C 53 % 52 % 1009,4 hPa 0,0 l/m² 11,0 km/h (2 Bft) W-SW 245 ° 0 min 44 W/m² 16,8 °C 26,9 °C 16,1 km/h (3 Bft)
27.06.2020 20:10 25,3 °C 27,6 °C 53 % 53 % 1009,4 hPa 0,0 l/m² 8,9 km/h (2 Bft) SW 232 ° 0 min 44 W/m² 17,1 °C 27,2 °C 16,1 km/h (3 Bft)
27.06.2020 20:12 25,3 °C 27,5 °C 53 % 53 % 1009,4 hPa 0,0 l/m² 11,7 km/h (2 Bft) SW 232 ° 0 min 42 W/m² 17,0 °C 26,7 °C 17,7 km/h (3 Bft)
27.06.2020 20:13 25,3 °C 27,5 °C 53 % 53 % 1009,4 hPa 0,0 l/m² 7,9 km/h (2 Bft) W-SW 237 ° 0 min 40 W/m² 17,0 °C 27,2 °C 11,3 km/h (2 Bft)
27.06.2020 20:15 25,3 °C 27,4 °C 54 % 53 % 1009,4 hPa 0,0 l/m² 10,1 km/h (2 Bft) SW 229 ° 0 min 40 W/m² 17,0 °C 26,8 °C 14,5 km/h (3 Bft)
27.06.2020 20:17 25,3 °C 27,3 °C 54 % 54 % 1009,5 hPa 0,0 l/m² 12,5 km/h (2 Bft) W-SW 240 ° 0 min 42 W/m² 17,2 °C 26,4 °C 17,7 km/h (3 Bft)
27.06.2020 20:19 25,3 °C 27,3 °C 54 % 54 % 1009,5 hPa 0,0 l/m² 8,5 km/h (2 Bft) W-SW 241 ° 0 min 42 W/m² 17,2 °C 26,9 °C 12,9 km/h (3 Bft)
27.06.2020 20:21 25,3 °C 27,2 °C 54 % 55 % 1009,5 hPa 0,0 l/m² 7,4 km/h (2 Bft) W-SW 246 ° 0 min 42 W/m² 17,4 °C 27,0 °C 14,5 km/h (3 Bft)
27.06.2020 20:22 25,3 °C 27,2 °C 55 % 55 % 1009,5 hPa 0,0 l/m² 11,1 km/h (2 Bft) W-SW 243 ° 0 min 42 W/m² 17,4 °C 26,4 °C 16,1 km/h (3 Bft)
27.06.2020 20:23 25,3 °C 27,2 °C 55 % 55 % 1009,5 hPa 0,0 l/m² 10,9 km/h (2 Bft) SW 222 ° 0 min 42 W/m² 17,4 °C 26,5 °C 14,5 km/h (3 Bft)
27.06.2020 20:26 25,3 °C 27,2 °C 55 % 55 % 1009,4 hPa 0,0 l/m² 13,2 km/h (3 Bft) SW 228 ° 0 min 39 W/m² 17,4 °C 26,2 °C 20,9 km/h (4 Bft)
27.06.2020 20:28 25,3 °C 27,1 °C 55 % 53 % 1009,5 hPa 0,0 l/m² 14,5 km/h (3 Bft) SW 234 ° 0 min 37 W/m² 16,7 °C 25,9 °C 20,9 km/h (4 Bft)
27.06.2020 20:30 25,3 °C 27,1 °C 55 % 54 % 1009,4 hPa 0,0 l/m² 13,2 km/h (3 Bft) W 266 ° 0 min 33 W/m² 17,0 °C 26,1 °C 19,3 km/h (3 Bft)
27.06.2020 20:32 25,3 °C 26,9 °C 55 % 54 % 1009,5 hPa 0,0 l/m² 12,0 km/h (2 Bft) W-SW 248 ° 0 min 32 W/m² 16,8 °C 26,0 °C 16,1 km/h (3 Bft)
27.06.2020 20:33 25,3 °C 26,9 °C 55 % 54 % 1009,5 hPa 0,0 l/m² 10,1 km/h (2 Bft) W-SW 254 ° 0 min 32 W/m² 16,8 °C 26,2 °C 12,9 km/h (3 Bft)
27.06.2020 20:35 25,3 °C 26,8 °C 55 % 55 % 1009,6 hPa 0,0 l/m² 8,5 km/h (2 Bft) SW 231 ° 0 min 30 W/m² 17,0 °C 26,4 °C 12,9 km/h (3 Bft)
27.06.2020 20:37 25,3 °C 26,7 °C 55 % 54 % 1009,6 hPa 0,0 l/m² 9,0 km/h (2 Bft) SW 232 ° 0 min 30 W/m² 16,6 °C 26,2 °C 11,3 km/h (2 Bft)
27.06.2020 20:39 25,3 °C 26,5 °C 55 % 55 % 1009,5 hPa 0,0 l/m² 7,2 km/h (2 Bft) W-SW 240 ° 0 min 32 W/m² 16,7 °C 26,3 °C 11,3 km/h (2 Bft)
27.06.2020 20:41 25,3 °C 26,3 °C 55 % 56 % 1009,6 hPa 0,0 l/m² 5,2 km/h (1 Bft) SW 234 ° 0 min 32 W/m² 16,8 °C 26,3 °C 8,0 km/h (2 Bft)
27.06.2020 20:42 25,3 °C 26,3 °C 55 % 56 % 1009,6 hPa 0,0 l/m² 5,4 km/h (2 Bft) SW 236 ° 0 min 32 W/m² 16,8 °C 26,3 °C 8,0 km/h (2 Bft)
27.06.2020 20:43 25,3 °C 26,2 °C 55 % 56 % 1009,6 hPa 0,0 l/m² 5,4 km/h (2 Bft) SW 232 ° 0 min 30 W/m² 16,7 °C 26,2 °C 6,4 km/h (2 Bft)
27.06.2020 20:46 25,3 °C 25,9 °C 55 % 57 % 1009,6 hPa 0,0 l/m² 5,7 km/h (2 Bft) W-SW 242 ° 0 min 28 W/m² 16,7 °C 25,9 °C 8,0 km/h (2 Bft)
27.06.2020 20:48 25,3 °C 25,8 °C 55 % 57 % 1009,6 hPa 0,0 l/m² 6,1 km/h (2 Bft) SW 224 ° 0 min 26 W/m² 16,6 °C 25,8 °C 9,7 km/h (2 Bft)
27.06.2020 20:50 25,2 °C 25,6 °C 55 % 58 % 1009,7 hPa 0,0 l/m² 6,4 km/h (2 Bft) SW 229 ° 0 min 26 W/m² 16,7 °C 25,6 °C 8,0 km/h (2 Bft)
27.06.2020 20:52 25,2 °C 25,6 °C 56 % 58 % 1009,7 hPa 0,0 l/m² 6,3 km/h (2 Bft) W 259 ° 0 min 26 W/m² 16,7 °C 25,6 °C 8,0 km/h (2 Bft)
27.06.2020 20:53 25,2 °C 25,6 °C 56 % 58 % 1009,7 hPa 0,0 l/m² 4,8 km/h (1 Bft) SW 235 ° 0 min 26 W/m² 16,7 °C 25,6 °C 6,4 km/h (2 Bft)
27.06.2020 20:55 25,2 °C 25,5 °C 56 % 58 % 1009,7 hPa 0,0 l/m² 5,9 km/h (2 Bft) SW 232 ° 0 min 25 W/m² 16,6 °C 25,5 °C 9,7 km/h (2 Bft)
27.06.2020 20:57 25,2 °C 25,4 °C 56 % 59 % 1009,8 hPa 0,0 l/m² 5,6 km/h (2 Bft) SW 235 ° 0 min 23 W/m² 16,8 °C 25,4 °C 6,4 km/h (2 Bft)
27.06.2020 20:59 25,2 °C 25,3 °C 56 % 59 % 1009,8 hPa 0,0 l/m² 4,3 km/h (1 Bft) SW 235 ° 0 min 21 W/m² 16,7 °C 25,3 °C 6,4 km/h (2 Bft)
27.06.2020 21:01 25,2 °C 25,3 °C 56 % 59 % 1009,8 hPa 0,0 l/m² 4,7 km/h (1 Bft) SW 234 ° 0 min 19 W/m² 16,7 °C 25,3 °C 6,4 km/h (2 Bft)
27.06.2020 21:02 25,2 °C 25,3 °C 56 % 60 % 1009,8 hPa 0,0 l/m² 5,0 km/h (1 Bft) SW 235 ° 0 min 18 W/m² 17,0 °C 25,3 °C 6,4 km/h (2 Bft)
27.06.2020 21:03 25,2 °C 25,2 °C 56 % 60 % 1009,8 hPa 0,0 l/m² 4,8 km/h (1 Bft) W-SW 238 ° 0 min 18 W/m² 16,9 °C 25,2 °C 6,4 km/h (2 Bft)
27.06.2020 21:06 25,2 °C 25,2 °C 56 % 60 % 1009,8 hPa 0,0 l/m² 4,4 km/h (1 Bft) SW 236 ° 0 min 14 W/m² 16,9 °C 25,2 °C 6,4 km/h (2 Bft)
27.06.2020 21:08 25,2 °C 25,1 °C 56 % 60 % 1009,9 hPa 0,0 l/m² 5,0 km/h (1 Bft) W-SW 239 ° 0 min 12 W/m² 16,8 °C 25,1 °C 6,4 km/h (2 Bft)
27.06.2020 21:10 25,2 °C 25,0 °C 56 % 61 % 1009,8 hPa 0,0 l/m² 4,0 km/h (1 Bft) W-SW 242 ° 0 min 12 W/m² 16,9 °C 25,0 °C 6,4 km/h (2 Bft)
27.06.2020 21:12 25,2 °C 25,0 °C 56 % 60 % 1009,9 hPa 0,0 l/m² 5,6 km/h (2 Bft) W-SW 240 ° 0 min 11 W/m² 16,7 °C 25,0 °C 9,7 km/h (2 Bft)
27.06.2020 21:13 25,2 °C 24,9 °C 56 % 61 % 1009,9 hPa 0,0 l/m² 4,8 km/h (1 Bft) W-SW 254 ° 0 min 11 W/m² 16,8 °C 24,9 °C 6,4 km/h (2 Bft)
27.06.2020 21:15 25,2 °C 24,9 °C 57 % 61 % 1009,9 hPa 0,0 l/m² 5,0 km/h (1 Bft) W-SW 247 ° 0 min 11 W/m² 16,8 °C 24,9 °C 8,0 km/h (2 Bft)
27.06.2020 21:17 25,2 °C 24,8 °C 57 % 60 % 1009,9 hPa 0,0 l/m² 4,5 km/h (1 Bft) W-SW 249 ° 0 min 9 W/m² 16,5 °C 24,8 °C 6,4 km/h (2 Bft)
27.06.2020 21:19 25,2 °C 24,8 °C 57 % 61 % 1009,9 hPa 0,0 l/m² 4,2 km/h (1 Bft) W-SW 249 ° 0 min 9 W/m² 16,8 °C 24,8 °C 6,4 km/h (2 Bft)
27.06.2020 21:21 25,2 °C 24,7 °C 57 % 61 % 1010,0 hPa 0,0 l/m² 4,3 km/h (1 Bft) W-SW 249 ° 0 min 9 W/m² 16,7 °C 24,7 °C 6,4 km/h (2 Bft)
27.06.2020 21:22 25,2 °C 24,7 °C 57 % 61 % 1009,9 hPa 0,0 l/m² 3,6 km/h (1 Bft) W-SW 249 ° 0 min 9 W/m² 16,7 °C 24,7 °C 4,8 km/h (1 Bft)
27.06.2020 21:23 25,2 °C 24,7 °C 57 % 61 % 1009,9 hPa 0,0 l/m² 3,2 km/h (1 Bft) W-SW 249 ° 0 min 7 W/m² 16,7 °C 24,7 °C 4,8 km/h (1 Bft)
27.06.2020 21:26 25,2 °C 24,5 °C 57 % 62 % 1010,0 hPa 0,0 l/m² 3,6 km/h (1 Bft) W-SW 249 ° 0 min 7 W/m² 16,7 °C 24,5 °C 4,8 km/h (1 Bft)
27.06.2020 21:28 25,2 °C 24,4 °C 57 % 62 % 1010,0 hPa 0,0 l/m² 3,4 km/h (1 Bft) W-SW 249 ° 0 min 5 W/m² 16,6 °C 24,4 °C 4,8 km/h (1 Bft)
27.06.2020 21:30 25,2 °C 24,3 °C 57 % 62 % 1010,0 hPa 0,0 l/m² 2,8 km/h (1 Bft) W-SW 249 ° 0 min 5 W/m² 16,5 °C 24,3 °C 4,8 km/h (1 Bft)
27.06.2020 21:32 25,2 °C 24,2 °C 57 % 62 % 1010,0 hPa 0,0 l/m² 3,9 km/h (1 Bft) W-SW 246 ° 0 min 5 W/m² 16,4 °C 24,2 °C 6,4 km/h (2 Bft)
27.06.2020 21:33 25,2 °C 24,2 °C 57 % 62 % 1010,0 hPa 0,0 l/m² 4,5 km/h (1 Bft) W-SW 244 ° 0 min 0 W/m² 16,4 °C 24,2 °C 6,4 km/h (2 Bft)
27.06.2020 21:36 25,2 °C 24,1 °C 57 % 63 % 1010,1 hPa 0,0 l/m² 4,9 km/h (1 Bft) SW 231 ° 0 min 0 W/m² 16,6 °C 24,1 °C 6,4 km/h (2 Bft)
27.06.2020 21:38 25,2 °C 23,9 °C 57 % 63 % 1010,2 hPa 0,0 l/m² 5,0 km/h (1 Bft) SW 231 ° 0 min 0 W/m² 16,4 °C 23,9 °C 6,4 km/h (2 Bft)
27.06.2020 21:40 25,2 °C 23,8 °C 57 % 63 % 1010,2 hPa 0,0 l/m² 4,1 km/h (1 Bft) SW 231 ° 0 min 0 W/m² 16,3 °C 23,8 °C 6,4 km/h (2 Bft)
27.06.2020 21:42 25,2 °C 23,7 °C 57 % 63 % 1010,2 hPa 0,0 l/m² 2,5 km/h (1 Bft) SW 231 ° 0 min 0 W/m² 16,2 °C 23,7 °C 4,8 km/h (1 Bft)
27.06.2020 21:43 25,2 °C 23,5 °C 57 % 64 % 1010,2 hPa 0,0 l/m² 1,6 km/h (1 Bft) SW 231 ° 0 min 0 W/m² 16,3 °C 23,5 °C 1,6 km/h (1 Bft)
27.06.2020 21:45 25,2 °C 23,3 °C 57 % 65 % 1010,3 hPa 0,0 l/m² 1,7 km/h (1 Bft) SW 231 ° 0 min 0 W/m² 16,3 °C 23,3 °C 3,2 km/h (1 Bft)
27.06.2020 21:46 25,2 °C 23,2 °C 57 % 65 % 1010,3 hPa 0,0 l/m² 1,5 km/h (1 Bft) SW 231 ° 0 min 0 W/m² 16,2 °C 23,2 °C 3,2 km/h (1 Bft)
27.06.2020 21:48 25,2 °C 23,1 °C 57 % 66 % 1010,3 hPa 0,0 l/m² 1,0 km/h (0 Bft) SW 231 ° 0 min 0 W/m² 16,4 °C 23,1 °C 1,6 km/h (1 Bft)
27.06.2020 21:50 25,2 °C 22,8 °C 57 % 67 % 1010,3 hPa 0,0 l/m² 1,2 km/h (1 Bft) SW 231 ° 0 min 0 W/m² 16,3 °C 22,8 °C 3,2 km/h (1 Bft)
27.06.2020 21:52 25,2 °C 22,5 °C 57 % 68 % 1010,3 hPa 0,0 l/m² 1,9 km/h (1 Bft) SW 231 ° 0 min 0 W/m² 16,3 °C 22,5 °C 3,2 km/h (1 Bft)
27.06.2020 21:53 25,2 °C 22,4 °C 57 % 69 % 1010,3 hPa 0,0 l/m² 1,3 km/h (1 Bft) SW 231 ° 0 min 0 W/m² 16,4 °C 22,4 °C 1,6 km/h (1 Bft)
27.06.2020 21:55 25,2 °C 22,3 °C 57 % 70 % 1010,3 hPa 0,0 l/m² 1,7 km/h (1 Bft) SW 231 ° 0 min 0 W/m² 16,6 °C 22,3 °C 3,2 km/h (1 Bft)
27.06.2020 21:57 25,2 °C 22,3 °C 57 % 70 % 1010,4 hPa 0,0 l/m² 0,7 km/h (0 Bft) SW 231 ° 0 min 0 W/m² 16,6 °C 22,3 °C 3,2 km/h (1 Bft)
27.06.2020 21:59 25,2 °C 22,3 °C 57 % 69 % 1010,4 hPa 0,0 l/m² 1,2 km/h (1 Bft) SW 231 ° 0 min 0 W/m² 16,3 °C 22,3 °C 3,2 km/h (1 Bft)
27.06.2020 22:01 25,2 °C 22,4 °C 58 % 69 % 1010,5 hPa 0,0 l/m² 0,6 km/h (0 Bft) SW 231 ° 0 min 0 W/m² 16,4 °C 22,4 °C 1,6 km/h (1 Bft)
27.06.2020 22:02 25,2 °C 22,4 °C 58 % 70 % 1010,5 hPa 0,0 l/m² 2,2 km/h (1 Bft) SW 231 ° 0 min 0 W/m² 16,7 °C 22,4 °C 3,2 km/h (1 Bft)
27.06.2020 22:03 25,2 °C 22,3 °C 58 % 69 % 1010,5 hPa 0,0 l/m² 2,3 km/h (1 Bft) SW 231 ° 0 min 0 W/m² 16,3 °C 22,3 °C 3,2 km/h (1 Bft)
27.06.2020 22:06 25,2 °C 22,4 °C 58 % 69 % 1010,4 hPa 0,0 l/m² 2,2 km/h (1 Bft) SW 231 ° 0 min 0 W/m² 16,4 °C 22,4 °C 4,8 km/h (1 Bft)
27.06.2020 22:07 25,3 °C 22,4 °C 58 % 68 % 1010,5 hPa 0,0 l/m² 0,2 km/h (0 Bft) SW 231 ° 0 min 0 W/m² 16,2 °C 22,4 °C 1,6 km/h (1 Bft)
27.06.2020 22:09 25,2 °C 22,2 °C 58 % 68 % 1010,4 hPa 0,0 l/m² 1,3 km/h (1 Bft) SW 231 ° 0 min 0 W/m² 16,0 °C 22,2 °C 3,2 km/h (1 Bft)
27.06.2020 22:10 25,3 °C 22,1 °C 58 % 69 % 1010,5 hPa 0,0 l/m² 1,3 km/h (1 Bft) SW 231 ° 0 min 0 W/m² 16,1 °C 22,1 °C 1,6 km/h (1 Bft)
27.06.2020 22:11 25,3 °C 22,0 °C 58 % 69 % 1010,5 hPa 0,0 l/m² 1,6 km/h (1 Bft) SW 231 ° 0 min 0 W/m² 16,0 °C 22,0 °C 3,2 km/h (1 Bft)
27.06.2020 22:12 25,3 °C 21,9 °C 58 % 69 % 1010,4 hPa 0,0 l/m² 0,6 km/h (0 Bft) SW 231 ° 0 min 0 W/m² 15,9 °C 21,9 °C 1,6 km/h (1 Bft)
27.06.2020 22:13 25,3 °C 21,9 °C 58 % 70 % 1010,5 hPa 0,0 l/m² 1,0 km/h (0 Bft) SW 231 ° 0 min 0 W/m² 16,2 °C 21,9 °C 1,6 km/h (1 Bft)
27.06.2020 22:15 25,3 °C 22,0 °C 58 % 69 % 1010,5 hPa 0,0 l/m² 2,2 km/h (1 Bft) SW 231 ° 0 min 0 W/m² 16,0 °C 22,0 °C 3,2 km/h (1 Bft)
27.06.2020 22:17 25,3 °C 22,1 °C 58 % 69 % 1010,5 hPa 0,0 l/m² 2,2 km/h (1 Bft) SW 231 ° 0 min 0 W/m² 16,1 °C 22,1 °C 3,2 km/h (1 Bft)
27.06.2020 22:19 25,3 °C 22,2 °C 58 % 69 % 1010,5 hPa 0,0 l/m² 2,0 km/h (1 Bft) SW 231 ° 0 min 0 W/m² 16,2 °C 22,2 °C 3,2 km/h (1 Bft)
27.06.2020 22:21 25,3 °C 22,1 °C 58 % 69 % 1010,6 hPa 0,0 l/m² 1,7 km/h (1 Bft) SW 231 ° 0 min 0 W/m² 16,1 °C 22,1 °C 3,2 km/h (1 Bft)
27.06.2020 22:22 25,3 °C 22,0 °C 58 % 69 % 1010,6 hPa 0,0 l/m² 2,2 km/h (1 Bft) SW 231 ° 0 min 0 W/m² 16,0 °C 22,0 °C 3,2 km/h (1 Bft)
27.06.2020 22:23 25,3 °C 21,9 °C 58 % 68 % 1010,6 hPa 0,0 l/m² 3,8 km/h (1 Bft) SW 231 ° 0 min 0 W/m² 15,7 °C 21,9 °C 4,8 km/h (1 Bft)
27.06.2020 22:26 25,3 °C 21,5 °C 58 % 71 % 1010,5 hPa 0,0 l/m² 3,2 km/h (1 Bft) SW 229 ° 0 min 0 W/m² 16,0 °C 21,5 °C 6,4 km/h (2 Bft)
27.06.2020 22:28 25,3 °C 21,3 °C 58 % 72 % 1010,6 hPa 0,0 l/m² 1,3 km/h (1 Bft) SW 229 ° 0 min 0 W/m² 16,0 °C 21,3 °C 3,2 km/h (1 Bft)
27.06.2020 22:30 25,3 °C 21,3 °C 58 % 72 % 1010,6 hPa 0,0 l/m² 1,1 km/h (1 Bft) SW 229 ° 0 min 0 W/m² 16,0 °C 21,3 °C 1,6 km/h (1 Bft)
27.06.2020 22:32 25,3 °C 21,3 °C 58 % 72 % 1010,6 hPa 0,0 l/m² 0,0 km/h (0 Bft) SW 229 ° 0 min 0 W/m² 16,0 °C 21,3 °C 0,0 km/h (0 Bft)
27.06.2020 22:33 25,3 °C 21,3 °C 58 % 73 % 1010,6 hPa 0,0 l/m² 0,0 km/h (0 Bft) SW 229 ° 0 min 0 W/m² 16,3 °C 21,3 °C 0,0 km/h (0 Bft)
27.06.2020 22:35 25,3 °C 21,3 °C 58 % 73 % 1010,6 hPa 0,0 l/m² 0,0 km/h (0 Bft) SW 229 ° 0 min 0 W/m² 16,3 °C 21,3 °C 0,0 km/h (0 Bft)
27.06.2020 22:37 25,3 °C 21,3 °C 57 % 73 % 1010,7 hPa 0,0 l/m² 0,0 km/h (0 Bft) SW 229 ° 0 min 0 W/m² 16,3 °C 21,3 °C 0,0 km/h (0 Bft)
27.06.2020 22:39 25,3 °C 21,3 °C 57 % 73 % 1010,6 hPa 0,0 l/m² 0,0 km/h (0 Bft) SW 229 ° 0 min 0 W/m² 16,3 °C 21,3 °C 0,0 km/h (0 Bft)
27.06.2020 22:41 25,3 °C 21,4 °C 57 % 73 % 1010,6 hPa 0,0 l/m² 0,2 km/h (0 Bft) SW 229 ° 0 min 0 W/m² 16,4 °C 21,4 °C 1,6 km/h (1 Bft)
27.06.2020 22:42 25,3 °C 21,4 °C 57 % 73 % 1010,7 hPa 0,0 l/m² 1,5 km/h (1 Bft) SW 229 ° 0 min 0 W/m² 16,4 °C 21,4 °C 3,2 km/h (1 Bft)
27.06.2020 22:43 25,3 °C 21,4 °C 57 % 73 % 1010,7 hPa 0,0 l/m² 1,7 km/h (1 Bft) SW 229 ° 0 min 0 W/m² 16,4 °C 21,4 °C 3,2 km/h (1 Bft)
27.06.2020 22:46 25,3 °C 21,4 °C 57 % 74 % 1010,7 hPa 0,0 l/m² 1,3 km/h (1 Bft) SW 229 ° 0 min 0 W/m² 16,6 °C 21,4 °C 3,2 km/h (1 Bft)
27.06.2020 22:48 25,3 °C 21,5 °C 57 % 74 % 1010,7 hPa 0,0 l/m² 1,1 km/h (1 Bft) SW 229 ° 0 min 0 W/m² 16,7 °C 21,5 °C 3,2 km/h (1 Bft)
27.06.2020 22:50 25,3 °C 21,6 °C 57 % 73 % 1010,7 hPa 0,0 l/m² 2,0 km/h (1 Bft) SW 229 ° 0 min 0 W/m² 16,5 °C 21,6 °C 3,2 km/h (1 Bft)
27.06.2020 22:52 25,3 °C 21,6 °C 57 % 73 % 1010,7 hPa 0,0 l/m² 1,5 km/h (1 Bft) SW 229 ° 0 min 0 W/m² 16,5 °C 21,6 °C 3,2 km/h (1 Bft)
27.06.2020 22:53 25,3 °C 21,7 °C 57 % 73 % 1010,7 hPa 0,0 l/m² 1,1 km/h (1 Bft) SW 229 ° 0 min 0 W/m² 16,6 °C 21,7 °C 1,6 km/h (1 Bft)
27.06.2020 22:55 25,3 °C 21,4 °C 57 % 72 % 1010,7 hPa 0,0 l/m² 1,6 km/h (1 Bft) SW 229 ° 0 min 0 W/m² 16,1 °C 21,4 °C 3,2 km/h (1 Bft)
27.06.2020 22:57 25,2 °C 21,1 °C 57 % 74 % 1010,8 hPa 0,0 l/m² 1,1 km/h (1 Bft) SW 229 ° 0 min 0 W/m² 16,3 °C 21,1 °C 1,6 km/h (1 Bft)
27.06.2020 22:59 25,3 °C 20,8 °C 57 % 74 % 1010,9 hPa 0,0 l/m² 1,4 km/h (1 Bft) SW 229 ° 0 min 0 W/m² 16,0 °C 20,8 °C 3,2 km/h (1 Bft)
27.06.2020 23:01 25,3 °C 20,7 °C 57 % 76 % 1010,9 hPa 0,0 l/m² 1,0 km/h (0 Bft) SW 229 ° 0 min 0 W/m² 16,3 °C 20,7 °C 1,6 km/h (1 Bft)
27.06.2020 23:02 25,2 °C 20,6 °C 57 % 76 % 1010,8 hPa 0,0 l/m² 0,6 km/h (0 Bft) SW 229 ° 0 min 0 W/m² 16,2 °C 20,6 °C 1,6 km/h (1 Bft)
27.06.2020 23:03 25,2 °C 20,6 °C 57 % 76 % 1010,8 hPa 0,0 l/m² 1,5 km/h (1 Bft) SW 229 ° 0 min 0 W/m² 16,2 °C 20,6 °C 1,6 km/h (1 Bft)
27.06.2020 23:06 25,3 °C 20,4 °C 57 % 76 % 1010,9 hPa 0,0 l/m² 2,3 km/h (1 Bft) SW 227 ° 0 min 0 W/m² 16,0 °C 20,4 °C 4,8 km/h (1 Bft)
27.06.2020 23:08 25,2 °C 20,3 °C 57 % 75 % 1010,9 hPa 0,0 l/m² 1,7 km/h (1 Bft) SW 227 ° 0 min 0 W/m² 15,7 °C 20,3 °C 3,2 km/h (1 Bft)
27.06.2020 23:10 25,3 °C 19,9 °C 57 % 77 % 1010,9 hPa 0,0 l/m² 0,1 km/h (0 Bft) SW 227 ° 0 min 0 W/m² 15,7 °C 19,9 °C 1,6 km/h (1 Bft)
27.06.2020 23:12 25,2 °C 19,8 °C 57 % 78 % 1010,9 hPa 0,0 l/m² 0,8 km/h (0 Bft) SW 227 ° 0 min 0 W/m² 15,8 °C 19,8 °C 3,2 km/h (1 Bft)
27.06.2020 23:13 25,2 °C 19,7 °C 57 % 78 % 1010,9 hPa 0,0 l/m² 0,2 km/h (0 Bft) SW 227 ° 0 min 0 W/m² 15,8 °C 19,7 °C 1,6 km/h (1 Bft)
27.06.2020 23:15 25,2 °C 19,7 °C 57 % 79 % 1010,9 hPa 0,0 l/m² 0,0 km/h (0 Bft) SW 227 ° 0 min 0 W/m² 16,0 °C 19,7 °C 0,0 km/h (0 Bft)
27.06.2020 23:16 25,2 °C 19,8 °C 57 % 80 % 1011,0 hPa 0,0 l/m² 0,0 km/h (0 Bft) SW 225 ° 0 min 0 W/m² 16,2 °C 19,8 °C 1,6 km/h (1 Bft)
27.06.2020 23:22 25,2 °C 19,4 °C 57 % 79 % 1010,9 hPa 0,0 l/m² 0,8 km/h (0 Bft) SW 227 ° 0 min 0 W/m² 15,7 °C 19,4 °C 1,6 km/h (1 Bft)
27.06.2020 23:24 25,2 °C 19,3 °C 57 % 80 % 1010,9 hPa 0,0 l/m² 0,9 km/h (0 Bft) SW 227 ° 0 min 0 W/m² 15,8 °C 19,3 °C 1,6 km/h (1 Bft)
27.06.2020 23:25 25,2 °C 19,2 °C 57 % 80 % 1010,9 hPa 0,0 l/m² 1,1 km/h (1 Bft) SW 227 ° 0 min 0 W/m² 15,7 °C 19,2 °C 1,6 km/h (1 Bft)
27.06.2020 23:26 25,2 °C 19,2 °C 57 % 81 % 1011,0 hPa 0,0 l/m² 1,0 km/h (0 Bft) SW 227 ° 0 min 0 W/m² 15,9 °C 19,2 °C 1,6 km/h (1 Bft)
27.06.2020 23:28 25,2 °C 19,2 °C 57 % 81 % 1010,9 hPa 0,0 l/m² 2,2 km/h (1 Bft) SW 227 ° 0 min 0 W/m² 15,9 °C 19,2 °C 3,2 km/h (1 Bft)
27.06.2020 23:30 25,2 °C 19,1 °C 57 % 82 % 1010,9 hPa 0,0 l/m² 2,0 km/h (1 Bft) SW 227 ° 0 min 0 W/m² 16,0 °C 19,1 °C 3,2 km/h (1 Bft)
27.06.2020 23:31 25,2 °C 19,1 °C 57 % 83 % 1010,9 hPa 0,0 l/m² 3,0 km/h (1 Bft) SW 227 ° 0 min 0 W/m² 16,1 °C 19,1 °C 4,8 km/h (1 Bft)
27.06.2020 23:32 25,2 °C 19,2 °C 57 % 83 % 1010,9 hPa 0,0 l/m² 2,8 km/h (1 Bft) SW 227 ° 0 min 0 W/m² 16,2 °C 19,2 °C 3,2 km/h (1 Bft)
27.06.2020 23:33 25,2 °C 19,2 °C 57 % 83 % 1010,9 hPa 0,0 l/m² 3,6 km/h (1 Bft) SW 227 ° 0 min 0 W/m² 16,2 °C 19,2 °C 4,8 km/h (1 Bft)
27.06.2020 23:34 25,2 °C 19,2 °C 57 % 83 % 1010,9 hPa 0,0 l/m² 2,8 km/h (1 Bft) SW 227 ° 0 min 0 W/m² 16,2 °C 19,2 °C 3,2 km/h (1 Bft)
27.06.2020 23:36 25,2 °C 19,1 °C 58 % 82 % 1010,9 hPa 0,0 l/m² 2,3 km/h (1 Bft) SW 227 ° 0 min 0 W/m² 16,0 °C 19,1 °C 3,2 km/h (1 Bft)
27.06.2020 23:38 25,2 °C 19,1 °C 58 % 82 % 1010,9 hPa 0,0 l/m² 1,9 km/h (1 Bft) SW 227 ° 0 min 0 W/m² 16,0 °C 19,1 °C 3,2 km/h (1 Bft)
27.06.2020 23:40 25,2 °C 19,2 °C 58 % 83 % 1010,9 hPa 0,0 l/m² 1,9 km/h (1 Bft) SW 227 ° 0 min 0 W/m² 16,2 °C 19,2 °C 3,2 km/h (1 Bft)
27.06.2020 23:41 25,2 °C 19,3 °C 58 % 82 % 1010,9 hPa 0,0 l/m² 2,1 km/h (1 Bft) SW 227 ° 0 min 0 W/m² 16,1 °C 19,3 °C 3,2 km/h (1 Bft)
27.06.2020 23:42 25,2 °C 19,3 °C 58 % 82 % 1010,9 hPa 0,0 l/m² 1,6 km/h (1 Bft) SW 227 ° 0 min 0 W/m² 16,1 °C 19,3 °C 3,2 km/h (1 Bft)
27.06.2020 23:43 25,2 °C 19,4 °C 58 % 81 % 1010,9 hPa 0,0 l/m² 1,2 km/h (1 Bft) SW 227 ° 0 min 0 W/m² 16,1 °C 19,4 °C 3,2 km/h (1 Bft)
27.06.2020 23:44 25,1 °C 19,4 °C 58 % 80 % 1010,9 hPa 0,0 l/m² 0,8 km/h (0 Bft) SW 227 ° 0 min 0 W/m² 15,9 °C 19,4 °C 1,6 km/h (1 Bft)
27.06.2020 23:46 25,2 °C 19,6 °C 58 % 80 % 1010,9 hPa 0,0 l/m² 0,5 km/h (0 Bft) SW 227 ° 0 min 0 W/m² 16,1 °C 19,6 °C 1,6 km/h (1 Bft)
27.06.2020 23:48 25,1 °C 19,6 °C 58 % 79 % 1011,0 hPa 0,0 l/m² 0,1 km/h (0 Bft) SW 227 ° 0 min 0 W/m² 15,9 °C 19,6 °C 1,6 km/h (1 Bft)
27.06.2020 23:50 25,2 °C 19,6 °C 58 % 79 % 1011,0 hPa 0,0 l/m² 0,0 km/h (0 Bft) SW 227 ° 0 min 0 W/m² 15,9 °C 19,6 °C 0,0 km/h (0 Bft)
27.06.2020 23:51 25,1 °C 19,6 °C 58 % 79 % 1011,0 hPa 0,0 l/m² 0,4 km/h (0 Bft) SW 227 ° 0 min 0 W/m² 15,9 °C 19,6 °C 1,6 km/h (1 Bft)
27.06.2020 23:52 25,1 °C 19,6 °C 58 % 79 % 1011,0 hPa 0,0 l/m² 1,0 km/h (0 Bft) SW 227 ° 0 min 0 W/m² 15,9 °C 19,6 °C 1,6 km/h (1 Bft)
27.06.2020 23:53 25,2 °C 19,6 °C 58 % 79 % 1011,0 hPa 0,0 l/m² 1,0 km/h (0 Bft) SW 227 ° 0 min 0 W/m² 15,9 °C 19,6 °C 1,6 km/h (1 Bft)
27.06.2020 23:54 25,1 °C 19,5 °C 58 % 80 % 1011,0 hPa 0,0 l/m² 0,1 km/h (0 Bft) SW 227 ° 0 min 0 W/m² 16,0 °C 19,5 °C 1,6 km/h (1 Bft)
27.06.2020 23:56 25,1 °C 19,4 °C 58 % 81 % 1011,0 hPa 0,0 l/m² 0,3 km/h (0 Bft) SW 227 ° 0 min 0 W/m² 16,1 °C 19,4 °C 1,6 km/h (1 Bft)
27.06.2020 23:58 25,1 °C 19,3 °C 58 % 82 % 1011,0 hPa 0,0 l/m² 0,6 km/h (0 Bft) SW 227 ° 0 min 0 W/m² 16,1 °C 19,3 °C 3,2 km/h (1 Bft)
27.06.2020 23:59 25,1 °C 19,3 °C 58 % 82 % 1011,1 hPa 0,0 l/m² 0,3 km/h (0 Bft) SW 227 ° 0 min 0 W/m² 16,1 °C 19,3 °C 1,6 km/h (1 Bft)
_ Min-Zeit 08:24 05:25 17:21 16:00 19:37 - 23:50 - - - - 04:39 05:25 23:50
Minimum _ 23,7 °C 13,0 °C 50 % 36 % 1009,1 hPa - 0,0 km/h (0 Bft) - - - - 11,4 °C 13,0 °C 0,0 km/h (0 Bft)
_ Max-Zeit 18:43 16:00 13:08 06:19 23:59 23:59 16:53 - - 19:46 13:49 14:41 15:50 18:12
Maximum _ 25,4 °C 31,8 °C 62 % 93 % 1011,1 hPa 0,0 l/m² 32,6 km/h
SW (5 Bft)
- - 3 min 1065 W/m² 18,2 °C 31,4 °C 41,8 km/h
SW (6 Bft)
Durchschnitt _ 24,5 °C 23,4 °C 57 % 65 % 1010,2 hPa #0,0 l/m² 9,3 km/h (2 Bft) SW - #13:48 h 297 W/m² 15,5 °C 23,0 °C 13,4 km/h (3 Bft)
© 2009 Mathias Hoßbach